Site Date LOGGERID PROGID AIRTEMP_MEAN_150_0_04 AIRTEMP_MEAN_250_0_03 AIRTEMP_MEAN_350_0_02 AIRTEMP_MEAN_450_0_01 AIRTEMP_MEAN_350_0_08 RELHUM_MEAN_150_0_04 RELHUM_MEAN_450_0_01 DEWPT_MEAN_150_0_04 DEWPT_MEAN_450_0_01 SOILTEMP_MEAN_0_10_01 SOILTEMP_MEAN_0_20_02 SOILTEMP_MEAN_0_50_03 SOILTEMP_MEAN_0_100_04 SOILWC_MEAN_0_10_01 SOILWC_MEAN_0_20_02 SOILWC_MEAN_0_50_03 SOILWC_MEAN_0_100_04 SOLAR_MEAN_850_0_01 SNOWDEP_MED_0_0_01 SWE_MED_0_0_01 WSPD_PRO_MEAN_1000_0_01 WDIR_PRO_MEAN_1000_0_01 WDIR_PRO_STDDEV_1000_0_01 AIRTEMP_150_DIAG AIRTEMP_250_DIAG SNOW_DIAG AIRTEMP_MAX_150_0_04 AIRTEMP_MAX_250_0_03 AIRTEMP_MAX_350_0_02 AIRTEMP_MAX_350_0_08 AIRTEMP_MAX_450_0_01 DEWPT_MAX_150_0_04 DEWPT_MAX_450_0_01 AIRTEMP_MIN_150_0_04 AIRTEMP_MIN_250_0_03 AIRTEMP_MIN_350_0_02 AIRTEMP_MIN_350_0_08 AIRTEMP_MIN_450_0_01 DEWPT_MIN_150_0_04 DEWPT_MIN_450_0_01 WSPD_PRO_MAX_1000_0_01 SATVP_MEAN_150_0_04 VAP_MEAN_150_0_04 VPD_MEAN_150_0_04 SATVP_MEAN_450_0_01 VAP_MEAN_450_0_01 VPD_MEAN_450_0_01
VANMET_231 2018-01-21 12:15:00 231 11739.0   0.085 0.215 -0.111 0.015   100.000   -0.111 1.794 2.354 3.225 3.505 0.287 0.302 0.380 0.674 10.32 318.50   0.9850 257.50 31.35 0 1 0   0.095 0.226 0.051 -0.096   -0.096   0.073 0.202 -0.015 -0.130   -0.130 2.1760       6.059 6.059 0.000
VANMET_231 2018-01-21 12:10:00 231 11739.0   0.089 0.210 -0.093 0.020   100.000   -0.093 1.795 2.354 3.226 3.504 0.287 0.302 0.380 0.674 11.09 318.50   1.2400 248.20 18.41 0 1 0   0.128 0.253 0.052 -0.063   -0.063   0.060 0.185 -0.005 -0.116   -0.117 2.7180       6.067 6.067 0.000
VANMET_231 2018-01-21 12:05:00 231 11739.0   0.116 0.237 -0.088 0.030   100.000   -0.088 1.795 2.355 3.226 3.504 0.287 0.302 0.380 0.674 12.01 318.50   1.3410 231.20 31.01 0 1 0   0.136 0.267 0.069 -0.066   -0.067   0.090 0.216 0.003 -0.103   -0.103 3.0710       6.069 6.069 0.000
VANMET_231 2018-01-21 12:00:00 231 11739.0   0.166 0.282 -0.039 0.057   100.000   -0.039 1.796 2.356 3.226 3.504 0.287 0.302 0.380 0.674 12.62 317.50   1.1270 245.10 24.18 0 1 0   0.202 0.320 0.142 -0.027   -0.027   0.116 0.235 -0.001 -0.063   -0.063 2.4830       6.090 6.090 -0.000
VANMET_231 2018-01-21 11:55:00 231 11739.0   0.121 0.249 -0.084 0.059   100.000   -0.084 1.797 2.357 3.226 3.504 0.287 0.302 0.380 0.674 11.10 317.00   1.4720 221.10 38.53 0 1 0   0.184 0.311 0.140 -0.050   -0.050   0.087 0.216 0.021 -0.100   -0.100 3.0050       6.071 6.071 0.000
VANMET_231 2018-01-21 11:50:00 231 11739.0   0.155 0.270 -0.061 0.036   100.000   -0.061 1.798 2.358 3.226 3.503 0.287 0.302 0.380 0.674 12.45 317.00   1.9820 235.00 31.58 0 1 0   0.195 0.316 0.058 -0.016   -0.016   0.120 0.237 0.016 -0.096   -0.096 3.5020       6.081 6.081 0.000
VANMET_231 2018-01-21 11:45:00 231 11739.0   0.258 0.374 0.002 0.086   100.000   0.002 1.799 2.359 3.227 3.503 0.287 0.302 0.380 0.674 13.63 317.00   1.0910 235.40 41.24 0 1 0   0.313 0.428 0.177 0.034   0.034   0.207 0.331 0.031 -0.026   -0.026 2.5280       6.109 6.109 0.000
VANMET_231 2018-01-21 11:40:00 231 11739.0   0.206 0.330 -0.054 0.087   100.000   -0.054 1.800 2.360 3.227 3.503 0.287 0.302 0.380 0.674 14.58 316.50   1.5260 239.10 51.94 0 1 0   0.314 0.430 0.213 0.011   0.011   0.144 0.272 0.018 -0.119   -0.119 4.6520       6.084 6.084 0.000
VANMET_231 2018-01-21 11:35:00 231 11739.0   0.142 0.274 -0.080 0.017   100.000   -0.080 1.801 2.361 3.228 3.503 0.287 0.302 0.380 0.674 14.50 314.50   0.8910 227.80 46.10 0 1 0   0.159 0.314 0.049 -0.049   -0.049   0.126 0.248 -0.006 -0.116   -0.116 2.0320       6.072 6.072 0.000
VANMET_231 2018-01-21 11:30:00 231 11739.0   0.171 0.312 -0.078 0.059   100.000   -0.078 1.802 2.362 3.228 3.503 0.287 0.302 0.380 0.674 15.58 312.50   1.9570 249.40 34.69 0 1 0   0.184 0.328 0.085 -0.052   -0.052   0.159 0.278 0.016 -0.115   -0.115 4.5990       6.073 6.073 0.000
VANMET_231 2018-01-21 11:25:00 231 11739.0   0.156 0.268 -0.121 0.028   100.000   -0.121 1.802 2.363 3.229 3.503 0.287 0.302 0.380 0.674 15.30 311.50   1.1380 245.30 52.21 0 1 0   0.203 0.307 0.052 -0.085   -0.085   0.122 0.246 0.006 -0.152   -0.152 2.1560       6.054 6.054 0.000
VANMET_231 2018-01-21 11:20:00 231 11739.0   0.096 0.210 -0.165 0.000   100.000   -0.165 1.803 2.364 3.229 3.503 0.288 0.302 0.380 0.674 15.22 309.00   1.6110 242.50 44.08 0 1 0   0.138 0.240 0.026 -0.145   -0.145   0.061 0.180 -0.028 -0.185   -0.185 3.0840       6.035 6.035 0.000
VANMET_231 2018-01-21 11:15:00 231 11739.0   0.143 0.257 -0.154 0.010   100.000   -0.155 1.804 2.365 3.229 3.503 0.288 0.302 0.380 0.674 15.14 305.50   1.4910 232.30 49.94 0 1 0   0.171 0.284 0.030 -0.141   -0.142   0.109 0.228 -0.015 -0.191   -0.192 3.2600       6.040 6.039 0.000
VANMET_231 2018-01-21 11:10:00 231 11739.0   0.112 0.222 -0.166 -0.014   100.000   -0.166 1.805 2.366 3.230 3.503 0.288 0.302 0.380 0.674 14.38 303.50   0.8830 226.30 39.17 0 1 0   0.141 0.251 0.001 -0.145   -0.145   0.076 0.191 -0.024 -0.188   -0.188 2.1430       6.034 6.034 0.000
VANMET_231 2018-01-21 11:05:00 231 11739.0   0.070 0.205 -0.166 -0.010   100.000   -0.166 1.806 2.367 3.230 3.503 0.288 0.302 0.380 0.674 13.82 301.00   1.2010 241.60 28.06 0 1 0   0.094 0.255 0.004 -0.148   -0.148   0.051 0.182 -0.025 -0.191   -0.192 2.4110       6.034 6.034 0.000
VANMET_231 2018-01-21 11:00:00 231 11739.0   0.137 0.247 -0.183 0.014   100.000   -0.183 1.807 2.368 3.230 3.502 0.288 0.302 0.380 0.674 11.88 300.00   1.5300 234.80 27.12 0 1 0   0.190 0.255 0.030 -0.155   -0.155   0.086 0.237 -0.005 -0.194   -0.194 3.0510       6.027 6.027 0.000
VANMET_231 2018-01-21 10:55:00 231 11739.0   0.166 0.226 -0.201 -0.028   100.000   -0.201 1.808 2.368 3.231 3.502 0.288 0.302 0.380 0.674 11.65 300.00   1.2620 227.30 68.47 0 1 0   0.187 0.241 0.022 -0.188   -0.188   0.151 0.198 -0.062 -0.214   -0.214 3.2800       6.019 6.019 0.000
VANMET_231 2018-01-21 10:50:00 231 11739.0   0.140 0.186 -0.216 -0.050   100.000   -0.216 1.809 2.370 3.231 3.502 0.288 0.302 0.380 0.674 11.71 298.00   1.1880 223.10 17.78 0 1 0   0.170 0.202 -0.041 -0.201   -0.201   0.106 0.169 -0.062 -0.231   -0.231 2.6530       6.012 6.012 -0.000
VANMET_231 2018-01-21 10:45:00 231 11739.0   0.055 0.134 -0.248 -0.046   100.000   -0.249 1.810 2.370 3.231 3.502 0.288 0.302 0.380 0.674 9.30 298.00   0.9710 223.30 27.88 0 1 0   0.096 0.161 -0.033 -0.228   -0.228   0.028 0.112 -0.057 -0.277   -0.277 1.9530       5.998 5.998 0.000
VANMET_231 2018-01-21 10:40:00 231 11739.0   0.011 0.101 -0.266 -0.044   100.000   -0.266 1.811 2.371 3.232 3.502 0.288 0.302 0.380 0.674 7.20 295.50   0.7250 214.30 25.60 0 1 0   0.029 0.116 -0.022 -0.254   -0.254   -0.011 0.073 -0.081 -0.290   -0.291 1.9210       5.991 5.991 0.000
VANMET_231 2018-01-21 10:35:00 231 11739.0   -0.008 0.081 -0.276 -0.089   100.000   -0.277 1.812 2.372 3.232 3.502 0.288 0.302 0.380 0.674 7.54 295.50   0.9820 224.20 41.92 0 1 0   0.012 0.090 -0.076 -0.267   -0.267   -0.030 0.065 -0.106 -0.287   -0.287 2.1170       5.986 5.986 0.000
VANMET_231 2018-01-21 10:30:00 231 11739.0   -0.036 0.057 -0.293 -0.060   100.000   -0.293 1.812 2.373 3.232 3.502 0.288 0.302 0.380 0.674 6.81 295.50   0.6660 208.50 43.20 0 1 0   0.000 0.085 -0.041 -0.270   -0.270   -0.067 0.030 -0.092 -0.314   -0.314 2.0380       5.979 5.979 0.000
VANMET_231 2018-01-21 10:25:00 231 11739.0   -0.064 0.019 -0.304 -0.113   100.000   -0.305 1.813 2.375 3.233 3.502 0.288 0.302 0.380 0.674 5.94 294.00   1.1290 218.20 36.82 0 1 0   -0.058 0.026 -0.091 -0.290   -0.291   -0.076 0.012 -0.128 -0.320   -0.320 1.7770       5.974 5.974 0.000
VANMET_231 2018-01-21 10:20:00 231 11739.0   -0.071 0.019 -0.310 -0.113   100.000   -0.310 1.815 2.376 3.233 3.502 0.288 0.302 0.380 0.674 5.18 294.00   0.9920 235.70 30.19 0 1 0   -0.065 0.025 -0.102 -0.290   -0.291   -0.079 0.012 -0.123 -0.323   -0.324 3.3120       5.971 5.971 0.000
VANMET_231 2018-01-21 10:15:00 231 11739.0   -0.076 0.013 -0.319 -0.086   100.000   -0.319 1.815 2.376 3.233 3.501 0.288 0.302 0.380 0.674 5.09 294.00   1.7530 239.40 29.08 0 1 0   -0.070 0.021 -0.060 -0.306   -0.307   -0.084 0.003 -0.137 -0.333   -0.333 3.1820       5.967 5.967 0.000
VANMET_231 2018-01-21 10:10:00 231 11739.0   -0.089 0.000 -0.329 -0.135   100.000   -0.329 1.816 2.377 3.233 3.501 0.288 0.302 0.380 0.674 5.70 290.00   0.9630 214.90 23.96 0 1 0   -0.076 0.010 -0.128 -0.317   -0.317   -0.115 -0.014 -0.153 -0.350   -0.350 1.6460       5.963 5.963 -0.000
VANMET_231 2018-01-21 10:05:00 231 11739.0   -0.132 -0.037 -0.351 -0.153   100.000   -0.352 1.817 2.379 3.235 3.501 0.288 0.302 0.380 0.674 5.49 283.00   0.8660 211.40 23.96 0 1 0   -0.116 -0.017 -0.137 -0.337   -0.337   -0.138 -0.050 -0.163 -0.363   -0.363 1.7770       5.954 5.953 0.000
VANMET_231 2018-01-21 10:00:00 231 11739.0   -0.132 -0.039 -0.361 -0.155   100.000   -0.361 1.818 2.379 3.235 3.501 0.288 0.302 0.380 0.674 4.98 278.50   1.6130 226.00 32.21 0 1 0   -0.127 -0.032 -0.151 -0.343   -0.343   -0.137 -0.046 -0.160 -0.380   -0.380 3.0310       5.949 5.949 0.000
VANMET_231 2018-01-21 09:55:00 231 11739.0   -0.150 -0.047 -0.386 -0.156   100.000   -0.386 1.819 2.380 3.235 3.501 0.288 0.302 0.380 0.674 4.55 275.50   1.0320 238.50 40.99 0 1 0   -0.132 -0.035 -0.145 -0.363   -0.363   -0.165 -0.060 -0.173 -0.413   -0.413 3.2800       5.938 5.938 0.000
VANMET_231 2018-01-21 09:50:00 231 11739.0   -0.163 -0.056 -0.404 -0.178   100.000   -0.405 1.820 2.381 3.235 3.501 0.288 0.302 0.380 0.674 4.70 275.50   1.0160 218.50 23.13 0 1 0   -0.150 -0.049 -0.169 -0.377   -0.377   -0.178 -0.062 -0.187 -0.426   -0.426 4.2990       5.931 5.930 0.000
VANMET_231 2018-01-21 09:45:00 231 11739.0   -0.199 -0.089 -0.438 -0.152   100.000   -0.438 1.821 2.382 3.236 3.501 0.288 0.302 0.380 0.674 4.24 275.50   0.8120 195.10 26.24 0 1 0   -0.175 -0.064 -0.114 -0.416   -0.416   -0.220 -0.112 -0.195 -0.456   -0.456 2.8620       5.916 5.916 0.000
VANMET_231 2018-01-21 09:40:00 231 11739.0   -0.225 -0.114 -0.455 -0.228   100.000   -0.455 1.822 2.383 3.237 3.501 0.288 0.302 0.380 0.674 4.14 275.50   1.3480 209.00 46.73 0 1 0   -0.219 -0.108 -0.195 -0.436   -0.436   -0.232 -0.119 -0.254 -0.466   -0.466 2.6390       5.908 5.908 0.000
VANMET_231 2018-01-21 09:35:00 231 11739.0   -0.244 -0.130 -0.473 -0.217   100.000   -0.474 1.823 2.384 3.236 3.501 0.288 0.302 0.380 0.674 4.39 277.50   1.0740 210.40 63.28 0 1 0   -0.226 -0.113 -0.198 -0.455   -0.456   -0.264 -0.147 -0.242 -0.492   -0.492 2.1100       5.901 5.900 0.000
VANMET_231 2018-01-21 09:30:00 231 11739.0   -0.281 -0.168 -0.500 -0.265   100.000   -0.500 1.824 2.385 3.237 3.500 0.288 0.302 0.380 0.674 4.33 277.50   1.1540 213.50 34.85 0 1 0   -0.263 -0.148 -0.222 -0.479   -0.479   -0.299 -0.181 -0.298 -0.519   -0.519 2.9010       5.889 5.889 0.000
VANMET_231 2018-01-21 09:25:00 231 11739.0   -0.315 -0.200 -0.527 -0.291   100.000   -0.527 1.825 2.386 3.237 3.500 0.288 0.302 0.380 0.674 3.44 278.50   0.7820 208.00 44.71 0 1 0   -0.302 -0.185 -0.263 -0.509   -0.509   -0.325 -0.212 -0.310 -0.548   -0.549 2.3590       5.877 5.877 0.000
VANMET_231 2018-01-21 09:20:00 231 11739.0   -0.310 -0.199 -0.528 -0.290   100.000   -0.529 1.825 2.387 3.238 3.500 0.288 0.302 0.380 0.674 3.32 279.50   1.2570 239.20 31.82 0 1 0   -0.301 -0.192 -0.284 -0.509   -0.509   -0.326 -0.212 -0.298 -0.549   -0.549 2.7310       5.877 5.877 0.000
VANMET_231 2018-01-21 09:15:00 231 11739.0   -0.328 -0.217 -0.550 -0.296   100.000   -0.550 1.826 2.388 3.238 3.500 0.288 0.302 0.380 0.674 3.42 280.00   1.2720 212.20 36.25 0 1 0   -0.324 -0.212 -0.283 -0.538   -0.539   -0.336 -0.221 -0.320 -0.565   -0.565 2.5280       5.868 5.868 0.000
VANMET_231 2018-01-21 09:10:00 231 11739.0   -0.335 -0.221 -0.570 -0.307   100.000   -0.570 1.827 2.389 3.238 3.500 0.288 0.302 0.380 0.674 3.04 280.50   0.7000 226.20 23.43 0 1 0   -0.326 -0.212 -0.284 -0.555   -0.555   -0.340 -0.228 -0.325 -0.595   -0.595 1.5480       5.859 5.859 0.000
VANMET_231 2018-01-21 09:05:00 231 11739.0   -0.343 -0.232 -0.589 -0.266   100.000   -0.590 1.828 2.390 3.239 3.500 0.288 0.302 0.380 0.674 2.71 280.50   1.4530 222.60 23.11 0 1 0   -0.337 -0.226 -0.241 -0.575   -0.575   -0.350 -0.241 -0.308 -0.605   -0.605 4.9650       5.851 5.850 0.000
VANMET_231 2018-01-21 09:00:00 231 11739.0   -0.392 -0.278 -0.632 -0.307   100.000   -0.633 1.829 2.391 3.239 3.499 0.288 0.302 0.380 0.674 2.87 281.00   0.9110 206.10 42.98 0 1 0   -0.348 -0.236 -0.224 -0.594   -0.595   -0.423 -0.306 -0.369 -0.654   -0.655 2.1100       5.833 5.832 0.000
VANMET_231 2018-01-21 08:55:00 231 11739.0   -0.432 -0.314 -0.656 -0.377   100.000   -0.657 1.830 2.392 3.239 3.499 0.288 0.302 0.380 0.674 2.74 281.00   0.9100 228.60 42.89 0 1 0   -0.425 -0.307 -0.332 -0.638   -0.638   -0.439 -0.321 -0.394 -0.671   -0.671 2.5220       5.822 5.822 0.000
VANMET_231 2018-01-21 08:50:00 231 11739.0   -0.432 -0.323 -0.669 -0.386   100.000   -0.670 1.831 2.393 3.240 3.499 0.288 0.302 0.380 0.675 2.93 281.00   1.1140 228.30 30.79 0 1 0   -0.428 -0.319 -0.361 -0.641   -0.641   -0.442 -0.332 -0.415 -0.687   -0.688 2.5870       5.817 5.816 0.000
VANMET_231 2018-01-21 08:45:00 231 11739.0   -0.473 -0.355 -0.700 -0.386   100.000   -0.701 1.832 2.394 3.240 3.499 0.288 0.302 0.380 0.675 2.76 280.50   0.6650 250.30 43.97 0 1 0   -0.444 -0.333 -0.331 -0.674   -0.675   -0.491 -0.368 -0.448 -0.724   -0.725 1.8820       5.804 5.803 0.000
VANMET_231 2018-01-21 08:40:00 231 11739.0   -0.493 -0.371 -0.723 -0.403   100.000   -0.723 1.833 2.394 3.240 3.499 0.288 0.302 0.380 0.675 2.06 279.50   0.9010 232.30 41.41 0 1 0   -0.483 -0.365 -0.388 -0.711   -0.711   -0.501 -0.378 -0.435 -0.747   -0.748 2.8680       5.794 5.794 0.000
VANMET_231 2018-01-21 08:35:00 231 11739.0   -0.510 -0.392 -0.751 -0.392   100.000   -0.751 1.834 2.396 3.240 3.499 0.288 0.302 0.380 0.675 1.69 279.50   1.0810 208.70 73.87 0 1 0   -0.496 -0.373 -0.368 -0.721   -0.721   -0.521 -0.408 -0.418 -0.780   -0.781 2.4300       5.782 5.782 0.000
VANMET_231 2018-01-21 08:30:00 231 11739.0   -0.551 -0.430 -0.796 -0.414   100.000   -0.796 1.835 2.397 3.241 3.499 0.288 0.302 0.380 0.675 1.53 277.50   0.9720 157.80 45.02 0 1 0   -0.522 -0.411 -0.381 -0.761   -0.761   -0.563 -0.441 -0.447 -0.820   -0.821 2.0060       5.763 5.763 0.000
VANMET_231 2018-01-21 08:25:00 231 11739.0   -0.599 -0.478 -0.847 -0.413   100.000   -0.848 1.836 2.398 3.241 3.499 0.288 0.302 0.380 0.675 1.14 274.50   1.3560 191.90 51.19 0 1 0   -0.562 -0.444 -0.346 -0.817   -0.818   -0.631 -0.510 -0.491 -0.877   -0.877 2.4890       5.741 5.741 0.000
VANMET_231 2018-01-21 08:20:00 231 11739.0   -0.640 -0.528 -0.884 -0.464   100.000   -0.885 1.837 2.399 3.242 3.498 0.288 0.302 0.380 0.675 0.95 270.50   1.1230 212.20 63.47 0 1 0   -0.627 -0.512 -0.432 -0.867   -0.867   -0.665 -0.553 -0.505 -0.900   -0.900 2.5280       5.726 5.725 0.000
VANMET_231 2018-01-21 08:15:00 231 11739.0   -0.687 -0.568 -0.917 -0.540   100.000   -0.918 1.838 2.400 3.242 3.498 0.288 0.302 0.380 0.675 0.83 265.50   0.9400 209.60 58.05 0 1 0   -0.671 -0.554 -0.515 -0.897   -0.897   -0.698 -0.578 -0.570 -0.933   -0.934 2.3390       5.712 5.712 -0.000
VANMET_231 2018-01-21 08:10:00 231 11739.0   -0.715 -0.598 -0.942 -0.539   100.000   -0.943 1.838 2.401 3.242 3.498 0.288 0.302 0.380 0.675 0.78 261.50   1.5850 218.30 54.00 0 1 0   -0.698 -0.578 -0.517 -0.927   -0.927   -0.735 -0.619 -0.567 -0.957   -0.957 2.9990       5.702 5.701 0.000
VANMET_231 2018-01-21 08:05:00 231 11739.0   -0.738 -0.621 -0.953 -0.625   100.000   -0.953 1.840 2.402 3.242 3.498 0.288 0.302 0.380 0.675 0.62 260.50   0.4940 225.10 61.79 0 1 0   -0.720 -0.610 -0.559 -0.933   -0.934   -0.745 -0.626 -0.651 -0.966   -0.967 2.3060       5.697 5.697 0.000
VANMET_231 2018-01-21 08:00:00 231 11739.0   -0.727 -0.619 -0.974 -0.594   100.000   -0.975 1.841 2.403 3.243 3.498 0.288 0.302 0.380 0.675 0.39 260.00   0.8780 155.80 75.51 0 1 0   -0.717 -0.610 -0.573 -0.950   -0.950   -0.737 -0.631 -0.625 -1.006   -1.007 2.6260       5.688 5.688 -0.000
VANMET_231 2018-01-21 07:55:00 231 11739.0   -0.806 -0.693 -1.045 -0.623   100.000   -1.046 1.841 2.404 3.243 3.498 0.288 0.302 0.380 0.675 0.28 259.50   0.8210 195.90 47.84 0 1 0   -0.736 -0.634 -0.541 -1.006   -1.007   -0.862 -0.731 -0.688 -1.086   -1.086 2.3000       5.659 5.658 -0.000
VANMET_231 2018-01-21 07:50:00 231 11739.0   -0.889 -0.764 -1.089 -0.725   100.000   -1.089 1.842 2.404 3.243 3.497 0.288 0.302 0.380 0.675 0.16 258.50   1.6540 230.70 27.01 0 1 0   -0.864 -0.734 -0.669 -1.066   -1.066   -0.906 -0.785 -0.783 -1.113   -1.113 4.5210       5.640 5.640 0.000
VANMET_231 2018-01-21 07:45:00 231 11739.0   -0.887 -0.769 -1.089 -0.760   100.000   -1.090 1.843 2.406 3.244 3.498 0.288 0.302 0.380 0.675 0.06 256.50   0.8110 211.60 55.40 0 1 0   -0.877 -0.762 -0.710 -1.076   -1.076   -0.901 -0.782 -0.794 -1.103   -1.103 2.2740       5.640 5.640 0.000
VANMET_231 2018-01-21 07:40:00 231 11739.0   -0.886 -0.771 -1.086 -0.729   100.000   -1.087 1.844 2.407 3.244 3.498 0.288 0.302 0.380 0.675 0.00 255.00   0.7900 217.60 49.64 0 1 0   -0.881 -0.765 -0.691 -1.069   -1.070   -0.890 -0.775 -0.778 -1.099   -1.100 1.7900       5.642 5.641 0.000
VANMET_231 2018-01-21 07:35:00 231 11739.0   -0.867 -0.755 -1.090 -0.754   100.000   -1.091 1.845 2.408 3.245 3.497 0.288 0.302 0.380 0.675 0.00 254.50   1.1070 231.60 41.16 0 1 0   -0.855 -0.744 -0.732 -1.079   -1.080   -0.880 -0.767 -0.777 -1.113   -1.113 1.7310       5.640 5.640 0.000
VANMET_231 2018-01-21 07:30:00 231 11739.0   -0.858 -0.750 -1.113 -0.701   100.000   -1.114 1.846 2.408 3.245 3.497 0.288 0.302 0.381 0.675 0.00 254.50   1.0730 198.20 52.05 0 1 0   -0.846 -0.737 -0.653 -1.089   -1.090   -0.869 -0.762 -0.737 -1.135   -1.136 2.5350       5.630 5.630 0.000
VANMET_231 2018-01-21 07:25:00 231 11739.0   -0.893 -0.793 -1.154 -0.703   100.000   -1.154 1.847 2.410 3.245 3.497 0.288 0.302 0.381 0.675 0.00 254.50   1.0170 223.50 51.81 0 1 0   -0.856 -0.761 -0.630 -1.116   -1.116   -0.930 -0.824 -0.782 -1.185   -1.186 3.5150       5.614 5.614 0.000
VANMET_231 2018-01-21 07:20:00 231 11739.0   -0.949 -0.848 -1.186 -0.791   100.000   -1.186 1.848 2.411 3.245 3.497 0.288 0.302 0.381 0.675 0.00 254.00   1.3260 220.80 67.57 0 1 0   -0.930 -0.825 -0.743 -1.159   -1.159   -0.988 -0.884 -0.840 -1.222   -1.222 3.0050       5.600 5.600 0.000
VANMET_231 2018-01-21 07:15:00 231 11739.0   -0.995 -0.891 -1.213 -0.871   100.000   -1.213 1.849 2.412 3.246 3.496 0.288 0.302 0.381 0.675 0.00 253.00   0.6670 215.80 53.56 0 1 0   -0.983 -0.879 -0.835 -1.198   -1.199   -1.002 -0.896 -0.905 -1.225   -1.226 1.7310       5.589 5.589 -0.000
VANMET_231 2018-01-21 07:10:00 231 11739.0   -0.951 -0.853 -1.195 -0.846   100.000   -1.196 1.851 2.413 3.246 3.497 0.289 0.302 0.381 0.675 0.00 252.00   0.8640 237.30 26.83 0 1 0   -0.924 -0.842 -0.749 -1.175   -1.176   -0.979 -0.876 -0.900 -1.212   -1.213 1.9530       5.597 5.596 0.000
VANMET_231 2018-01-21 07:05:00 231 11739.0   -0.958 -0.865 -1.208 -0.772   100.000   -1.209 1.851 2.414 3.247 3.496 0.288 0.302 0.381 0.675 0.00 251.50   0.6480 256.00 49.02 0 1 0   -0.924 -0.843 -0.715 -1.188   -1.189   -0.980 -0.880 -0.827 -1.222   -1.222 1.9010       5.591 5.591 0.000
VANMET_231 2018-01-21 07:00:00 231 11739.0   -0.985 -0.882 -1.221 -0.872   100.000   -1.222 1.852 2.415 3.247 3.497 0.288 0.302 0.381 0.675 0.00 248.00   0.5270 284.90 76.51 0 1 0   -0.974 -0.876 -0.821 -1.198   -1.199   -1.005 -0.896 -0.936 -1.245   -1.246 1.3850       5.586 5.586 0.000
VANMET_231 2018-01-21 06:55:00 231 11739.0   -1.052 -0.945 -1.284 -0.903   100.000   -1.285 1.854 2.416 3.247 3.496 0.289 0.302 0.381 0.675 0.00 244.50   0.9420 204.70 58.18 0 1 0   -0.984 -0.888 -0.849 -1.238   -1.239   -1.069 -0.965 -0.948 -1.308   -1.309 3.6000       5.560 5.560 0.000
VANMET_231 2018-01-21 06:50:00 231 11739.0   -1.086 -0.982 -1.299 -0.930   100.000   -1.300 1.854 2.417 3.248 3.496 0.289 0.302 0.381 0.675 0.00 244.50   1.1160 234.90 46.03 0 1 0   -1.071 -0.966 -0.851 -1.275   -1.275   -1.094 -0.988 -0.962 -1.315   -1.315 2.4240       5.554 5.554 0.000
VANMET_231 2018-01-21 06:45:00 231 11739.0   -1.076 -0.980 -1.296 -0.963   100.000   -1.297 1.856 2.418 3.248 3.496 0.289 0.302 0.381 0.675 0.00 244.00   0.5230 162.90 54.25 0 1 0   -1.057 -0.975 -0.872 -1.285   -1.285   -1.091 -0.989 -1.002 -1.311   -1.312 1.4050       5.555 5.555 -0.000
VANMET_231 2018-01-21 06:40:00 231 11739.0   -1.081 -0.982 -1.295 -0.970   100.000   -1.295 1.856 2.419 3.248 3.495 0.289 0.302 0.381 0.675 0.00 244.00   0.7000 214.20 35.54 0 1 0   -1.061 -0.971 -0.858 -1.278   -1.279   -1.094 -0.988 -1.013 -1.311   -1.312 2.0510       5.556 5.556 0.000
VANMET_231 2018-01-21 06:35:00 231 11739.0   -1.040 -0.943 -1.268 -0.984   100.000   -1.268 1.857 2.420 3.249 3.495 0.289 0.302 0.381 0.675 0.00 244.50   0.7240 231.50 31.27 0 1 0   -1.011 -0.917 -0.936 -1.248   -1.249   -1.067 -0.969 -1.010 -1.288   -1.289 1.6200       5.567 5.567 0.000
VANMET_231 2018-01-21 06:30:00 231 11739.0   -0.979 -0.893 -1.228 -0.918   100.000   -1.229 1.858 2.421 3.249 3.496 0.289 0.302 0.381 0.675 0.00 242.00   0.8330 218.40 45.24 0 1 0   -0.948 -0.873 -0.845 -1.211   -1.212   -1.008 -0.915 -0.945 -1.248   -1.249 2.3590       5.583 5.583 -0.000
VANMET_231 2018-01-21 06:25:00 231 11739.0   -1.006 -0.937 -1.295 -0.895   100.000   -1.296 1.859 2.422 3.249 3.495 0.289 0.302 0.381 0.675 0.00 242.00   0.8890 170.80 60.20 0 1 0   -0.931 -0.868 -0.811 -1.225   -1.225   -1.055 -0.973 -1.022 -1.351   -1.352 3.3710       5.556 5.555 0.000
VANMET_231 2018-01-21 06:20:00 231 11739.0   -1.135 -1.038 -1.387 -1.036   100.000   -1.388 1.860 2.423 3.250 3.495 0.289 0.302 0.381 0.675 0.00 242.00   0.8540 174.30 54.69 0 1 0   -1.067 -0.993 -0.986 -1.368   -1.368   -1.148 -1.049 -1.076 -1.401   -1.402 2.8420       5.518 5.518 -0.000
VANMET_231 2018-01-21 06:15:00 231 11739.0   -1.125 -1.032 -1.388 -1.041   100.000   -1.389 1.861 2.424 3.250 3.495 0.289 0.302 0.381 0.675 0.00 244.50   0.6240 236.60 64.67 0 1 0   -1.111 -1.018 -0.993 -1.374   -1.375   -1.133 -1.041 -1.093 -1.401   -1.402 1.8100       5.518 5.517 -0.000
VANMET_231 2018-01-21 06:10:00 231 11739.0   -1.085 -1.000 -1.380 -1.022   100.000   -1.381 1.862 2.425 3.251 3.495 0.289 0.302 0.381 0.675 0.00 244.50   0.7090 222.50 24.68 0 1 0   -1.067 -0.984 -0.970 -1.367   -1.368   -1.110 -1.017 -1.059 -1.391   -1.392 1.5420       5.521 5.521 0.000
VANMET_231 2018-01-21 06:05:00 231 11739.0   -1.041 -0.969 -1.377 -0.977   100.000   -1.378 1.863 2.426 3.251 3.494 0.289 0.302 0.381 0.675 0.00 244.50   0.6950 209.20 31.95 0 1 0   -1.023 -0.955 -0.932 -1.358   -1.358   -1.064 -0.980 -1.012 -1.394   -1.395 1.5480       5.522 5.522 0.000
VANMET_231 2018-01-21 06:00:00 231 11739.0   -1.027 -0.964 -1.371 -0.917   100.000   -1.372 1.864 2.427 3.251 3.494 0.289 0.302 0.381 0.675 0.00 244.50   1.1900 213.50 48.47 0 1 0   -1.016 -0.951 -0.839 -1.358   -1.359   -1.045 -0.974 -0.966 -1.384   -1.385 3.3120       5.525 5.524 0.000
VANMET_231 2018-01-21 05:55:00 231 11739.0   -0.982 -0.947 -1.346 -0.952   100.000   -1.346 1.865 2.428 3.251 3.494 0.289 0.302 0.381 0.675 0.00 245.00   1.6630 239.00 38.43 0 1 0   -0.949 -0.925 -0.891 -1.318   -1.318   -1.023 -0.970 -1.008 -1.374   -1.375 3.5480       5.535 5.535 0.000
VANMET_231 2018-01-21 05:50:00 231 11739.0   -0.951 -0.940 -1.331 -0.851   100.000   -1.332 1.866 2.429 3.252 3.494 0.289 0.302 0.381 0.675 0.00 244.50   1.1030 216.80 56.15 0 1 0   -0.911 -0.924 -0.783 -1.304   -1.305   -1.033 -0.990 -0.938 -1.377   -1.378 2.6980       5.541 5.541 0.000
VANMET_231 2018-01-21 05:45:00 231 11739.0   -1.063 -1.007 -1.375 -0.971   100.000   -1.376 1.867 2.430 3.252 3.494 0.289 0.302 0.381 0.675 0.00 244.50   1.0030 240.30 54.33 0 1 0   -1.030 -0.993 -0.893 -1.354   -1.355   -1.101 -1.026 -1.073 -1.390   -1.391 3.2010       5.523 5.523 0.000
VANMET_231 2018-01-21 05:40:00 231 11739.0   -1.071 -1.010 -1.374 -0.960   100.000   -1.375 1.868 2.431 3.252 3.494 0.289 0.302 0.381 0.675 0.00 244.00   1.1520 208.90 70.29 0 1 0   -1.051 -1.000 -0.920 -1.357   -1.358   -1.096 -1.026 -1.000 -1.390   -1.391 2.2800       5.523 5.523 0.000
VANMET_231 2018-01-21 05:35:00 231 11739.0   -1.136 -1.059 -1.397 -0.983   100.000   -1.397 1.868 2.432 3.253 3.494 0.289 0.302 0.381 0.675 0.00 244.00   1.1420 219.10 38.14 0 1 0   -1.090 -1.026 -0.865 -1.384   -1.384   -1.176 -1.082 -1.088 -1.410   -1.411 2.0970       5.514 5.514 -0.000
VANMET_231 2018-01-21 05:30:00 231 11739.0   -1.144 -1.052 -1.390 -1.053   100.000   -1.391 1.870 2.433 3.253 3.494 0.289 0.302 0.381 0.675 0.00 244.50   0.2530 268.40 57.70 0 1 0   -1.123 -1.030 -1.010 -1.374   -1.374   -1.164 -1.073 -1.086 -1.407   -1.408 1.2020       5.517 5.516 0.000
VANMET_231 2018-01-21 05:25:00 231 11739.0   -1.121 -1.037 -1.376 -0.944   100.000   -1.377 1.871 2.434 3.253 3.493 0.289 0.302 0.381 0.675 0.00 244.50   0.5080 230.20 35.30 0 1 0   -1.115 -1.026 -0.897 -1.361   -1.361   -1.130 -1.054 -1.007 -1.391   -1.391 1.3920       5.523 5.522 0.000
VANMET_231 2018-01-21 05:20:00 231 11739.0   -1.144 -1.056 -1.381 -1.046   100.000   -1.382 1.872 2.435 3.254 3.494 0.289 0.302 0.381 0.675 0.00 244.50   0.6630 220.30 52.61 0 1 0   -1.124 -1.029 -0.912 -1.364   -1.364   -1.158 -1.066 -1.147 -1.404   -1.405 2.3390       5.521 5.520 0.000
VANMET_231 2018-01-21 05:15:00 231 11739.0   -1.045 -0.975 -1.341 -1.060   100.000   -1.342 1.873 2.436 3.254 3.493 0.289 0.302 0.381 0.675 0.00 244.50   0.5660 178.10 73.06 0 1 0   -0.981 -0.941 -0.916 -1.320   -1.321   -1.114 -1.023 -1.135 -1.367   -1.368 1.5610       5.537 5.536 0.000
VANMET_231 2018-01-21 05:10:00 231 11739.0   -1.020 -0.976 -1.362 -0.951   100.000   -1.363 1.874 2.437 3.254 3.493 0.289 0.302 0.381 0.675 0.00 245.50   0.8190 174.50 57.57 0 1 0   -0.985 -0.944 -0.892 -1.313   -1.314   -1.158 -1.088 -1.056 -1.436   -1.437 2.2410       5.528 5.528 0.000
VANMET_231 2018-01-21 05:05:00 231 11739.0   -1.219 -1.132 -1.480 -1.107   100.000   -1.480 1.875 2.439 3.255 3.493 0.289 0.302 0.381 0.675 0.00 245.50   0.6950 215.40 47.13 0 1 0   -1.143 -1.094 -1.028 -1.446   -1.447   -1.272 -1.164 -1.186 -1.500   -1.501 1.5160       5.480 5.480 0.000
VANMET_231 2018-01-21 05:00:00 231 11739.0   -1.225 -1.121 -1.490 -1.113   100.000   -1.491 1.876 2.440 3.255 3.493 0.289 0.302 0.381 0.675 0.00 245.50   0.5960 229.30 57.42 0 1 0   -1.212 -1.106 -1.006 -1.480   -1.481   -1.242 -1.136 -1.186 -1.513   -1.514 2.5870       5.476 5.476 0.000
VANMET_231 2018-01-21 04:55:00 231 11739.0   -1.235 -1.138 -1.495 -1.109   100.000   -1.496 1.877 2.441 3.255 3.493 0.289 0.302 0.381 0.675 0.00 245.50   1.4560 231.50 50.79 0 1 0   -1.221 -1.108 -1.026 -1.480   -1.481   -1.246 -1.153 -1.204 -1.517   -1.518 3.8480       5.474 5.474 0.000
VANMET_231 2018-01-21 04:50:00 231 11739.0   -1.193 -1.108 -1.486 -1.113   100.000   -1.487 1.878 2.442 3.256 3.492 0.289 0.302 0.381 0.675 0.00 246.00   0.4670 196.20 73.69 0 1 0   -1.173 -1.078 -1.050 -1.470   -1.471   -1.232 -1.143 -1.197 -1.506   -1.507 1.0580       5.478 5.478 -0.000
VANMET_231 2018-01-21 04:45:00 231 11739.0   -1.165 -1.066 -1.501 -1.041   100.000   -1.501 1.879 2.443 3.256 3.492 0.289 0.302 0.381 0.675 0.00 246.00   0.8110 215.80 45.41 0 1 0   -1.153 -1.053 -0.958 -1.480   -1.481   -1.196 -1.092 -1.125 -1.526   -1.527 2.0120       5.472 5.472 0.000
VANMET_231 2018-01-21 04:40:00 231 11739.0   -1.237 -1.139 -1.534 -1.047   100.000   -1.535 1.880 2.444 3.256 3.492 0.289 0.302 0.381 0.675 0.00 247.00   1.0210 208.50 44.42 0 1 0   -1.207 -1.099 -0.982 -1.516   -1.517   -1.280 -1.195 -1.099 -1.556   -1.557 1.9600       5.459 5.458 0.000
VANMET_231 2018-01-21 04:35:00 231 11739.0   -1.326 -1.226 -1.556 -1.150   100.000   -1.557 1.881 2.445 3.257 3.492 0.289 0.303 0.381 0.675 0.00 246.00   0.9280 219.70 37.01 0 1 0   -1.300 -1.206 -1.098 -1.530   -1.531   -1.349 -1.239 -1.180 -1.573   -1.574 2.1890       5.450 5.449 0.000
VANMET_231 2018-01-21 04:30:00 231 11739.0   -1.334 -1.223 -1.548 -1.215   100.000   -1.549 1.882 2.446 3.257 3.492 0.289 0.303 0.381 0.675 0.00 246.00   0.8680 225.40 42.41 0 1 0   -1.311 -1.204 -1.172 -1.523   -1.523   -1.348 -1.235 -1.241 -1.563   -1.564 1.8880       5.453 5.453 0.000
VANMET_231 2018-01-21 04:25:00 231 11739.0   -1.288 -1.187 -1.527 -1.158   100.000   -1.528 1.883 2.447 3.257 3.492 0.289 0.303 0.381 0.675 0.00 245.50   0.5650 212.10 52.00 0 1 0   -1.262 -1.178 -1.025 -1.506   -1.507   -1.311 -1.202 -1.255 -1.546   -1.547 1.6070       5.461 5.461 0.000
VANMET_231 2018-01-21 04:20:00 231 11739.0   -1.311 -1.211 -1.531 -1.215   100.000   -1.532 1.884 2.448 3.258 3.491 0.289 0.303 0.381 0.675 0.00 245.50   0.8870 228.50 68.92 0 1 0   -1.279 -1.197 -1.169 -1.510   -1.510   -1.331 -1.224 -1.298 -1.553   -1.554 3.3060       5.460 5.459 0.000
VANMET_231 2018-01-21 04:15:00 231 11739.0   -1.327 -1.224 -1.577 -1.218   100.000   -1.578 1.885 2.450 3.258 3.492 0.289 0.303 0.381 0.675 0.00 245.50   0.6970 160.90 58.72 0 1 0   -1.271 -1.196 -1.142 -1.556   -1.557   -1.363 -1.252 -1.270 -1.593   -1.594 1.2410       5.441 5.441 0.000
VANMET_231 2018-01-21 04:10:00 231 11739.0   -1.281 -1.177 -1.560 -1.184   100.000   -1.561 1.886 2.450 3.258 3.491 0.289 0.303 0.381 0.675 0.00 245.50   1.5660 228.30 33.17 0 1 0   -1.239 -1.141 -1.120 -1.539   -1.540   -1.329 -1.211 -1.233 -1.589   -1.590 2.7440       5.448 5.448 0.000
VANMET_231 2018-01-21 04:05:00 231 11739.0   -1.266 -1.169 -1.533 -1.068   100.000   -1.534 1.887 2.451 3.259 3.491 0.289 0.303 0.381 0.675 0.00 246.50   1.7040 240.20 24.50 0 1 0   -1.227 -1.132 -0.935 -1.513   -1.513   -1.344 -1.229 -1.208 -1.556   -1.557 2.9010       5.459 5.459 -0.000
VANMET_231 2018-01-21 04:00:00 231 11739.0   -1.282 -1.188 -1.481 -1.217   100.000   -1.482 1.889 2.452 3.259 3.491 0.289 0.303 0.381 0.675 0.00 247.50   0.9050 219.30 54.47 0 1 0   -1.232 -1.158 -1.137 -1.439   -1.440   -1.335 -1.226 -1.257 -1.523   -1.523 2.2800       5.480 5.480 0.000
VANMET_231 2018-01-21 03:55:00 231 11739.0   -1.179 -1.124 -1.419 -1.119   100.000   -1.420 1.889 2.454 3.259 3.491 0.289 0.303 0.381 0.676 0.00 248.00   0.4710 270.70 77.71 0 1 0   -1.143 -1.101 -1.049 -1.396   -1.397   -1.229 -1.156 -1.207 -1.459   -1.460 2.4960       5.505 5.505 0.000
VANMET_231 2018-01-21 03:50:00 231 11739.0   -1.159 -1.093 -1.413 -1.102   100.000   -1.414 1.890 2.454 3.260 3.490 0.289 0.303 0.381 0.676 0.00 248.00   0.2240 219.30 71.65 0 1 0   -1.131 -1.074 -1.075 -1.399   -1.400   -1.181 -1.112 -1.141 -1.429   -1.430 0.6660       5.508 5.507 0.000
VANMET_231 2018-01-21 03:45:00 231 11739.0   -1.156 -1.103 -1.456 -1.122   100.000   -1.457 1.892 2.455 3.260 3.491 0.289 0.303 0.381 0.676 0.00 248.00   0.5080 213.10 60.25 0 1 0   -1.050 -1.045 -1.045 -1.389   -1.390   -1.280 -1.192 -1.178 -1.549   -1.550 1.9730       5.490 5.490 0.000
VANMET_231 2018-01-21 03:40:00 231 11739.0   -1.292 -1.209 -1.572 -1.075   100.000   -1.573 1.893 2.457 3.261 3.490 0.289 0.303 0.381 0.676 0.00 248.00   0.2160 213.20 31.86 0 1 0   -1.262 -1.188 -0.952 -1.535   -1.536   -1.331 -1.252 -1.184 -1.615   -1.616 1.1040       5.443 5.443 0.000
VANMET_231 2018-01-21 03:35:00 231 11739.0   -1.357 -1.260 -1.610 -1.204   100.000   -1.611 1.894 2.458 3.261 3.490 0.289 0.303 0.381 0.676 0.00 248.50   0.8250 245.70 39.04 0 1 0   -1.336 -1.247 -1.058 -1.598   -1.599   -1.381 -1.279 -1.258 -1.625   -1.626 2.2280       5.428 5.428 0.000
VANMET_231 2018-01-21 03:30:00 231 11739.0   -1.329 -1.239 -1.602 -1.161   100.000   -1.603 1.895 2.458 3.261 3.490 0.289 0.303 0.381 0.676 0.00 248.50   0.8950 253.80 46.85 0 1 0   -1.321 -1.232 -1.094 -1.589   -1.589   -1.344 -1.249 -1.260 -1.618   -1.619 1.9600       5.431 5.431 0.000
VANMET_231 2018-01-21 03:25:00 231 11739.0   -1.339 -1.246 -1.587 -1.212   100.000   -1.588 1.896 2.460 3.261 3.490 0.289 0.303 0.381 0.676 0.00 249.00   0.6700 247.10 51.49 0 1 0   -1.328 -1.240 -1.154 -1.565   -1.566   -1.348 -1.252 -1.251 -1.608   -1.609 1.2670       5.437 5.437 0.000
VANMET_231 2018-01-21 03:20:00 231 11739.0   -1.372 -1.270 -1.609 -1.204   100.000   -1.610 1.898 2.461 3.262 3.489 0.289 0.303 0.381 0.676 0.00 249.00   0.2300 200.00 44.41 0 1 0   -1.356 -1.256 -1.125 -1.592   -1.593   -1.400 -1.302 -1.268 -1.635   -1.636 0.8490       5.429 5.428 -0.000
VANMET_231 2018-01-21 03:15:00 231 11739.0   -1.405 -1.319 -1.636 -1.274   100.000   -1.637 1.898 2.462 3.262 3.489 0.289 0.303 0.381 0.676 0.00 249.00   0.1520 191.50 54.88 0 1 0   -1.397 -1.303 -1.235 -1.605   -1.606   -1.415 -1.328 -1.317 -1.652   -1.653 0.7510       5.418 5.417 0.000
VANMET_231 2018-01-21 03:10:00 231 11739.0   -1.424 -1.330 -1.659 -1.255   100.000   -1.660 1.899 2.463 3.262 3.489 0.289 0.303 0.381 0.676 0.00 249.00   0.3390 259.80 13.29 0 1 0   -1.395 -1.321 -1.195 -1.638   -1.639   -1.454 -1.340 -1.299 -1.668   -1.669 1.0130       5.409 5.408 0.000
VANMET_231 2018-01-21 03:05:00 231 11739.0   -1.459 -1.344 -1.682 -1.299   100.000   -1.683 1.900 2.464 3.263 3.489 0.289 0.303 0.381 0.676 0.00 249.50   0.5290 268.40 32.12 0 1 0   -1.454 -1.341 -1.273 -1.662   -1.663   -1.464 -1.347 -1.319 -1.692   -1.693 1.3000       5.399 5.399 0.000
VANMET_231 2018-01-21 03:00:00 231 11739.0   -1.466 -1.345 -1.687 -1.311   100.000   -1.688 1.901 2.465 3.263 3.488 0.289 0.303 0.381 0.676 0.00 249.50   0.6140 256.50 36.68 0 1 0   -1.456 -1.342 -1.270 -1.672   -1.673   -1.473 -1.350 -1.328 -1.701   -1.702 1.4050       5.397 5.397 -0.000
VANMET_231 2018-01-21 02:55:00 231 11739.0   -1.466 -1.349 -1.683 -1.303   100.000   -1.684 1.902 2.466 3.263 3.489 0.289 0.303 0.381 0.676 0.00 250.00   0.6640 255.60 46.33 0 1 0   -1.456 -1.340 -1.272 -1.672   -1.673   -1.484 -1.364 -1.356 -1.698   -1.699 1.4500       5.399 5.399 -0.000
VANMET_231 2018-01-21 02:50:00 231 11739.0   -1.482 -1.357 -1.686 -1.348   100.000   -1.687 1.903 2.467 3.264 3.489 0.289 0.303 0.381 0.676 0.00 250.00   0.4990 256.80 29.76 0 1 0   -1.473 -1.350 -1.320 -1.678   -1.679   -1.492 -1.365 -1.369 -1.701   -1.703 1.1830       5.398 5.397 0.000
VANMET_231 2018-01-21 02:45:00 231 11739.0   -1.466 -1.345 -1.684 -1.344   100.000   -1.685 1.904 2.468 3.264 3.489 0.289 0.303 0.381 0.676 0.00 250.00   0.5550 235.60 32.06 0 1 0   -1.456 -1.337 -1.333 -1.665   -1.666   -1.472 -1.350 -1.361 -1.695   -1.696 1.3720       5.399 5.398 0.000
VANMET_231 2018-01-21 02:40:00 231 11739.0   -1.444 -1.329 -1.681 -1.350   100.000   -1.682 1.905 2.469 3.264 3.488 0.290 0.303 0.381 0.676 0.00 250.00   0.5390 245.20 34.15 0 1 0   -1.432 -1.322 -1.341 -1.668   -1.669   -1.454 -1.336 -1.360 -1.698   -1.699 1.2870       5.400 5.399 0.000
VANMET_231 2018-01-21 02:35:00 231 11739.0   -1.425 -1.318 -1.687 -1.340   100.000   -1.689 1.906 2.471 3.264 3.488 0.289 0.303 0.381 0.676 0.00 250.00   0.7010 232.80 21.75 0 1 0   -1.423 -1.314 -1.322 -1.674   -1.675   -1.430 -1.324 -1.368 -1.698   -1.699 1.9800       5.397 5.397 -0.000
VANMET_231 2018-01-21 02:30:00 231 11739.0   -1.418 -1.328 -1.700 -1.334   100.000   -1.701 1.907 2.472 3.265 3.488 0.290 0.303 0.381 0.676 0.00 249.50   0.3560 253.70 21.80 0 1 0   -1.393 -1.318 -1.269 -1.671   -1.672   -1.497 -1.366 -1.369 -1.731   -1.732 0.9470       5.392 5.392 0.000
VANMET_231 2018-01-21 02:25:00 231 11739.0   -1.515 -1.376 -1.746 -1.361   100.000   -1.747 1.908 2.473 3.265 3.487 0.290 0.303 0.381 0.676 0.00 250.00   0.6050 273.70 22.88 0 1 0   -1.500 -1.366 -1.341 -1.727   -1.729   -1.521 -1.380 -1.382 -1.768   -1.769 1.6920       5.374 5.374 0.000
VANMET_231 2018-01-21 02:20:00 231 11739.0   -1.540 -1.397 -1.784 -1.373   100.000   -1.785 1.909 2.473 3.265 3.487 0.290 0.303 0.381 0.676 0.00 250.00   1.1560 251.70 28.12 0 1 0   -1.518 -1.380 -1.356 -1.761   -1.762   -1.576 -1.426 -1.389 -1.817   -1.818 2.0450       5.359 5.358 0.000
VANMET_231 2018-01-21 02:15:00 231 11739.0   -1.608 -1.462 -1.835 -1.430   100.000   -1.836 1.911 2.475 3.266 3.487 0.290 0.303 0.381 0.676 0.00 250.00   0.9640 239.40 44.75 0 1 0   -1.580 -1.431 -1.389 -1.814   -1.815   -1.627 -1.481 -1.470 -1.857   -1.858 1.5290       5.339 5.338 0.000
VANMET_231 2018-01-21 02:10:00 231 11739.0   -1.632 -1.494 -1.867 -1.445   100.000   -1.868 1.912 2.476 3.266 3.487 0.290 0.303 0.381 0.676 0.00 249.50   0.6430 249.20 23.02 0 1 0   -1.623 -1.477 -1.431 -1.840   -1.842   -1.651 -1.516 -1.461 -1.887   -1.888 1.5880       5.326 5.326 0.000
VANMET_231 2018-01-21 02:05:00 231 11739.0   -1.691 -1.560 -1.902 -1.473   100.000   -1.904 1.913 2.477 3.267 3.487 0.290 0.303 0.381 0.676 0.00 249.00   0.6760 244.50 42.75 0 1 0   -1.656 -1.521 -1.449 -1.877   -1.878   -1.715 -1.582 -1.518 -1.940   -1.941 1.8030       5.312 5.312 0.000
VANMET_231 2018-01-21 02:00:00 231 11739.0   -1.735 -1.594 -1.930 -1.516   100.000   -1.931 1.914 2.478 3.267 3.487 0.290 0.303 0.381 0.676 0.00 249.00   0.4150 273.00 34.82 0 1 0   -1.718 -1.582 -1.486 -1.913   -1.914   -1.748 -1.605 -1.554 -1.950   -1.951 0.9800       5.301 5.301 0.000
VANMET_231 2018-01-21 01:55:00 231 11739.0   -1.776 -1.627 -1.955 -1.559   100.000   -1.956 1.915 2.479 3.267 3.487 0.290 0.303 0.381 0.676 0.00 249.00   0.9920 250.00 45.99 0 1 0   -1.753 -1.608 -1.509 -1.937   -1.938   -1.786 -1.638 -1.586 -1.980   -1.981 1.9600       5.292 5.291 0.000
VANMET_231 2018-01-21 01:50:00 231 11739.0   -1.761 -1.618 -1.933 -1.611   100.000   -1.934 1.916 2.480 3.268 3.487 0.290 0.303 0.381 0.676 0.00 249.00   0.8610 257.80 36.05 0 1 0   -1.726 -1.588 -1.570 -1.903   -1.904   -1.784 -1.637 -1.657 -1.957   -1.958 1.7900       5.300 5.300 0.000
VANMET_231 2018-01-21 01:45:00 231 11739.0   -1.721 -1.588 -1.903 -1.572   100.000   -1.904 1.917 2.482 3.268 3.487 0.290 0.303 0.381 0.676 0.00 249.50   0.8600 232.00 34.02 0 1 0   -1.708 -1.584 -1.551 -1.883   -1.884   -1.731 -1.594 -1.589 -1.930   -1.931 1.8160       5.312 5.312 0.000
VANMET_231 2018-01-21 01:40:00 231 11739.0   -1.713 -1.572 -1.892 -1.584   100.000   -1.893 1.918 2.483 3.268 3.487 0.290 0.303 0.381 0.676 0.00 250.00   0.7160 252.30 43.03 0 1 0   -1.694 -1.551 -1.547 -1.876   -1.877   -1.735 -1.588 -1.606 -1.913   -1.914 1.6790       5.316 5.316 0.000
VANMET_231 2018-01-21 01:35:00 231 11739.0   -1.687 -1.539 -1.878 -1.559   100.000   -1.879 1.919 2.484 3.269 3.487 0.290 0.303 0.381 0.676 0.00 250.00   1.0250 238.90 24.45 0 1 0   -1.684 -1.533 -1.548 -1.863   -1.864   -1.697 -1.547 -1.588 -1.893   -1.894 1.9470       5.322 5.321 0.000
VANMET_231 2018-01-21 01:30:00 231 11739.0   -1.687 -1.541 -1.879 -1.555   100.000   -1.881 1.921 2.485 3.269 3.486 0.290 0.303 0.381 0.676 0.00 250.50   0.9790 245.90 30.43 0 1 0   -1.681 -1.533 -1.543 -1.863   -1.864   -1.692 -1.547 -1.565 -1.893   -1.894 1.8880       5.321 5.321 -0.000
VANMET_231 2018-01-21 01:25:00 231 11739.0   -1.671 -1.525 -1.884 -1.575   100.000   -1.885 1.922 2.486 3.270 3.486 0.290 0.303 0.381 0.676 0.00 251.50   0.5510 229.90 23.20 0 1 0   -1.664 -1.517 -1.555 -1.870   -1.871   -1.681 -1.537 -1.596 -1.900   -1.901 1.2670       5.319 5.319 0.000
VANMET_231 2018-01-21 01:20:00 231 11739.0   -1.683 -1.540 -1.909 -1.558   100.000   -1.910 1.923 2.487 3.270 3.486 0.290 0.303 0.381 0.676 0.00 252.00   1.3100 229.30 23.05 0 1 0   -1.666 -1.517 -1.551 -1.893   -1.894   -1.711 -1.566 -1.576 -1.933   -1.934 2.5150       5.310 5.309 -0.000
VANMET_231 2018-01-21 01:15:00 231 11739.0   -1.717 -1.572 -1.934 -1.584   100.000   -1.935 1.924 2.488 3.270 3.486 0.290 0.303 0.381 0.676 0.00 252.00   0.9330 248.80 41.83 0 1 0   -1.709 -1.565 -1.575 -1.913   -1.914   -1.735 -1.589 -1.589 -1.956   -1.957 2.6000       5.300 5.299 0.000
VANMET_231 2018-01-21 01:10:00 231 11739.0   -1.748 -1.600 -1.955 -1.603   100.000   -1.956 1.925 2.490 3.270 3.486 0.290 0.303 0.381 0.676 0.00 252.50   0.8940 240.60 29.58 0 1 0   -1.736 -1.590 -1.582 -1.939   -1.941   -1.758 -1.612 -1.620 -1.969   -1.971 1.4900       5.292 5.291 0.000
VANMET_231 2018-01-21 01:05:00 231 11739.0   -1.777 -1.633 -1.976 -1.628   100.000   -1.978 1.926 2.490 3.270 3.485 0.290 0.303 0.381 0.676 0.00 252.50   0.8980 245.10 19.66 0 1 0   -1.760 -1.615 -1.604 -1.959   -1.961   -1.789 -1.645 -1.654 -1.999   -2.000 1.8160       5.283 5.283 0.000
VANMET_231 2018-01-21 01:00:00 231 11739.0   -1.783 -1.640 -1.985 -1.650   100.000   -1.987 1.927 2.492 3.271 3.485 0.290 0.303 0.381 0.676 0.00 253.00   0.6830 255.90 37.23 0 1 0   -1.780 -1.638 -1.638 -1.966   -1.967   -1.787 -1.645 -1.677 -2.003   -2.004 1.9990       5.280 5.279 0.000
VANMET_231 2018-01-21 00:55:00 231 11739.0   -1.773 -1.632 -1.997 -1.659   100.000   -1.998 1.928 2.492 3.271 3.485 0.290 0.303 0.382 0.676 0.00 253.50   0.5480 247.80 29.16 0 1 0   -1.764 -1.626 -1.645 -1.973   -1.974   -1.781 -1.638 -1.688 -2.013   -2.014 1.2540       5.275 5.275 0.000
VANMET_231 2018-01-21 00:50:00 231 11739.0   -1.778 -1.640 -2.019 -1.659   100.000   -2.021 1.929 2.494 3.272 3.485 0.290 0.303 0.382 0.676 0.00 254.00   0.7870 247.30 29.36 0 1 0   -1.763 -1.626 -1.641 -1.993   -1.994   -1.805 -1.662 -1.686 -2.049   -2.050 2.3910       5.267 5.266 0.000
VANMET_231 2018-01-21 00:45:00 231 11739.0   -1.842 -1.688 -2.056 -1.677   100.000   -2.057 1.930 2.495 3.273 3.485 0.290 0.303 0.382 0.676 0.00 254.50   0.8080 253.60 35.25 0 1 0   -1.812 -1.662 -1.650 -2.042   -2.044   -1.855 -1.703 -1.704 -2.072   -2.074 2.4960       5.252 5.252 0.000
VANMET_231 2018-01-21 00:40:00 231 11739.0   -1.871 -1.709 -2.076 -1.705   100.000   -2.078 1.932 2.497 3.273 3.484 0.290 0.303 0.382 0.676 0.00 254.50   0.8740 245.00 18.10 0 1 0   -1.857 -1.699 -1.687 -2.046   -2.047   -1.880 -1.717 -1.722 -2.095   -2.096 1.8750       5.244 5.244 0.000
VANMET_231 2018-01-21 00:35:00 231 11739.0   -1.892 -1.724 -2.103 -1.734   100.000   -2.105 1.933 2.498 3.273 3.485 0.290 0.303 0.382 0.676 0.00 255.00   0.9160 232.70 31.26 0 1 0   -1.880 -1.714 -1.718 -2.082   -2.083   -1.911 -1.739 -1.750 -2.125   -2.126 1.8360       5.234 5.233 0.000
VANMET_231 2018-01-21 00:30:00 231 11739.0   -1.929 -1.759 -2.130 -1.753   100.000   -2.132 1.934 2.499 3.273 3.484 0.290 0.303 0.382 0.676 0.00 255.50   0.9190 248.40 28.80 0 1 0   -1.913 -1.741 -1.737 -2.088   -2.089   -1.941 -1.771 -1.762 -2.155   -2.156 2.3720       5.223 5.223 0.000
VANMET_231 2018-01-21 00:25:00 231 11739.0   -1.974 -1.803 -2.181 -1.762   100.000   -2.182 1.935 2.499 3.274 3.484 0.290 0.303 0.382 0.676 0.00 256.50   1.0640 244.60 28.63 0 1 0   -1.943 -1.774 -1.754 -2.145   -2.146   -2.009 -1.834 -1.772 -2.211   -2.212 1.8690       5.204 5.203 0.000
VANMET_231 2018-01-21 00:20:00 231 11739.0   -2.034 -1.853 -2.228 -1.787   100.000   -2.229 1.936 2.501 3.274 3.484 0.290 0.303 0.382 0.676 0.00 257.00   0.8070 257.10 19.06 0 1 0   -2.013 -1.834 -1.767 -2.205   -2.206   -2.057 -1.876 -1.821 -2.254   -2.256 1.3720       5.186 5.185 0.000
VANMET_231 2018-01-21 00:15:00 231 11739.0   -2.084 -1.901 -2.273 -1.837   100.000   -2.274 1.937 2.501 3.274 3.484 0.290 0.303 0.382 0.676 0.00 257.00   1.0300 247.30 26.82 0 1 0   -2.058 -1.881 -1.808 -2.248   -2.249   -2.099 -1.912 -1.862 -2.301   -2.302 1.5810       5.168 5.168 0.000
VANMET_231 2018-01-21 00:10:00 231 11739.0   -2.121 -1.934 -2.311 -1.852   100.000   -2.312 1.938 2.503 3.274 3.483 0.290 0.303 0.382 0.676 0.00 257.00   0.7810 244.10 19.31 0 1 0   -2.102 -1.913 -1.825 -2.284   -2.285   -2.145 -1.959 -1.875 -2.337   -2.339 1.5220       5.154 5.153 0.000
VANMET_231 2018-01-21 00:05:00 231 11739.0   -2.151 -1.970 -2.348 -1.873   100.000   -2.350 1.940 2.504 3.275 3.483 0.290 0.303 0.382 0.676 0.00 257.50   0.3540 237.70 17.52 0 1 0   -2.144 -1.960 -1.843 -2.314   -2.315   -2.170 -1.980 -1.904 -2.384   -2.385 1.3390       5.140 5.139 0.000
VANMET_231 2018-01-21 00:00:00 231 11739.0   -2.188 -2.005 -2.406 -1.889   100.000   -2.407 1.942 2.505 3.275 3.483 0.290 0.303 0.382 0.676 0.00 257.50   0.6040 246.40 15.65 0 1 0   -2.173 -1.987 -1.856 -2.371   -2.372   -2.208 -2.027 -1.949 -2.437   -2.438 1.6590       5.118 5.117 0.000
VANMET_231 2018-01-20 23:55:00 231 11739.0   -2.260 -2.075 -2.486 -1.911   100.000   -2.488 1.942 2.506 3.275 3.483 0.290 0.303 0.382 0.676 0.00 258.00   0.9900 254.10 19.59 0 1 0   -2.211 -2.031 -1.885 -2.427   -2.428   -2.335 -2.147 -1.980 -2.547   -2.548 1.7770       5.087 5.086 0.000
VANMET_231 2018-01-20 23:50:00 231 11739.0   -2.357 -2.173 -2.567 -2.027   100.000   -2.569 1.942 2.507 3.276 3.482 0.290 0.303 0.382 0.676 0.00 258.00   0.7650 254.40 21.59 0 1 0   -2.337 -2.150 -1.991 -2.530   -2.531   -2.384 -2.195 -2.056 -2.600   -2.601 1.5610       5.057 5.056 0.000
VANMET_231 2018-01-20 23:45:00 231 11739.0   -2.404 -2.222 -2.624 -2.035   100.000   -2.625 1.944 2.509 3.276 3.483 0.290 0.303 0.382 0.676 0.00 258.00   0.5750 256.40 22.17 0 1 0   -2.383 -2.201 -2.004 -2.606   -2.608   -2.425 -2.239 -2.063 -2.646   -2.648 1.0850       5.035 5.035 0.000
VANMET_231 2018-01-20 23:40:00 231 11739.0   -2.458 -2.278 -2.672 -2.072   100.000   -2.674 1.945 2.510 3.276 3.482 0.290 0.303 0.382 0.676 0.00 258.50   0.6010 242.50 13.99 0 1 0   -2.427 -2.239 -2.048 -2.643   -2.645   -2.483 -2.324 -2.099 -2.693   -2.695 1.1890       5.017 5.017 0.000
VANMET_231 2018-01-20 23:35:00 231 11739.0   -2.505 -2.367 -2.708 -2.104   100.000   -2.710 1.946 2.511 3.276 3.483 0.290 0.303 0.382 0.676 0.00 258.50   0.9530 257.10 25.96 0 1 0   -2.481 -2.326 -2.076 -2.690   -2.691   -2.545 -2.425 -2.138 -2.726   -2.728 1.4700       5.004 5.003 0.000
VANMET_231 2018-01-20 23:30:00 231 11739.0   -2.555 -2.458 -2.709 -2.189   100.000   -2.711 1.947 2.512 3.277 3.482 0.290 0.303 0.382 0.676 0.00 258.50   0.9090 258.50 28.90 0 1 0   -2.547 -2.429 -2.121 -2.690   -2.692   -2.564 -2.472 -2.232 -2.723   -2.725 1.8880       5.004 5.003 0.000
VANMET_231 2018-01-20 23:25:00 231 11739.0   -2.505 -2.408 -2.691 -2.244   100.000   -2.692 1.948 2.513 3.277 3.482 0.290 0.303 0.382 0.676 0.00 258.50   0.3600 285.80 24.44 0 1 0   -2.463 -2.364 -2.208 -2.677   -2.678   -2.545 -2.450 -2.264 -2.710   -2.711 0.5810       5.010 5.010 0.000
VANMET_231 2018-01-20 23:20:00 231 11739.0   -2.446 -2.344 -2.695 -2.151   100.000   -2.696 1.949 2.514 3.277 3.482 0.290 0.303 0.382 0.676 0.00 258.50   0.4600 281.60 26.36 0 1 0   -2.431 -2.334 -2.007 -2.680   -2.682   -2.472 -2.360 -2.220 -2.710   -2.712 0.9670       5.009 5.008 0.000
VANMET_231 2018-01-20 23:15:00 231 11739.0   -2.442 -2.350 -2.703 -2.152   100.000   -2.704 1.951 2.516 3.278 3.481 0.290 0.303 0.382 0.676 0.00 259.50   0.5610 272.40 33.37 0 1 0   -2.420 -2.339 -2.048 -2.680   -2.682   -2.477 -2.373 -2.238 -2.730   -2.732 1.2090       5.006 5.005 0.000
VANMET_231 2018-01-20 23:10:00 231 11739.0   -2.505 -2.406 -2.751 -2.105   100.000   -2.753 1.952 2.516 3.278 3.482 0.290 0.303 0.382 0.676 0.00 259.00   0.8420 270.00 37.88 0 1 0   -2.445 -2.354 -2.022 -2.714   -2.715   -2.548 -2.455 -2.176 -2.780   -2.782 2.2410       4.988 4.987 0.000
VANMET_231 2018-01-20 23:05:00 231 11739.0   -2.568 -2.467 -2.797 -2.200   100.000   -2.799 1.953 2.518 3.278 3.481 0.290 0.303 0.382 0.676 0.00 258.50   0.7570 277.60 23.60 0 1 0   -2.537 -2.455 -2.147 -2.764   -2.765   -2.588 -2.473 -2.274 -2.833   -2.835 1.1240       4.971 4.970 0.000
VANMET_231 2018-01-20 23:00:00 231 11739.0   -2.564 -2.472 -2.813 -2.199   100.000   -2.815 1.954 2.518 3.278 3.481 0.290 0.303 0.382 0.676 0.00 259.00   0.8890 261.20 25.21 0 1 0   -2.556 -2.459 -2.117 -2.797   -2.799   -2.578 -2.500 -2.287 -2.827   -2.829 1.6140       4.965 4.964 0.000
VANMET_231 2018-01-20 22:55:00 231 11739.0   -2.596 -2.525 -2.833 -2.154   100.000   -2.835 1.955 2.519 3.279 3.481 0.290 0.303 0.382 0.676 0.00 258.50   0.5290 259.50 21.15 0 1 0   -2.564 -2.500 -2.070 -2.810   -2.812   -2.634 -2.547 -2.201 -2.854   -2.855 1.1630       4.958 4.957 0.000
VANMET_231 2018-01-20 22:50:00 231 11739.0   -2.662 -2.581 -2.831 -2.228   100.000   -2.833 1.956 2.521 3.279 3.480 0.290 0.303 0.382 0.676 0.00 259.00   0.5120 258.40 28.55 0 1 0   -2.651 -2.548 -2.126 -2.807   -2.809   -2.681 -2.601 -2.319 -2.850   -2.852 1.6460       4.958 4.958 0.000
VANMET_231 2018-01-20 22:45:00 231 11739.0   -2.635 -2.589 -2.808 -2.264   100.000   -2.809 1.958 2.522 3.280 3.480 0.290 0.303 0.382 0.677 0.00 259.00   0.2670 238.60 20.87 0 1 0   -2.620 -2.584 -2.182 -2.791   -2.792   -2.647 -2.596 -2.300 -2.817   -2.819 0.6270       4.967 4.966 0.000
VANMET_231 2018-01-20 22:40:00 231 11739.0   -2.628 -2.595 -2.779 -2.245   100.000   -2.781 1.959 2.524 3.280 3.480 0.290 0.303 0.382 0.676 0.00 259.00   0.3460 252.20 17.15 0 1 0   -2.611 -2.584 -2.187 -2.761   -2.762   -2.653 -2.633 -2.280 -2.804   -2.806 1.4240       4.978 4.977 0.000
VANMET_231 2018-01-20 22:35:00 231 11739.0   -2.641 -2.623 -2.758 -2.327   100.000   -2.760 1.960 2.525 3.279 3.480 0.290 0.303 0.382 0.677 0.00 259.00   0.2420 259.60 46.36 0 1 0   -2.624 -2.587 -2.259 -2.738   -2.739   -2.654 -2.645 -2.398 -2.777   -2.779 0.8430       4.985 4.985 0.000
VANMET_231 2018-01-20 22:30:00 231 11739.0   -2.594 -2.537 -2.732 -2.287   100.000   -2.734 1.961 2.525 3.280 3.480 0.291 0.303 0.382 0.677 0.00 259.50   0.0400 286.50 5.48 0 1 0   -2.558 -2.501 -2.235 -2.714   -2.716   -2.633 -2.583 -2.339 -2.751   -2.752 0.3460       4.995 4.994 0.000
VANMET_231 2018-01-20 22:25:00 231 11739.0   -2.567 -2.505 -2.766 -2.248   100.000   -2.767 1.962 2.527 3.280 3.480 0.291 0.303 0.382 0.677 0.00 260.50   0.2050 232.40 70.49 0 1 0   -2.538 -2.486 -2.193 -2.728   -2.729   -2.603 -2.534 -2.285 -2.811   -2.812 0.5620       4.982 4.982 0.000
VANMET_231 2018-01-20 22:20:00 231 11739.0   -2.602 -2.514 -2.835 -2.264   100.000   -2.836 1.963 2.528 3.281 3.480 0.291 0.303 0.382 0.677 0.00 261.50   0.2800 256.50 43.54 0 1 0   -2.580 -2.504 -2.230 -2.794   -2.796   -2.633 -2.529 -2.302 -2.864   -2.866 1.0850       4.957 4.956 0.000
VANMET_231 2018-01-20 22:15:00 231 11739.0   -2.619 -2.515 -2.857 -2.230   100.000   -2.859 1.964 2.529 3.281 3.479 0.291 0.304 0.382 0.677 0.00 261.50   0.5680 261.90 30.15 0 1 0   -2.599 -2.503 -2.205 -2.844   -2.846   -2.651 -2.532 -2.282 -2.871   -2.873 1.2740       4.949 4.948 0.000
VANMET_231 2018-01-20 22:10:00 231 11739.0   -2.660 -2.533 -2.858 -2.214   100.000   -2.860 1.965 2.530 3.282 3.479 0.291 0.304 0.382 0.677 0.00 262.00   0.7680 245.80 29.16 0 1 0   -2.627 -2.505 -2.145 -2.831   -2.833   -2.697 -2.584 -2.277 -2.871   -2.873 1.7970       4.948 4.948 0.000
VANMET_231 2018-01-20 22:05:00 231 11739.0   -2.628 -2.522 -2.817 -2.287   100.000   -2.819 1.967 2.531 3.282 3.479 0.291 0.304 0.382 0.677 0.00 262.00   0.2730 268.10 30.04 0 1 0   -2.570 -2.466 -2.241 -2.795   -2.797   -2.695 -2.581 -2.322 -2.841   -2.843 0.9150       4.963 4.963 0.000
VANMET_231 2018-01-20 22:00:00 231 11739.0   -2.559 -2.428 -2.806 -2.193   100.000   -2.808 1.968 2.532 3.282 3.479 0.291 0.304 0.382 0.677 0.00 261.50   0.2680 233.40 24.59 0 1 0   -2.552 -2.410 -2.138 -2.789   -2.790   -2.569 -2.460 -2.250 -2.825   -2.827 1.0390       4.968 4.967 0.000
VANMET_231 2018-01-20 21:55:00 231 11739.0   -2.588 -2.434 -2.802 -2.178   100.000   -2.803 1.969 2.534 3.282 3.479 0.291 0.304 0.382 0.677 0.00 261.50   0.6590 238.40 27.03 0 1 0   -2.571 -2.409 -2.102 -2.789   -2.790   -2.607 -2.466 -2.257 -2.819   -2.820 1.9010       4.969 4.969 0.000
VANMET_231 2018-01-20 21:50:00 231 11739.0   -2.612 -2.476 -2.786 -2.210   100.000   -2.788 1.970 2.535 3.282 3.478 0.291 0.304 0.382 0.677 0.00 261.50   0.4230 238.00 26.63 0 1 0   -2.592 -2.449 -2.128 -2.769   -2.770   -2.627 -2.494 -2.282 -2.805   -2.807 1.4440       4.975 4.974 0.000
VANMET_231 2018-01-20 21:45:00 231 11739.0   -2.567 -2.417 -2.776 -2.171   100.000   -2.777 1.971 2.536 3.283 3.478 0.291 0.304 0.382 0.677 0.00 261.00   0.4140 250.80 16.07 0 1 0   -2.556 -2.404 -2.108 -2.765   -2.767   -2.588 -2.443 -2.259 -2.785   -2.787 1.4770       4.979 4.978 0.000
VANMET_231 2018-01-20 21:40:00 231 11739.0   -2.575 -2.442 -2.776 -2.179   100.000   -2.778 1.973 2.537 3.283 3.478 0.291 0.304 0.382 0.677 0.00 261.00   0.9650 249.80 22.21 0 1 0   -2.564 -2.418 -2.095 -2.759   -2.761   -2.588 -2.458 -2.216 -2.795   -2.797 1.7710       4.979 4.978 0.000
VANMET_231 2018-01-20 21:35:00 231 11739.0   -2.544 -2.435 -2.758 -2.192   100.000   -2.759 1.974 2.538 3.284 3.478 0.291 0.304 0.382 0.677 0.00 261.00   0.2950 236.80 20.86 0 1 0   -2.513 -2.403 -2.152 -2.736   -2.738   -2.574 -2.461 -2.229 -2.779   -2.781 1.4050       4.985 4.985 0.000
VANMET_231 2018-01-20 21:30:00 231 11739.0   -2.529 -2.403 -2.742 -2.121   100.000   -2.744 1.975 2.540 3.284 3.478 0.291 0.304 0.382 0.677 0.00 261.00   0.5280 246.90 26.78 0 1 0   -2.520 -2.393 -2.080 -2.709   -2.711   -2.537 -2.416 -2.161 -2.786   -2.788 2.0380       4.991 4.991 0.000
VANMET_231 2018-01-20 21:25:00 231 11739.0   -2.547 -2.440 -2.675 -2.108   100.000   -2.677 1.976 2.541 3.284 3.477 0.291 0.304 0.382 0.677 0.00 260.50   0.7380 236.30 24.78 0 1 0   -2.535 -2.421 -2.075 -2.630   -2.631   -2.554 -2.451 -2.144 -2.716   -2.718 1.6860       5.016 5.015 0.000
VANMET_231 2018-01-20 21:20:00 231 11739.0   -2.525 -2.464 -2.578 -2.125   100.000   -2.579 1.977 2.541 3.284 3.477 0.291 0.304 0.382 0.677 0.00 260.50   0.5570 245.10 24.99 0 1 0   -2.474 -2.409 -2.076 -2.530   -2.532   -2.546 -2.499 -2.173 -2.633   -2.635 1.9010       5.053 5.052 0.000
VANMET_231 2018-01-20 21:15:00 231 11739.0   -2.427 -2.340 -2.471 -2.119   100.000   -2.472 1.978 2.543 3.284 3.477 0.291 0.304 0.382 0.677 0.00 261.00   0.0000 0.00 0.00 0 1 0   -2.347 -2.250 -2.083 -2.417   -2.419   -2.473 -2.400 -2.146 -2.534   -2.535 0.0000       5.093 5.093 0.000
VANMET_231 2018-01-20 21:10:00 231 11739.0   -2.257 -2.162 -2.353 -2.004   100.000   -2.354 1.979 2.544 3.284 3.477 0.291 0.304 0.382 0.677 0.00 261.00   0.0000 0.00 0.00 0 1 0   -2.182 -2.100 -1.906 -2.314   -2.316   -2.338 -2.241 -2.106 -2.397   -2.399 0.0000       5.138 5.137 0.000
VANMET_231 2018-01-20 21:05:00 231 11739.0   -2.129 -2.057 -2.297 -1.871   100.000   -2.299 1.980 2.545 3.285 3.476 0.291 0.304 0.382 0.677 0.00 261.00   0.0000 0.00 0.00 0 1 0   -2.110 -2.033 -1.853 -2.274   -2.276   -2.171 -2.094 -1.891 -2.325   -2.326 0.0000       5.159 5.158 0.000
VANMET_231 2018-01-20 21:00:00 231 11739.0   -2.107 -2.028 -2.279 -1.833   100.000   -2.281 1.982 2.546 3.286 3.476 0.291 0.304 0.382 0.677 0.00 261.00   0.0420 291.80 2.46 0 1 0   -2.102 -2.027 -1.820 -2.265   -2.266   -2.113 -2.033 -1.842 -2.295   -2.296 0.4120       5.166 5.165 0.000
VANMET_231 2018-01-20 20:55:00 231 11739.0   -2.110 -2.016 -2.254 -1.834   100.000   -2.255 1.983 2.548 3.286 3.476 0.291 0.304 0.382 0.677 0.00 261.00   0.0400 240.90 0.20 0 1 0   -2.100 -2.001 -1.808 -2.231   -2.233   -2.115 -2.025 -1.852 -2.288   -2.289 0.3850       5.176 5.175 0.000
VANMET_231 2018-01-20 20:50:00 231 11739.0   -2.077 -1.978 -2.209 -1.833   100.000   -2.210 1.984 2.549 3.286 3.476 0.291 0.304 0.382 0.677 0.00 261.00   0.2130 259.60 22.73 0 1 0   -2.041 -1.938 -1.822 -2.185   -2.187   -2.099 -2.000 -1.850 -2.238   -2.240 1.1110       5.193 5.193 -0.000
VANMET_231 2018-01-20 20:45:00 231 11739.0   -2.009 -1.899 -2.166 -1.790   100.000   -2.167 1.985 2.550 3.286 3.476 0.291 0.304 0.382 0.677 0.00 261.00   0.0000 0.00 0.00 0 1 0   -1.994 -1.872 -1.773 -2.155   -2.157   -2.034 -1.934 -1.822 -2.185   -2.187 0.0000       5.210 5.209 0.000
VANMET_231 2018-01-20 20:40:00 231 11739.0   -1.969 -1.848 -2.145 -1.749   100.000   -2.147 1.987 2.551 3.286 3.476 0.291 0.304 0.382 0.677 0.00 261.50   0.0000 0.00 0.00 0 1 0   -1.946 -1.829 -1.723 -2.125   -2.127   -1.991 -1.869 -1.782 -2.169   -2.170 0.0000       5.218 5.217 0.000
VANMET_231 2018-01-20 20:35:00 231 11739.0   -1.936 -1.818 -2.122 -1.734   100.000   -2.124 1.987 2.553 3.287 3.475 0.291 0.304 0.382 0.677 0.00 261.50   0.2900 256.90 37.78 0 1 0   -1.928 -1.813 -1.713 -2.105   -2.107   -1.945 -1.828 -1.758 -2.135   -2.137 0.7250       5.227 5.226 0.000
VANMET_231 2018-01-20 20:30:00 231 11739.0   -1.923 -1.810 -2.107 -1.743   100.000   -2.108 1.989 2.554 3.287 3.475 0.291 0.304 0.382 0.677 0.00 262.50   0.2460 277.90 9.38 0 1 0   -1.918 -1.805 -1.712 -2.086   -2.087   -1.932 -1.818 -1.789 -2.122   -2.124 1.3260       5.232 5.232 0.000
VANMET_231 2018-01-20 20:25:00 231 11739.0   -1.890 -1.781 -2.077 -1.742   100.000   -2.079 1.990 2.554 3.287 3.475 0.291 0.304 0.382 0.677 0.00 262.50   0.4790 241.20 38.74 0 1 0   -1.864 -1.752 -1.702 -2.046   -2.047   -1.917 -1.807 -1.771 -2.099   -2.101 1.2350       5.244 5.243 0.000
VANMET_231 2018-01-20 20:20:00 231 11739.0   -1.843 -1.720 -2.058 -1.680   100.000   -2.059 1.991 2.556 3.288 3.475 0.291 0.304 0.382 0.677 0.00 261.50   0.0940 313.40 16.79 0 1 0   -1.828 -1.702 -1.623 -2.043   -2.044   -1.868 -1.747 -1.717 -2.070   -2.071 0.4570       5.251 5.251 0.000
VANMET_231 2018-01-20 20:15:00 231 11739.0   -1.835 -1.708 -2.063 -1.641   100.000   -2.064 1.992 2.557 3.288 3.475 0.291 0.304 0.382 0.677 0.00 262.50   0.3820 255.40 31.29 0 1 0   -1.826 -1.701 -1.620 -2.040   -2.041   -1.842 -1.714 -1.659 -2.083   -2.084 1.3130       5.249 5.249 0.000
VANMET_231 2018-01-20 20:10:00 231 11739.0   -1.850 -1.722 -2.076 -1.644   100.000   -2.077 1.993 2.558 3.288 3.474 0.291 0.304 0.382 0.677 0.00 262.00   0.6780 243.70 31.52 0 1 0   -1.840 -1.714 -1.633 -2.053   -2.054   -1.862 -1.727 -1.657 -2.099   -2.101 1.5810       5.244 5.244 0.000
VANMET_231 2018-01-20 20:05:00 231 11739.0   -1.856 -1.717 -2.085 -1.638   100.000   -2.086 1.995 2.560 3.289 3.474 0.291 0.304 0.382 0.677 0.00 261.50   0.0370 229.50 16.63 0 1 0   -1.848 -1.710 -1.610 -2.076   -2.077   -1.864 -1.727 -1.669 -2.099   -2.101 0.3460       5.241 5.240 0.000
VANMET_231 2018-01-20 20:00:00 231 11739.0   -1.876 -1.731 -2.106 -1.630   100.000   -2.108 1.996 2.561 3.289 3.474 0.291 0.304 0.382 0.677 0.00 262.00   0.7390 251.50 45.20 0 1 0   -1.849 -1.711 -1.610 -2.083   -2.085   -1.898 -1.751 -1.648 -2.123   -2.124 1.9730       5.233 5.232 0.000
VANMET_231 2018-01-20 19:55:00 231 11739.0   -1.899 -1.768 -2.117 -1.638   100.000   -2.118 1.997 2.561 3.289 3.474 0.291 0.304 0.382 0.677 0.00 262.00   0.4110 233.80 13.39 0 1 0   -1.894 -1.756 -1.620 -2.100   -2.101   -1.903 -1.780 -1.664 -2.137   -2.138 1.4630       5.228 5.228 0.000
VANMET_231 2018-01-20 19:50:00 231 11739.0   -1.950 -1.817 -2.140 -1.631   100.000   -2.141 1.998 2.563 3.289 3.474 0.291 0.304 0.382 0.677 0.00 262.00   0.5710 227.40 17.46 0 1 0   -1.914 -1.785 -1.590 -2.120   -2.121   -1.973 -1.845 -1.672 -2.157   -2.158 1.2150       5.220 5.219 0.000
VANMET_231 2018-01-20 19:45:00 231 11739.0   -1.974 -1.846 -2.133 -1.656   100.000   -2.134 1.999 2.564 3.289 3.474 0.291 0.304 0.382 0.677 0.00 262.00   0.5440 250.20 15.24 0 1 0   -1.971 -1.845 -1.633 -2.110   -2.112   -1.978 -1.848 -1.695 -2.160   -2.161 0.8690       5.222 5.222 0.000
VANMET_231 2018-01-20 19:40:00 231 11739.0   -1.972 -1.848 -2.082 -1.670   100.000   -2.084 2.001 2.565 3.290 3.473 0.291 0.304 0.382 0.677 0.02 262.00   0.5470 261.20 21.04 0 1 0   -1.968 -1.845 -1.646 -2.027   -2.029   -1.975 -1.851 -1.696 -2.104   -2.105 1.2810       5.242 5.241 0.000
VANMET_231 2018-01-20 19:35:00 231 11739.0   -1.926 -1.795 -2.009 -1.666   100.000   -2.010 2.002 2.567 3.290 3.473 0.291 0.304 0.382 0.677 0.01 262.00   0.1510 249.50 8.78 0 1 0   -1.865 -1.733 -1.627 -1.967   -1.969   -1.974 -1.850 -1.695 -2.054   -2.055 0.5490       5.270 5.270 0.000
VANMET_231 2018-01-20 19:30:00 231 11739.0   -1.812 -1.681 -1.936 -1.600   100.000   -1.937 2.003 2.568 3.291 3.473 0.291 0.304 0.382 0.677 0.01 262.00   0.1890 249.10 4.18 0 1 0   -1.763 -1.635 -1.582 -1.911   -1.912   -1.860 -1.728 -1.612 -1.961   -1.962 0.5750       5.299 5.299 0.000
VANMET_231 2018-01-20 19:25:00 231 11739.0   -1.723 -1.595 -1.892 -1.544   100.000   -1.893 2.005 2.569 3.291 3.473 0.291 0.304 0.382 0.677 0.01 262.50   0.4610 253.90 9.70 0 1 0   -1.694 -1.564 -1.521 -1.868   -1.869   -1.758 -1.631 -1.580 -1.917   -1.918 1.1430       5.316 5.316 0.000
VANMET_231 2018-01-20 19:20:00 231 11739.0   -1.673 -1.547 -1.856 -1.494   100.000   -1.857 2.006 2.570 3.291 3.472 0.291 0.304 0.383 0.677 0.00 263.00   0.4520 256.10 8.41 0 1 0   -1.655 -1.530 -1.449 -1.838   -1.839   -1.691 -1.562 -1.525 -1.874   -1.875 0.9150       5.330 5.330 0.000
VANMET_231 2018-01-20 19:15:00 231 11739.0   -1.640 -1.518 -1.834 -1.509   100.000   -1.835 2.007 2.572 3.291 3.472 0.291 0.304 0.383 0.678 0.00 263.00   0.4760 242.60 28.52 0 1 0   -1.622 -1.502 -1.454 -1.818   -1.819   -1.654 -1.531 -1.535 -1.851   -1.852 1.4770       5.339 5.339 0.000
VANMET_231 2018-01-20 19:10:00 231 11739.0   -1.613 -1.490 -1.815 -1.491   100.000   -1.816 2.008 2.573 3.292 3.472 0.291 0.304 0.383 0.678 0.00 263.00   0.3600 224.00 12.78 0 1 0   -1.600 -1.479 -1.465 -1.798   -1.799   -1.620 -1.501 -1.529 -1.828   -1.829 1.0320       5.347 5.346 0.000
VANMET_231 2018-01-20 19:05:00 231 11739.0   -1.593 -1.474 -1.803 -1.453   100.000   -1.804 2.009 2.574 3.292 3.472 0.291 0.304 0.383 0.678 0.00 263.00   0.1420 221.30 24.25 0 1 0   -1.589 -1.470 -1.422 -1.792   -1.793   -1.599 -1.478 -1.483 -1.818   -1.819 0.5620       5.351 5.351 0.000
VANMET_231 2018-01-20 19:00:00 231 11739.0   -1.587 -1.471 -1.795 -1.430   100.000   -1.796 2.010 2.575 3.292 3.472 0.291 0.304 0.383 0.678 0.00 263.00   0.1070 248.90 8.51 0 1 0   -1.579 -1.467 -1.394 -1.778   -1.779   -1.592 -1.475 -1.475 -1.815   -1.816 0.7510       5.355 5.354 0.000
VANMET_231 2018-01-20 18:55:00 231 11739.0   -1.575 -1.461 -1.787 -1.421   100.000   -1.789 2.012 2.577 3.292 3.471 0.291 0.304 0.383 0.678 0.00 263.50   0.0910 271.00 0.01 0 1 0   -1.572 -1.456 -1.408 -1.775   -1.776   -1.579 -1.465 -1.427 -1.798   -1.799 0.6730       5.358 5.357 0.000
VANMET_231 2018-01-20 18:50:00 231 11739.0   -1.569 -1.452 -1.778 -1.452   100.000   -1.779 2.013 2.578 3.293 3.471 0.291 0.304 0.383 0.678 0.00 263.50   0.3470 267.60 17.71 0 1 0   -1.565 -1.446 -1.423 -1.759   -1.760   -1.572 -1.457 -1.489 -1.798   -1.799 0.9800       5.361 5.361 0.000
VANMET_231 2018-01-20 18:45:00 231 11739.0   -1.564 -1.441 -1.774 -1.418   100.000   -1.775 2.014 2.579 3.293 3.471 0.291 0.304 0.383 0.678 0.01 264.50   0.3700 264.60 41.52 0 1 0   -1.561 -1.439 -1.373 -1.759   -1.760   -1.566 -1.446 -1.465 -1.785   -1.786 0.9210       5.363 5.362 0.000
VANMET_231 2018-01-20 18:40:00 231 11739.0   -1.561 -1.431 -1.772 -1.399   100.000   -1.773 2.015 2.580 3.293 3.471 0.291 0.304 0.383 0.678 0.00 264.50   0.0810 245.80 7.18 0 1 0   -1.559 -1.419 -1.375 -1.755   -1.756   -1.565 -1.439 -1.444 -1.789   -1.790 0.6210       5.364 5.363 0.000
VANMET_231 2018-01-20 18:35:00 231 11739.0   -1.555 -1.394 -1.767 -1.385   100.000   -1.768 2.016 2.581 3.293 3.470 0.291 0.304 0.383 0.678 0.00 265.00   0.0000 0.00 0.00 0 1 0   -1.552 -1.357 -1.357 -1.749   -1.750   -1.559 -1.418 -1.405 -1.782   -1.783 0.0000       5.366 5.365 0.000
VANMET_231 2018-01-20 18:30:00 231 11739.0   -1.549 -1.339 -1.760 -1.390   100.000   -1.761 2.017 2.582 3.293 3.470 0.291 0.304 0.383 0.678 0.00 265.50   0.0000 0.00 0.00 0 1 0   -1.545 -1.260 -1.368 -1.746   -1.747   -1.554 -1.454 -1.403 -1.782   -1.783 0.0000       5.368 5.368 0.000
VANMET_231 2018-01-20 18:25:00 231 11739.0   -1.545 -1.450 -1.754 -1.389   100.000   -1.755 2.019 2.584 3.294 3.470 0.291 0.304 0.383 0.678 0.00 266.00   0.0000 0.00 0.00 0 1 0   -1.541 -1.444 -1.353 -1.743   -1.744   -1.546 -1.453 -1.415 -1.766   -1.767 0.0000       5.371 5.370 0.000
VANMET_231 2018-01-20 18:20:00 231 11739.0   -1.538 -1.438 -1.746 -1.383   100.000   -1.747 2.020 2.585 3.294 3.470 0.291 0.304 0.383 0.678 0.00 266.00   0.0000 0.00 0.00 0 1 0   -1.535 -1.434 -1.362 -1.733   -1.734   -1.541 -1.444 -1.408 -1.759   -1.760 0.0000       5.374 5.374 0.000
VANMET_231 2018-01-20 18:15:00 231 11739.0   -1.531 -1.427 -1.739 -1.380   100.000   -1.740 2.021 2.586 3.295 3.470 0.292 0.304 0.383 0.678 0.00 266.00   0.0000 0.00 0.00 0 1 0   -1.527 -1.421 -1.361 -1.726   -1.727   -1.535 -1.432 -1.403 -1.756   -1.757 0.0000       5.377 5.376 0.000
VANMET_231 2018-01-20 18:10:00 231 11739.0   -1.524 -1.416 -1.729 -1.364   100.000   -1.730 2.023 2.588 3.295 3.470 0.292 0.304 0.383 0.678 0.00 266.00   0.0150 251.10 0.01 0 1 0   -1.522 -1.412 -1.351 -1.719   -1.720   -1.527 -1.421 -1.379 -1.746   -1.747 0.2420       5.381 5.380 0.000
VANMET_231 2018-01-20 18:05:00 231 11739.0   -1.520 -1.408 -1.723 -1.371   100.000   -1.724 2.024 2.588 3.295 3.469 0.292 0.304 0.383 0.678 0.00 266.00   0.2170 254.30 9.27 0 1 0   -1.517 -1.399 -1.339 -1.700   -1.701   -1.522 -1.412 -1.417 -1.740   -1.741 0.6470       5.383 5.383 0.000
VANMET_231 2018-01-20 18:00:00 231 11739.0   -1.510 -1.393 -1.714 -1.376   100.000   -1.715 2.025 2.590 3.296 3.469 0.292 0.304 0.383 0.678 0.00 266.00   0.3430 251.80 15.25 0 1 0   -1.504 -1.387 -1.345 -1.703   -1.704   -1.514 -1.399 -1.406 -1.733   -1.734 0.8360       5.387 5.386 0.000
VANMET_231 2018-01-20 17:55:00 231 11739.0   -1.505 -1.389 -1.706 -1.347   100.000   -1.708 2.026 2.591 3.296 3.469 0.292 0.304 0.383 0.678 0.00 266.00   0.4820 266.60 24.81 0 1 0   -1.504 -1.387 -1.329 -1.690   -1.691   -1.507 -1.391 -1.362 -1.719   -1.720 0.7910       5.390 5.389 -0.000
VANMET_231 2018-01-20 17:50:00 231 11739.0   -1.501 -1.384 -1.696 -1.363   100.000   -1.697 2.027 2.592 3.296 3.469 0.292 0.304 0.383 0.678 0.00 266.00   0.4190 233.20 9.93 0 1 0   -1.497 -1.381 -1.342 -1.676   -1.677   -1.507 -1.388 -1.382 -1.720   -1.721 0.7060       5.394 5.393 0.000
VANMET_231 2018-01-20 17:45:00 231 11739.0   -1.492 -1.377 -1.676 -1.360   100.000   -1.677 2.028 2.594 3.296 3.469 0.292 0.304 0.383 0.678 0.00 266.00   0.5150 227.80 14.70 0 1 0   -1.489 -1.374 -1.313 -1.660   -1.661   -1.497 -1.382 -1.391 -1.690   -1.691 1.1170       5.402 5.401 0.000
VANMET_231 2018-01-20 17:40:00 231 11739.0   -1.485 -1.377 -1.656 -1.372   100.000   -1.657 2.029 2.595 3.296 3.468 0.292 0.304 0.383 0.678 0.00 265.50   0.4400 252.20 24.42 0 1 0   -1.474 -1.371 -1.317 -1.633   -1.634   -1.489 -1.381 -1.404 -1.676   -1.677 1.4240       5.410 5.409 0.000
VANMET_231 2018-01-20 17:35:00 231 11739.0   -1.468 -1.364 -1.624 -1.381   100.000   -1.625 2.031 2.596 3.296 3.468 0.292 0.304 0.383 0.678 0.00 265.00   0.2050 251.80 24.58 0 1 0   -1.461 -1.357 -1.318 -1.610   -1.611   -1.474 -1.370 -1.427 -1.643   -1.644 0.8430       5.423 5.422 0.000
VANMET_231 2018-01-20 17:30:00 231 11739.0   -1.451 -1.345 -1.584 -1.351   100.000   -1.585 2.032 2.597 3.296 3.468 0.292 0.305 0.383 0.678 0.00 265.00   0.1190 211.70 10.27 0 1 0   -1.435 -1.331 -1.315 -1.560   -1.561   -1.459 -1.354 -1.381 -1.600   -1.601 0.8040       5.439 5.438 0.000
VANMET_231 2018-01-20 17:25:00 231 11739.0   -1.411 -1.308 -1.532 -1.331   100.000   -1.533 2.033 2.598 3.297 3.467 0.292 0.305 0.383 0.678 0.00 265.00   0.0080 257.10 2.97 0 1 0   -1.385 -1.280 -1.279 -1.494   -1.495   -1.433 -1.329 -1.363 -1.554   -1.555 0.1370       5.459 5.459 0.000
VANMET_231 2018-01-20 17:20:00 231 11739.0   -1.344 -1.244 -1.458 -1.316   100.000   -1.458 2.034 2.600 3.297 3.467 0.292 0.305 0.383 0.678 0.00 265.00   0.2520 238.70 20.72 0 1 0   -1.314 -1.215 -1.238 -1.428   -1.428   -1.383 -1.279 -1.375 -1.497   -1.498 1.1170       5.489 5.489 0.000
VANMET_231 2018-01-20 17:15:00 231 11739.0   -1.287 -1.189 -1.408 -1.283   100.000   -1.409 2.036 2.601 3.298 3.467 0.292 0.305 0.383 0.678 0.00 264.50   0.1340 233.20 3.99 0 1 0   -1.268 -1.169 -1.236 -1.375   -1.375   -1.311 -1.214 -1.321 -1.428   -1.428 0.7580       5.510 5.509 0.000
VANMET_231 2018-01-20 17:10:00 231 11739.0   -1.251 -1.151 -1.359 -1.219   100.000   -1.360 2.037 2.602 3.298 3.467 0.292 0.305 0.383 0.678 0.01 264.00   0.0080 212.50 5.43 0 1 0   -1.234 -1.130 -1.208 -1.328   -1.329   -1.265 -1.167 -1.248 -1.391   -1.392 0.1310       5.530 5.529 0.000
VANMET_231 2018-01-20 17:05:00 231 11739.0   -1.208 -1.105 -1.308 -1.232   100.000   -1.308 2.038 2.604 3.298 3.467 0.292 0.305 0.383 0.678 0.04 263.50   0.2900 237.20 9.94 0 1 0   -1.181 -1.081 -1.204 -1.275   -1.276   -1.233 -1.129 -1.254 -1.341   -1.342 0.8890       5.550 5.550 -0.000
VANMET_231 2018-01-20 17:00:00 231 11739.0   -1.157 -1.068 -1.245 -1.220   100.000   -1.246 2.040 2.605 3.298 3.467 0.292 0.305 0.383 0.678 0.22 263.00   0.0000 0.00 0.00 0 1 0   -1.138 -1.064 -1.194 -1.215   -1.216   -1.178 -1.078 -1.237 -1.292   -1.293 0.0000       5.576 5.576 0.000
VANMET_231 2018-01-20 16:55:00 231 11739.0   -1.112 -1.039 -1.186 -1.240   100.000   -1.187 2.041 2.606 3.298 3.466 0.292 0.305 0.383 0.678 0.44 263.00   0.0000 0.00 0.00 0 1 0   -1.083 -1.002 -1.217 -1.149   -1.149   -1.135 -1.065 -1.277 -1.215   -1.216 0.0000       5.600 5.600 0.000
VANMET_231 2018-01-20 16:50:00 231 11739.0   -1.065 -0.996 -1.139 -1.229   100.000   -1.139 2.042 2.607 3.299 3.466 0.292 0.305 0.383 0.678 0.77 262.50   0.1680 223.20 11.10 0 1 0   -1.048 -0.987 -1.200 -1.112   -1.113   -1.082 -1.005 -1.269 -1.169   -1.169 0.6600       5.620 5.620 0.000
VANMET_231 2018-01-20 16:45:00 231 11739.0   -1.027 -0.965 -1.082 -1.205   100.000   -1.083 2.044 2.609 3.299 3.466 0.292 0.305 0.383 0.678 1.11 262.50   0.2450 240.40 6.28 0 1 0   -1.011 -0.951 -1.176 -1.042   -1.043   -1.045 -0.985 -1.252 -1.126   -1.126 0.7190       5.643 5.643 0.000
VANMET_231 2018-01-20 16:40:00 231 11739.0   -0.991 -0.937 -0.995 -1.234   100.000   -0.996 2.045 2.610 3.300 3.466 0.292 0.305 0.383 0.678 1.40 262.50   0.1590 256.00 4.32 0 1 0   -0.955 -0.888 -1.173 -0.926   -0.927   -1.010 -0.949 -1.305 -1.042   -1.043 0.4830       5.679 5.679 0.000
VANMET_231 2018-01-20 16:35:00 231 11739.0   -0.889 -0.834 -0.854 -1.202   100.000   -0.855 2.046 2.611 3.300 3.465 0.292 0.305 0.383 0.678 1.61 262.50   0.5130 251.50 20.04 0 1 0   -0.862 -0.811 -1.167 -0.800   -0.800   -0.928 -0.870 -1.249 -0.930   -0.930 1.2540       5.738 5.738 0.000
VANMET_231 2018-01-20 16:30:00 231 11739.0   -0.819 -0.782 -0.743 -1.173   100.000   -0.744 2.047 2.612 3.300 3.465 0.292 0.305 0.383 0.678 2.02 262.50   0.5680 222.90 15.76 0 1 0   -0.745 -0.717 -1.131 -0.683   -0.684   -0.860 -0.811 -1.223 -0.803   -0.803 0.9080       5.785 5.785 0.000
VANMET_231 2018-01-20 16:25:00 231 11739.0   -0.710 -0.681 -0.622 -1.106   100.000   -0.623 2.048 2.614 3.300 3.465 0.292 0.305 0.383 0.678 2.82 262.50   0.6980 238.70 22.98 0 1 0   -0.676 -0.645 -1.028 -0.574   -0.574   -0.745 -0.707 -1.199 -0.683   -0.684 1.0000       5.837 5.836 0.000
VANMET_231 2018-01-20 16:20:00 231 11739.0   -0.632 -0.585 -0.545 -1.088   100.000   -0.545 2.050 2.615 3.301 3.465 0.292 0.305 0.383 0.678 3.52 262.50   0.5660 246.60 23.57 0 1 0   -0.582 -0.534 -1.027 -0.494   -0.494   -0.674 -0.636 -1.124 -0.574   -0.574 1.3850       5.870 5.870 0.000
VANMET_231 2018-01-20 16:15:00 231 11739.0   -0.519 -0.456 -0.456 -1.033   100.000   -0.456 2.051 2.617 3.301 3.464 0.292 0.305 0.383 0.678 3.43 264.00   0.6070 246.00 14.19 0 1 0   -0.455 -0.379 -0.969 -0.414   -0.414   -0.576 -0.525 -1.106 -0.494   -0.494 1.2610       5.908 5.908 0.000
VANMET_231 2018-01-20 16:10:00 231 11739.0   -0.334 -0.281 -0.362 -1.005   100.000   -0.362 2.052 2.617 3.301 3.464 0.292 0.305 0.383 0.678 4.50 265.00   0.5520 235.50 27.65 0 1 0   -0.201 -0.159 -0.942 -0.310   -0.311   -0.451 -0.380 -1.121 -0.420   -0.421 1.1830       5.949 5.949 0.000
VANMET_231 2018-01-20 16:05:00 231 11739.0   -0.048 -0.011 -0.257 -0.943   100.000   -0.257 2.053 2.618 3.301 3.464 0.292 0.305 0.383 0.678 7.61 265.50   0.5160 234.60 11.44 0 1 0   0.104 0.140 -0.853 -0.204   -0.204   -0.193 -0.147 -1.080 -0.310   -0.311 1.2150       5.995 5.995 0.000
VANMET_231 2018-01-20 16:00:00 231 11739.0   0.182 0.211 -0.145 -0.904   100.000   -0.145 2.054 2.620 3.301 3.463 0.292 0.305 0.383 0.678 15.57 266.00   0.5090 221.60 19.68 0 1 0   0.229 0.241 -0.780 -0.124   -0.124   0.127 0.155 -0.991 -0.184   -0.184 1.0780       6.044 6.044 0.000
VANMET_231 2018-01-20 15:55:00 231 11739.0   -0.053 0.066 -0.266 -0.965   100.000   -0.266 2.056 2.621 3.301 3.463 0.292 0.305 0.383 0.678 28.79 266.00   0.5340 209.90 32.95 0 1 0   0.112 0.175 -0.807 -0.138   -0.138   -0.216 -0.096 -1.089 -0.457   -0.457 0.8490       5.991 5.991 0.000
VANMET_231 2018-01-20 15:50:00 231 11739.0   -0.361 -0.204 -0.565 -1.073   100.000   -0.566 2.057 2.622 3.302 3.463 0.292 0.305 0.383 0.678 20.89 266.00   0.4250 227.90 23.56 0 1 0   -0.229 -0.107 -0.974 -0.463   -0.464   -0.506 -0.345 -1.126 -0.656   -0.657 1.0260       5.861 5.861 0.000
VANMET_231 2018-01-20 15:45:00 231 11739.0   -0.547 -0.425 -0.719 -1.060   100.000   -0.719 2.059 2.623 3.302 3.463 0.292 0.305 0.383 0.678 14.53 266.50   0.2620 209.90 18.93 0 1 0   -0.518 -0.357 -0.992 -0.660   -0.660   -0.568 -0.485 -1.116 -0.756   -0.757 1.0980       5.796 5.796 0.000
VANMET_231 2018-01-20 15:40:00 231 11739.0   -0.538 -0.492 -0.752 -1.092   100.000   -0.753 2.060 2.625 3.302 3.463 0.292 0.305 0.383 0.678 11.65 266.50   0.4120 226.10 30.48 0 1 0   -0.498 -0.470 -0.996 -0.716   -0.717   -0.566 -0.508 -1.165 -0.789   -0.790 0.6860       5.782 5.781 0.000
VANMET_231 2018-01-20 15:35:00 231 11739.0   -0.565 -0.479 -0.789 -1.130   100.000   -0.789 2.062 2.627 3.303 3.463 0.292 0.305 0.383 0.678 10.60 267.00   0.5870 219.10 33.95 0 1 0   -0.543 -0.458 -1.082 -0.773   -0.773   -0.592 -0.505 -1.225 -0.806   -0.806 1.1300       5.766 5.766 0.000
VANMET_231 2018-01-20 15:30:00 231 11739.0   -0.640 -0.565 -0.867 -1.185   100.000   -0.867 2.063 2.628 3.303 3.463 0.292 0.305 0.383 0.678 17.28 267.00   0.6900 229.20 19.33 0 1 0   -0.582 -0.466 -1.100 -0.806   -0.806   -0.742 -0.622 -1.290 -0.942   -0.943 1.4900       5.733 5.733 0.000
VANMET_231 2018-01-20 15:25:00 231 11739.0   -0.733 -0.688 -0.948 -1.129   100.000   -0.949 2.064 2.629 3.303 3.462 0.292 0.305 0.383 0.678 14.25 267.00   0.8370 231.80 23.60 0 1 0   -0.667 -0.629 -1.080 -0.912   -0.913   -0.803 -0.760 -1.201 -0.982   -0.982 1.8230       5.699 5.699 0.000
VANMET_231 2018-01-20 15:20:00 231 11739.0   -0.831 -0.786 -0.988 -1.211   100.000   -0.989 2.065 2.631 3.304 3.462 0.292 0.305 0.383 0.678 11.82 267.00   0.7920 218.30 20.89 0 1 0   -0.810 -0.765 -1.165 -0.965   -0.966   -0.852 -0.803 -1.275 -1.008   -1.009 1.4630       5.682 5.682 -0.000
VANMET_231 2018-01-20 15:15:00 231 11739.0   -0.803 -0.773 -0.972 -1.184   100.000   -0.972 2.067 2.632 3.304 3.462 0.292 0.305 0.383 0.678 10.78 267.00   1.0540 227.90 22.71 0 1 0   -0.778 -0.742 -1.127 -0.942   -0.943   -0.838 -0.808 -1.239 -1.002   -1.002 1.9730       5.689 5.689 0.000
VANMET_231 2018-01-20 15:10:00 231 11739.0   -0.791 -0.746 -0.954 -1.140   100.000   -0.955 2.068 2.633 3.304 3.462 0.292 0.305 0.383 0.678 9.96 267.50   0.6420 234.70 29.12 0 1 0   -0.770 -0.726 -1.090 -0.939   -0.939   -0.811 -0.766 -1.184 -0.965   -0.966 1.8950       5.697 5.696 0.000
VANMET_231 2018-01-20 15:05:00 231 11739.0   -0.776 -0.723 -0.938 -1.173   100.000   -0.939 2.069 2.635 3.304 3.462 0.292 0.305 0.383 0.678 9.99 268.00   0.7410 219.40 19.49 0 1 0   -0.766 -0.700 -1.139 -0.915   -0.916   -0.795 -0.752 -1.212 -0.962   -0.962 1.1240       5.703 5.703 0.000
VANMET_231 2018-01-20 15:00:00 231 11739.0   -0.744 -0.680 -0.949 -1.159   100.000   -0.950 2.071 2.636 3.305 3.462 0.292 0.305 0.383 0.678 12.47 268.00   0.7300 221.70 9.35 0 1 0   -0.721 -0.637 -1.105 -0.922   -0.923   -0.768 -0.748 -1.223 -0.962   -0.962 1.4050       5.699 5.698 0.000
VANMET_231 2018-01-20 14:55:00 231 11739.0   -0.662 -0.606 -0.905 -1.172   100.000   -0.905 2.072 2.638 3.305 3.461 0.292 0.305 0.383 0.678 10.70 268.00   0.5120 204.60 34.49 0 1 0   -0.574 -0.544 -1.063 -0.865   -0.866   -0.753 -0.663 -1.246 -0.942   -0.942 1.5090       5.717 5.717 -0.000
VANMET_231 2018-01-20 14:50:00 231 11739.0   -0.584 -0.592 -0.925 -1.129   100.000   -0.925 2.073 2.638 3.305 3.461 0.292 0.305 0.383 0.679 17.91 268.00   0.7670 221.10 10.15 0 1 0   -0.546 -0.549 -1.054 -0.879   -0.879   -0.640 -0.625 -1.212 -0.972   -0.972 1.6660       5.709 5.709 0.000
VANMET_231 2018-01-20 14:45:00 231 11739.0   -0.782 -0.751 -1.080 -1.212   100.000   -1.081 2.075 2.640 3.305 3.461 0.292 0.305 0.383 0.678 22.16 268.00   0.8730 230.70 19.91 0 1 0   -0.650 -0.628 -1.170 -0.968   -0.969   -0.907 -0.882 -1.289 -1.181   -1.182 1.6200       5.644 5.644 0.000
VANMET_231 2018-01-20 14:40:00 231 11739.0   -1.023 -0.982 -1.248 -1.278   100.000   -1.249 2.076 2.641 3.306 3.461 0.292 0.305 0.383 0.679 15.73 268.00   0.8810 215.40 19.98 0 1 0   -0.921 -0.892 -1.216 -1.195   -1.195   -1.082 -1.042 -1.351 -1.287   -1.288 1.9400       5.575 5.574 0.000
VANMET_231 2018-01-20 14:35:00 231 11739.0   -1.090 -1.040 -1.263 -1.324   100.000   -1.264 2.077 2.643 3.306 3.461 0.292 0.305 0.383 0.679 8.86 268.00   1.1140 232.20 14.82 0 1 0   -1.080 -1.020 -1.254 -1.248   -1.248   -1.100 -1.054 -1.364 -1.284   -1.285 1.8820       5.569 5.568 0.000
VANMET_231 2018-01-20 14:30:00 231 11739.0   -1.057 -0.987 -1.245 -1.347   100.000   -1.246 2.079 2.644 3.306 3.461 0.292 0.305 0.383 0.679 9.14 268.00   0.9940 221.60 18.29 0 1 0   -1.024 -0.963 -1.307 -1.228   -1.228   -1.099 -1.022 -1.395 -1.271   -1.272 1.7840       5.576 5.576 0.000
VANMET_231 2018-01-20 14:25:00 231 11739.0   -0.995 -0.974 -1.225 -1.290   100.000   -1.225 2.080 2.645 3.306 3.460 0.292 0.305 0.383 0.679 11.18 267.00   0.9380 221.60 22.23 0 1 0   -0.974 -0.964 -1.234 -1.214   -1.215   -1.035 -0.999 -1.363 -1.241   -1.242 1.3590       5.584 5.584 0.000
VANMET_231 2018-01-20 14:20:00 231 11739.0   -0.993 -0.972 -1.204 -1.289   100.000   -1.204 2.081 2.646 3.306 3.460 0.293 0.305 0.383 0.679 12.11 266.00   0.8270 247.70 30.41 0 1 0   -0.964 -0.947 -1.240 -1.181   -1.182   -1.032 -1.002 -1.363 -1.218   -1.218 1.6460       5.593 5.593 0.000
VANMET_231 2018-01-20 14:15:00 231 11739.0   -1.048 -1.010 -1.187 -1.352   100.000   -1.188 2.083 2.648 3.307 3.460 0.293 0.305 0.383 0.679 9.83 265.00   0.8250 243.90 18.82 0 1 0   -1.039 -0.996 -1.299 -1.161   -1.162   -1.063 -1.026 -1.410 -1.214   -1.215 1.9400       5.600 5.600 0.000
VANMET_231 2018-01-20 14:10:00 231 11739.0   -0.975 -0.935 -1.107 -1.354   100.000   -1.108 2.084 2.650 3.307 3.460 0.293 0.305 0.383 0.679 10.54 264.50   1.1730 221.80 23.67 0 1 0   -0.902 -0.854 -1.284 -1.061   -1.062   -1.033 -0.981 -1.396 -1.144   -1.145 2.2410       5.633 5.633 -0.000
VANMET_231 2018-01-20 14:05:00 231 11739.0   -0.897 -0.836 -1.062 -1.283   100.000   -1.062 2.085 2.651 3.307 3.459 0.293 0.305 0.384 0.679 12.58 264.00   0.8700 220.30 10.83 0 1 0   -0.878 -0.825 -1.234 -1.048   -1.049   -0.928 -0.847 -1.338 -1.081   -1.082 1.5610       5.652 5.652 -0.000
VANMET_231 2018-01-20 14:00:00 231 11739.0   -0.913 -0.834 -1.074 -1.296   100.000   -1.075 2.087 2.652 3.308 3.459 0.293 0.305 0.384 0.679 10.40 264.00   0.7660 217.60 31.61 0 1 0   -0.856 -0.775 -1.233 -1.038   -1.039   -0.968 -0.855 -1.370 -1.101   -1.102 2.5680       5.647 5.646 0.000
VANMET_231 2018-01-20 13:55:00 231 11739.0   -0.841 -0.774 -1.044 -1.293   100.000   -1.045 2.088 2.654 3.308 3.459 0.293 0.305 0.384 0.679 10.61 264.00   0.5800 220.80 17.17 0 1 0   -0.748 -0.719 -1.201 -1.018   -1.019   -0.905 -0.810 -1.381 -1.065   -1.065 1.2740       5.659 5.659 0.000
VANMET_231 2018-01-20 13:50:00 231 11739.0   -0.791 -0.748 -1.071 -1.219   100.000   -1.072 2.090 2.655 3.308 3.459 0.293 0.305 0.384 0.679 13.21 262.00   0.0000 0.00 0.00 0 1 0   -0.742 -0.701 -1.169 -1.021   -1.022   -0.854 -0.808 -1.284 -1.145   -1.145 0.0000       5.648 5.647 0.000
VANMET_231 2018-01-20 13:45:00 231 11739.0   -0.974 -0.910 -1.200 -1.371   100.000   -1.201 2.091 2.656 3.308 3.458 0.293 0.305 0.384 0.679 16.08 262.00   0.0490 207.00 0.00 0 1 0   -0.869 -0.819 -1.258 -1.131   -1.132   -1.035 -0.980 -1.425 -1.248   -1.248 0.6210       5.595 5.594 0.000
VANMET_231 2018-01-20 13:40:00 231 11739.0   -1.003 -0.969 -1.274 -1.382   100.000   -1.275 2.093 2.657 3.309 3.459 0.293 0.305 0.384 0.679 13.13 264.00   1.0590 215.60 18.66 0 1 0   -0.965 -0.951 -1.319 -1.254   -1.255   -1.019 -0.984 -1.464 -1.294   -1.295 2.2800       5.564 5.564 -0.000
VANMET_231 2018-01-20 13:35:00 231 11739.0   -1.027 -1.007 -1.317 -1.412   100.000   -1.318 2.094 2.659 3.309 3.459 0.293 0.305 0.384 0.679 15.86 264.00   0.8570 236.70 11.83 0 1 0   -0.961 -0.952 -1.319 -1.277   -1.278   -1.119 -1.069 -1.521 -1.371   -1.371 1.9270       5.547 5.546 0.000
VANMET_231 2018-01-20 13:30:00 231 11739.0   -1.136 -1.089 -1.374 -1.480   100.000   -1.375 2.095 2.660 3.310 3.458 0.293 0.305 0.384 0.679 15.43 264.00   1.2020 236.10 19.11 0 1 0   -1.124 -1.073 -1.435 -1.361   -1.362   -1.167 -1.114 -1.516 -1.394   -1.395 2.0650       5.523 5.523 0.000
VANMET_231 2018-01-20 13:25:00 231 11739.0   -1.185 -1.135 -1.398 -1.483   100.000   -1.399 2.097 2.661 3.310 3.458 0.293 0.305 0.384 0.679 13.96 264.00   1.2310 230.90 12.75 0 1 0   -1.154 -1.119 -1.420 -1.357   -1.358   -1.198 -1.147 -1.552 -1.424   -1.425 2.1170       5.514 5.513 0.000
VANMET_231 2018-01-20 13:20:00 231 11739.0   -1.136 -1.092 -1.359 -1.480   100.000   -1.360 2.098 2.663 3.309 3.457 0.293 0.305 0.384 0.679 14.03 263.00   1.2440 232.70 23.64 0 1 0   -1.113 -1.068 -1.419 -1.338   -1.338   -1.173 -1.112 -1.572 -1.384   -1.385 1.7840       5.530 5.529 0.000
VANMET_231 2018-01-20 13:15:00 231 11739.0   -1.163 -1.133 -1.378 -1.466   100.000   -1.379 2.099 2.664 3.310 3.457 0.293 0.305 0.384 0.679 11.83 262.00   0.9850 248.90 24.27 0 1 0   -1.148 -1.118 -1.383 -1.361   -1.361   -1.179 -1.143 -1.569 -1.397   -1.398 1.8950       5.522 5.521 0.000
VANMET_231 2018-01-20 13:10:00 231 11739.0   -1.153 -1.143 -1.353 -1.527   100.000   -1.354 2.101 2.665 3.310 3.457 0.293 0.305 0.384 0.679 13.86 262.00   1.1790 222.90 18.11 0 1 0   -1.106 -1.063 -1.420 -1.317   -1.318   -1.182 -1.184 -1.612 -1.387   -1.388 2.0840       5.532 5.532 -0.000
VANMET_231 2018-01-20 13:05:00 231 11739.0   -1.159 -1.090 -1.352 -1.554   100.000   -1.352 2.102 2.667 3.310 3.457 0.293 0.305 0.384 0.679 12.75 262.00   0.7430 227.30 27.34 0 1 0   -1.109 -1.055 -1.478 -1.314   -1.315   -1.196 -1.104 -1.603 -1.384   -1.385 1.4240       5.532 5.532 0.000
VANMET_231 2018-01-20 13:00:00 231 11739.0   -1.149 -1.082 -1.362 -1.525   100.000   -1.363 2.103 2.668 3.311 3.457 0.293 0.305 0.384 0.679 13.08 261.00   0.9980 218.30 17.67 0 1 0   -1.101 -1.033 -1.437 -1.341   -1.342   -1.183 -1.113 -1.599 -1.377   -1.378 1.8620       5.528 5.528 0.000
VANMET_231 2018-01-20 12:55:00 231 11739.0   -1.090 -1.047 -1.386 -1.396   100.000   -1.387 2.105 2.670 3.311 3.456 0.293 0.306 0.384 0.679 11.99 261.00   0.7140 220.50 30.75 0 1 0   -1.050 -1.022 -1.327 -1.354   -1.355   -1.133 -1.106 -1.541 -1.434   -1.435 1.1370       5.519 5.518 0.000
VANMET_231 2018-01-20 12:50:00 231 11739.0   -1.203 -1.204 -1.464 -1.514   100.000   -1.465 2.106 2.671 3.312 3.456 0.293 0.306 0.384 0.679 13.32 261.00   0.8340 234.60 18.66 0 1 0   -1.137 -1.118 -1.399 -1.431   -1.431   -1.249 -1.258 -1.626 -1.501   -1.501 1.5030       5.487 5.487 0.000
VANMET_231 2018-01-20 12:45:00 231 11739.0   -1.224 -1.232 -1.475 -1.567   100.000   -1.476 2.108 2.673 3.312 3.456 0.293 0.306 0.384 0.679 14.27 259.50   1.0630 246.50 26.46 0 1 0   -1.190 -1.206 -1.485 -1.460   -1.461   -1.254 -1.257 -1.636 -1.490   -1.491 2.5940       5.482 5.482 0.000
VANMET_231 2018-01-20 12:40:00 231 11739.0   -1.262 -1.239 -1.463 -1.584   100.000   -1.464 2.109 2.674 3.312 3.456 0.293 0.306 0.384 0.679 12.71 259.50   1.1830 222.90 17.74 0 1 0   -1.240 -1.203 -1.442 -1.427   -1.428   -1.295 -1.264 -1.658 -1.497   -1.498 1.7380       5.487 5.487 0.000
VANMET_231 2018-01-20 12:35:00 231 11739.0   -1.297 -1.261 -1.439 -1.593   100.000   -1.440 2.111 2.676 3.312 3.456 0.293 0.306 0.384 0.679 11.74 259.50   0.9550 230.80 16.34 0 1 0   -1.274 -1.231 -1.480 -1.420   -1.421   -1.310 -1.274 -1.670 -1.460   -1.461 1.5030       5.497 5.497 0.000
VANMET_231 2018-01-20 12:30:00 231 11739.0   -1.246 -1.196 -1.396 -1.563   100.000   -1.397 2.112 2.677 3.313 3.456 0.293 0.306 0.384 0.679 12.38 259.50   1.0590 208.60 38.62 0 1 0   -1.215 -1.185 -1.497 -1.370   -1.371   -1.281 -1.231 -1.642 -1.414   -1.415 2.9470       5.514 5.514 0.000
VANMET_231 2018-01-20 12:25:00 231 11739.0   -1.213 -1.166 -1.384 -1.581   100.000   -1.385 2.114 2.679 3.313 3.456 0.293 0.306 0.384 0.679 11.86 261.00   1.0270 220.50 21.41 0 1 0   -1.136 -1.091 -1.435 -1.356   -1.357   -1.241 -1.200 -1.671 -1.400   -1.401 2.5680       5.519 5.519 0.000
VANMET_231 2018-01-20 12:20:00 231 11739.0   -1.184 -1.121 -1.386 -1.469   100.000   -1.387 2.115 2.680 3.313 3.455 0.293 0.306 0.384 0.679 12.52 263.00   0.6410 231.00 21.59 0 1 0   -1.131 -1.085 -1.417 -1.353   -1.354   -1.243 -1.181 -1.511 -1.410   -1.411 1.2220       5.519 5.518 0.000
VANMET_231 2018-01-20 12:15:00 231 11739.0   -1.227 -1.194 -1.380 -1.542   100.000   -1.380 2.117 2.681 3.313 3.455 0.293 0.306 0.384 0.679 11.26 262.00   1.1040 227.70 29.52 0 1 0   -1.165 -1.164 -1.491 -1.320   -1.320   -1.261 -1.212 -1.591 -1.413   -1.414 2.3910       5.521 5.521 0.000
VANMET_231 2018-01-20 12:10:00 231 11739.0   -1.080 -1.059 -1.246 -1.510   100.000   -1.246 2.118 2.683 3.314 3.455 0.293 0.306 0.384 0.679 11.81 260.00   1.1510 233.10 19.86 0 1 0   -1.044 -1.000 -1.412 -1.207   -1.207   -1.161 -1.159 -1.600 -1.303   -1.304 2.3450       5.576 5.576 0.000
VANMET_231 2018-01-20 12:05:00 231 11739.0   -1.009 -1.007 -1.185 -1.417   100.000   -1.186 2.120 2.684 3.314 3.455 0.293 0.306 0.384 0.679 11.73 260.00   0.7500 232.90 19.54 0 1 0   -0.966 -0.961 -1.333 -1.147   -1.148   -1.056 -1.039 -1.525 -1.227   -1.227 1.6590       5.601 5.600 0.000
VANMET_231 2018-01-20 12:00:00 231 11739.0   -0.943 -0.942 -1.108 -1.357   100.000   -1.109 2.121 2.686 3.314 3.455 0.293 0.306 0.384 0.679 12.22 261.00   0.8630 224.00 9.56 0 1 0   -0.926 -0.921 -1.286 -1.077   -1.077   -0.970 -0.963 -1.442 -1.154   -1.154 1.3980       5.633 5.632 0.000
VANMET_231 2018-01-20 11:55:00 231 11739.0   -0.888 -0.876 -1.039 -1.392   100.000   -1.039 2.122 2.687 3.314 3.455 0.293 0.306 0.384 0.679 13.02 263.00   1.0930 231.80 18.54 0 1 0   -0.843 -0.811 -1.329 -0.983   -0.984   -0.929 -0.926 -1.469 -1.090   -1.091 1.9080       5.661 5.661 0.000
VANMET_231 2018-01-20 11:50:00 231 11739.0   -0.830 -0.837 -1.007 -1.408   100.000   -1.008 2.124 2.688 3.314 3.454 0.293 0.306 0.384 0.679 15.72 264.00   0.8360 222.90 13.11 0 1 0   -0.783 -0.780 -1.334 -0.977   -0.977   -0.860 -0.867 -1.466 -1.027   -1.027 1.5290       5.674 5.674 0.000
VANMET_231 2018-01-20 11:45:00 231 11739.0   -0.821 -0.789 -1.012 -1.392   100.000   -1.012 2.124 2.690 3.315 3.454 0.293 0.306 0.384 0.679 16.80 264.00   0.5090 219.70 12.85 0 1 0   -0.783 -0.772 -1.347 -0.980   -0.981   -0.860 -0.828 -1.438 -1.060   -1.060 0.9540       5.672 5.672 0.000
VANMET_231 2018-01-20 11:40:00 231 11739.0   -0.857 -0.831 -1.101 -1.387   100.000   -1.102 2.126 2.691 3.315 3.453 0.293 0.306 0.384 0.679 17.56 264.00   0.6190 223.50 10.42 0 1 0   -0.829 -0.812 -1.280 -1.059   -1.060   -0.898 -0.876 -1.496 -1.149   -1.150 0.9210       5.635 5.635 0.000
VANMET_231 2018-01-20 11:35:00 231 11739.0   -0.971 -0.931 -1.187 -1.411   100.000   -1.188 2.128 2.692 3.315 3.454 0.293 0.306 0.384 0.679 17.38 264.00   0.6890 232.10 9.33 0 1 0   -0.911 -0.889 -1.301 -1.159   -1.160   -1.016 -0.959 -1.489 -1.225   -1.226 1.4500       5.600 5.600 0.000
VANMET_231 2018-01-20 11:30:00 231 11739.0   -1.088 -0.993 -1.290 -1.525   100.000   -1.291 2.129 2.694 3.315 3.453 0.293 0.306 0.384 0.679 18.16 263.50   0.7790 221.50 26.90 0 1 0   -1.028 -0.953 -1.394 -1.232   -1.233   -1.141 -1.051 -1.610 -1.338   -1.339 1.3070       5.558 5.557 0.000
VANMET_231 2018-01-20 11:25:00 231 11739.0   -1.196 -1.161 -1.368 -1.467   100.000   -1.369 2.130 2.695 3.315 3.453 0.293 0.306 0.384 0.679 15.38 262.50   0.7490 225.50 20.15 0 1 0   -1.121 -1.068 -1.342 -1.321   -1.322   -1.245 -1.228 -1.610 -1.395   -1.396 1.2350       5.526 5.525 0.000
VANMET_231 2018-01-20 11:20:00 231 11739.0   -1.207 -1.191 -1.326 -1.565   100.000   -1.326 2.132 2.697 3.315 3.452 0.293 0.306 0.384 0.679 12.44 262.00   0.9150 221.50 18.30 0 1 0   -1.161 -1.136 -1.505 -1.261   -1.262   -1.241 -1.223 -1.644 -1.378   -1.379 1.6400       5.543 5.543 0.000
VANMET_231 2018-01-20 11:15:00 231 11739.0   -1.143 -1.116 -1.190 -1.526   100.000   -1.191 2.133 2.698 3.316 3.453 0.293 0.306 0.384 0.679 13.03 262.00   0.9420 229.30 21.47 0 1 0   -1.080 -1.053 -1.460 -1.109   -1.109   -1.191 -1.154 -1.592 -1.251   -1.252 1.3720       5.599 5.598 0.000
VANMET_231 2018-01-20 11:10:00 231 11739.0   -1.006 -1.000 -1.069 -1.472   100.000   -1.070 2.135 2.699 3.316 3.453 0.293 0.306 0.384 0.679 16.04 262.00   1.0340 230.00 26.36 0 1 0   -0.974 -0.980 -1.395 -1.042   -1.042   -1.077 -1.048 -1.538 -1.119   -1.119 2.0380       5.649 5.648 0.000
VANMET_231 2018-01-20 11:05:00 231 11739.0   -0.935 -0.938 -1.034 -1.483   100.000   -1.035 2.136 2.701 3.316 3.452 0.293 0.306 0.384 0.680 14.89 262.50   1.0200 221.10 16.17 0 1 0   -0.911 -0.889 -1.350 -0.995   -0.995   -0.983 -0.983 -1.585 -1.058   -1.059 2.4760       5.663 5.663 0.000
VANMET_231 2018-01-20 11:00:00 231 11739.0   -0.908 -0.881 -0.996 -1.478   100.000   -0.997 2.138 2.702 3.316 3.452 0.293 0.306 0.384 0.680 15.84 262.50   0.8200 214.30 16.96 0 1 0   -0.873 -0.862 -1.419 -0.968   -0.968   -0.954 -0.896 -1.548 -1.011   -1.012 1.3920       5.679 5.679 0.000
VANMET_231 2018-01-20 10:55:00 231 11739.0   -0.896 -0.897 -1.008 -1.496   100.000   -1.008 2.140 2.703 3.316 3.452 0.293 0.306 0.384 0.680 16.92 262.50   0.7850 223.20 15.54 0 1 0   -0.871 -0.842 -1.422 -0.984   -0.985   -0.933 -0.916 -1.532 -1.034   -1.035 1.6400       5.674 5.674 0.000
VANMET_231 2018-01-20 10:50:00 231 11739.0   -0.875 -0.832 -1.035 -1.455   100.000   -1.036 2.141 2.705 3.317 3.451 0.293 0.306 0.384 0.680 15.78 262.50   0.7630 213.20 7.28 0 1 0   -0.816 -0.799 -1.338 -0.998   -0.998   -0.911 -0.849 -1.599 -1.057   -1.058 1.3790       5.663 5.662 0.000
VANMET_231 2018-01-20 10:45:00 231 11739.0   -0.878 -0.873 -1.098 -1.503   100.000   -1.098 2.143 2.707 3.317 3.451 0.293 0.306 0.384 0.680 18.22 262.50   0.2070 230.80 7.99 0 1 0   -0.808 -0.791 -1.378 -1.034   -1.034   -0.960 -0.972 -1.621 -1.156   -1.157 0.7510       5.637 5.637 0.000
VANMET_231 2018-01-20 10:40:00 231 11739.0   -1.042 -1.035 -1.206 -1.538   100.000   -1.207 2.144 2.708 3.318 3.451 0.293 0.306 0.384 0.680 17.02 263.50   0.3670 215.40 16.24 0 1 0   -0.961 -0.972 -1.471 -1.150   -1.151   -1.096 -1.078 -1.617 -1.249   -1.250 0.8890       5.592 5.592 0.000
VANMET_231 2018-01-20 10:35:00 231 11739.0   -1.068 -1.037 -1.257 -1.568   100.000   -1.257 2.145 2.710 3.318 3.451 0.293 0.306 0.384 0.680 15.57 266.00   0.8740 225.40 21.58 0 1 0   -1.038 -1.015 -1.501 -1.236   -1.237   -1.099 -1.063 -1.658 -1.296   -1.297 1.3720       5.571 5.571 0.000
VANMET_231 2018-01-20 10:30:00 231 11739.0   -1.164 -1.128 -1.354 -1.576   100.000   -1.355 2.147 2.711 3.318 3.451 0.293 0.306 0.384 0.680 15.39 266.00   0.5930 227.40 5.52 0 1 0   -1.090 -1.069 -1.511 -1.306   -1.307   -1.218 -1.175 -1.655 -1.416   -1.417 1.2280       5.532 5.531 0.000
VANMET_231 2018-01-20 10:25:00 231 11739.0   -1.285 -1.209 -1.452 -1.678   100.000   -1.453 2.148 2.713 3.318 3.450 0.293 0.306 0.384 0.680 14.78 266.00   0.5880 226.00 5.55 0 1 0   -1.221 -1.175 -1.565 -1.406   -1.407   -1.369 -1.239 -1.801 -1.495   -1.496 0.8230       5.492 5.491 0.000
VANMET_231 2018-01-20 10:20:00 231 11739.0   -1.330 -1.260 -1.501 -1.752   100.000   -1.502 2.150 2.714 3.319 3.451 0.294 0.306 0.384 0.680 14.62 266.00   0.7990 217.50 12.22 0 1 0   -1.291 -1.240 -1.673 -1.459   -1.460   -1.380 -1.290 -1.804 -1.545   -1.546 1.5610       5.472 5.472 0.000
VANMET_231 2018-01-20 10:15:00 231 11739.0   -1.411 -1.316 -1.545 -1.782   100.000   -1.546 2.151 2.716 3.319 3.450 0.294 0.306 0.384 0.680 16.29 267.50   0.5570 222.90 17.37 0 1 0   -1.343 -1.240 -1.678 -1.518   -1.519   -1.446 -1.368 -1.855 -1.582   -1.583 1.5610       5.454 5.454 0.000
VANMET_231 2018-01-20 10:10:00 231 11739.0   -1.500 -1.392 -1.651 -1.820   100.000   -1.652 2.153 2.717 3.319 3.450 0.294 0.306 0.384 0.680 13.28 268.00   0.6520 230.80 11.90 0 1 0   -1.453 -1.351 -1.767 -1.595   -1.596   -1.559 -1.426 -1.868 -1.698   -1.699 1.5880       5.412 5.411 -0.000
VANMET_231 2018-01-20 10:05:00 231 11739.0   -1.548 -1.457 -1.701 -1.845   100.000   -1.702 2.155 2.719 3.320 3.449 0.294 0.306 0.384 0.680 12.05 268.50   0.6980 201.30 17.01 0 1 0   -1.523 -1.434 -1.785 -1.671   -1.672   -1.599 -1.473 -1.924 -1.731   -1.732 1.8690       5.392 5.391 0.000
VANMET_231 2018-01-20 10:00:00 231 11739.0   -1.608 -1.519 -1.770 -1.844   100.000   -1.771 2.156 2.720 3.320 3.450 0.294 0.306 0.384 0.680 11.30 268.50   0.5800 212.20 15.75 0 1 0   -1.550 -1.472 -1.803 -1.727   -1.728   -1.666 -1.575 -1.923 -1.810   -1.811 1.3260       5.364 5.364 0.000
VANMET_231 2018-01-20 09:55:00 231 11739.0   -1.707 -1.606 -1.839 -1.904   100.000   -1.840 2.158 2.722 3.320 3.450 0.294 0.306 0.384 0.680 9.49 268.50   0.7310 228.50 15.84 0 1 0   -1.666 -1.575 -1.871 -1.810   -1.811   -1.735 -1.620 -1.943 -1.863   -1.864 1.2090       5.337 5.337 0.000
VANMET_231 2018-01-20 09:50:00 231 11739.0   -1.759 -1.635 -1.880 -1.924   100.000   -1.881 2.159 2.723 3.320 3.450 0.294 0.306 0.384 0.680 7.33 268.50   0.5640 218.00 21.95 0 1 0   -1.740 -1.617 -1.877 -1.856   -1.858   -1.790 -1.646 -1.959 -1.903   -1.904 1.0260       5.321 5.321 0.000
VANMET_231 2018-01-20 09:45:00 231 11739.0   -1.753 -1.654 -1.888 -1.940   100.000   -1.889 2.161 2.725 3.321 3.449 0.294 0.306 0.384 0.680 8.07 268.50   0.6970 222.30 14.72 0 1 0   -1.745 -1.647 -1.864 -1.863   -1.865   -1.767 -1.660 -1.986 -1.910   -1.911 1.2090       5.318 5.317 0.000
VANMET_231 2018-01-20 09:40:00 231 11739.0   -1.799 -1.715 -1.929 -1.943   100.000   -1.931 2.163 2.726 3.320 3.449 0.294 0.306 0.384 0.680 8.30 270.50   0.6310 217.30 20.18 0 1 0   -1.768 -1.662 -1.876 -1.897   -1.898   -1.821 -1.749 -2.030 -1.956   -1.957 1.5290       5.302 5.301 -0.000
VANMET_231 2018-01-20 09:35:00 231 11739.0   -1.832 -1.742 -1.954 -2.021   100.000   -1.955 2.164 2.728 3.321 3.449 0.294 0.306 0.384 0.680 7.52 273.00   0.7170 218.00 15.73 0 1 0   -1.820 -1.731 -1.989 -1.936   -1.937   -1.844 -1.755 -2.040 -1.983   -1.984 1.2280       5.292 5.292 0.000
VANMET_231 2018-01-20 09:30:00 231 11739.0   -1.863 -1.753 -1.971 -2.019   100.000   -1.972 2.165 2.729 3.321 3.449 0.294 0.306 0.384 0.680 7.12 274.50   0.4070 234.00 18.67 0 1 0   -1.837 -1.732 -1.972 -1.943   -1.944   -1.883 -1.766 -2.060 -1.986   -1.987 1.0000       5.285 5.285 0.000
VANMET_231 2018-01-20 09:25:00 231 11739.0   -1.895 -1.756 -1.986 -2.015   100.000   -1.987 2.167 2.731 3.321 3.449 0.294 0.306 0.384 0.680 5.46 275.00   0.1960 217.60 6.17 0 1 0   -1.882 -1.750 -1.958 -1.969   -1.970   -1.914 -1.762 -2.078 -1.999   -2.000 0.7120       5.279 5.279 0.000
VANMET_231 2018-01-20 09:20:00 231 11739.0   -1.867 -1.756 -1.989 -2.017   100.000   -1.990 2.169 2.732 3.322 3.449 0.294 0.306 0.385 0.680 5.66 275.50   0.1880 202.90 0.01 0 1 0   -1.852 -1.750 -1.982 -1.959   -1.960   -1.892 -1.763 -2.077 -2.019   -2.020 0.4250       5.278 5.278 0.000
VANMET_231 2018-01-20 09:15:00 231 11739.0   -1.890 -1.803 -2.042 -2.078   100.000   -2.043 2.170 2.734 3.322 3.448 0.294 0.306 0.385 0.680 6.61 275.50   0.1710 212.80 8.47 0 1 0   -1.859 -1.755 -2.002 -2.006   -2.007   -1.919 -1.845 -2.125 -2.082   -2.084 0.5680       5.258 5.257 0.000
VANMET_231 2018-01-20 09:10:00 231 11739.0   -1.921 -1.832 -2.095 -2.126   100.000   -2.096 2.172 2.735 3.322 3.448 0.294 0.306 0.385 0.680 6.67 275.50   0.4820 220.80 4.20 0 1 0   -1.914 -1.818 -2.046 -2.066   -2.067   -1.932 -1.851 -2.195 -2.126   -2.127 1.0650       5.237 5.237 0.000
VANMET_231 2018-01-20 09:05:00 231 11739.0   -1.938 -1.821 -2.144 -2.136   100.000   -2.145 2.173 2.737 3.323 3.448 0.294 0.306 0.385 0.680 6.57 275.50   0.2860 225.60 0.02 0 1 0   -1.922 -1.809 -2.057 -2.112   -2.114   -1.952 -1.843 -2.191 -2.185   -2.187 0.6400       5.218 5.218 0.000
VANMET_231 2018-01-20 09:00:00 231 11739.0   -1.977 -1.872 -2.210 -2.104   100.000   -2.211 2.175 2.738 3.323 3.448 0.294 0.306 0.385 0.680 6.51 275.50   0.0000 0.00 0.00 0 1 0   -1.952 -1.847 -2.074 -2.175   -2.176   -2.033 -1.921 -2.132 -2.258   -2.260 0.0000       5.193 5.192 0.000
VANMET_231 2018-01-20 08:55:00 231 11739.0   -2.074 -1.983 -2.292 -2.142   100.000   -2.293 2.177 2.740 3.323 3.447 0.294 0.306 0.385 0.680 6.80 275.50   0.4840 225.90 5.77 0 1 0   -2.032 -1.930 -2.030 -2.245   -2.246   -2.101 -2.011 -2.213 -2.325   -2.326 1.1040       5.161 5.161 -0.000
VANMET_231 2018-01-20 08:50:00 231 11739.0   -2.097 -2.006 -2.335 -2.148   100.000   -2.336 2.178 2.741 3.323 3.447 0.294 0.306 0.385 0.680 4.48 274.50   0.7780 232.70 8.65 0 1 0   -2.091 -1.997 -2.082 -2.315   -2.316   -2.102 -2.015 -2.198 -2.351   -2.353 1.4770       5.145 5.144 0.000
VANMET_231 2018-01-20 08:45:00 231 11739.0   -2.132 -2.029 -2.378 -2.143   100.000   -2.379 2.179 2.743 3.323 3.447 0.294 0.306 0.385 0.680 4.76 272.50   0.2500 230.40 13.60 0 1 0   -2.096 -1.998 -2.112 -2.332   -2.333   -2.183 -2.080 -2.207 -2.411   -2.413 0.6400       5.128 5.128 0.000
VANMET_231 2018-01-20 08:40:00 231 11739.0   -2.238 -2.120 -2.454 -2.230   100.000   -2.456 2.181 2.744 3.323 3.447 0.294 0.306 0.385 0.680 5.78 272.00   0.5890 221.00 12.77 0 1 0   -2.188 -2.085 -2.202 -2.421   -2.422   -2.283 -2.157 -2.259 -2.488   -2.489 0.9280       5.099 5.099 0.000
VANMET_231 2018-01-20 08:35:00 231 11739.0   -2.321 -2.200 -2.510 -2.241   100.000   -2.511 2.183 2.746 3.324 3.447 0.294 0.306 0.385 0.680 3.71 272.00   0.7600 217.70 22.81 0 1 0   -2.291 -2.162 -2.206 -2.481   -2.482   -2.338 -2.228 -2.276 -2.537   -2.539 1.7050       5.078 5.078 0.000
VANMET_231 2018-01-20 08:30:00 231 11739.0   -2.334 -2.224 -2.531 -2.285   100.000   -2.532 2.184 2.748 3.324 3.446 0.294 0.306 0.385 0.680 2.04 271.50   0.5880 234.30 30.22 0 1 0   -2.324 -2.215 -2.233 -2.517   -2.519   -2.342 -2.234 -2.336 -2.541   -2.542 1.7900       5.070 5.070 0.000
VANMET_231 2018-01-20 08:25:00 231 11739.0   -2.344 -2.230 -2.537 -2.248   100.000   -2.539 2.185 2.748 3.324 3.446 0.294 0.306 0.385 0.680 1.70 271.50   0.5400 232.60 17.23 0 1 0   -2.331 -2.219 -2.216 -2.517   -2.519   -2.363 -2.251 -2.279 -2.551   -2.552 0.9210       5.068 5.067 0.000
VANMET_231 2018-01-20 08:20:00 231 11739.0   -2.369 -2.255 -2.535 -2.306   100.000   -2.536 2.188 2.750 3.325 3.446 0.294 0.306 0.385 0.680 1.65 271.50   0.5750 231.70 2.05 0 1 0   -2.364 -2.251 -2.287 -2.521   -2.522   -2.373 -2.257 -2.329 -2.551   -2.552 0.8430       5.069 5.068 0.000
VANMET_231 2018-01-20 08:15:00 231 11739.0   -2.359 -2.243 -2.516 -2.328   100.000   -2.518 2.189 2.752 3.325 3.446 0.294 0.307 0.385 0.680 1.45 271.50   0.7890 227.30 12.70 0 1 0   -2.342 -2.228 -2.301 -2.501   -2.503   -2.373 -2.259 -2.359 -2.541   -2.542 1.1690       5.076 5.075 0.000
VANMET_231 2018-01-20 08:10:00 231 11739.0   -2.332 -2.214 -2.519 -2.266   100.000   -2.520 2.191 2.753 3.325 3.446 0.294 0.307 0.385 0.680 1.59 271.00   0.8300 220.20 7.59 0 1 0   -2.324 -2.205 -2.211 -2.501   -2.503   -2.340 -2.227 -2.338 -2.534   -2.536 1.6790       5.075 5.074 0.000
VANMET_231 2018-01-20 08:05:00 231 11739.0   -2.332 -2.214 -2.515 -2.280   100.000   -2.517 2.192 2.755 3.326 3.445 0.294 0.307 0.385 0.680 1.33 270.50   0.7040 229.70 15.99 0 1 0   -2.323 -2.201 -2.254 -2.501   -2.502   -2.338 -2.221 -2.313 -2.524   -2.526 1.1830       5.076 5.076 0.000
VANMET_231 2018-01-20 08:00:00 231 11739.0   -2.316 -2.194 -2.522 -2.240   100.000   -2.523 2.194 2.756 3.325 3.445 0.294 0.307 0.385 0.680 1.07 270.00   0.5940 217.60 1.48 0 1 0   -2.309 -2.188 -2.177 -2.508   -2.509   -2.322 -2.200 -2.285 -2.541   -2.542 1.2020       5.074 5.073 0.000
VANMET_231 2018-01-20 07:55:00 231 11739.0   -2.325 -2.204 -2.532 -2.212   100.000   -2.534 2.195 2.758 3.326 3.445 0.294 0.307 0.385 0.681 0.95 270.00   0.5570 218.20 16.02 0 1 0   -2.315 -2.195 -2.164 -2.515   -2.516   -2.329 -2.209 -2.264 -2.545   -2.546 1.2670       5.070 5.069 0.000
VANMET_231 2018-01-20 07:50:00 231 11739.0   -2.348 -2.228 -2.545 -2.201   100.000   -2.547 2.197 2.760 3.326 3.445 0.294 0.307 0.385 0.681 0.63 269.50   0.5470 252.90 25.35 0 1 0   -2.332 -2.211 -2.151 -2.531   -2.533   -2.369 -2.249 -2.247 -2.568   -2.569 1.1690       5.065 5.064 0.000
VANMET_231 2018-01-20 07:45:00 231 11739.0   -2.363 -2.250 -2.542 -2.282   100.000   -2.543 2.198 2.761 3.326 3.445 0.294 0.307 0.385 0.681 0.40 269.50   0.8220 232.90 11.75 0 1 0   -2.343 -2.223 -2.208 -2.518   -2.519   -2.374 -2.262 -2.340 -2.558   -2.559 1.7440       5.066 5.066 0.000
VANMET_231 2018-01-20 07:40:00 231 11739.0   -2.334 -2.217 -2.528 -2.226   100.000   -2.530 2.200 2.763 3.326 3.444 0.294 0.307 0.385 0.681 0.25 270.00   0.8460 230.30 26.62 0 1 0   -2.326 -2.213 -2.179 -2.514   -2.516   -2.340 -2.221 -2.287 -2.541   -2.542 1.6070       5.071 5.071 0.000
VANMET_231 2018-01-20 07:35:00 231 11739.0   -2.328 -2.208 -2.521 -2.200   100.000   -2.522 2.202 2.764 3.326 3.444 0.294 0.307 0.385 0.681 0.16 270.00   0.5840 230.80 0.98 0 1 0   -2.324 -2.205 -2.160 -2.508   -2.509   -2.333 -2.214 -2.242 -2.534   -2.536 0.9730       5.074 5.074 0.000
VANMET_231 2018-01-20 07:30:00 231 11739.0   -2.326 -2.207 -2.526 -2.216   100.000   -2.527 2.203 2.766 3.326 3.443 0.294 0.307 0.385 0.681 0.07 270.00   0.5940 230.60 0.03 0 1 0   -2.322 -2.202 -2.146 -2.514   -2.516   -2.333 -2.214 -2.247 -2.538   -2.539 0.9020       5.072 5.072 0.000
VANMET_231 2018-01-20 07:25:00 231 11739.0   -2.338 -2.216 -2.532 -2.204   100.000   -2.533 2.205 2.767 3.327 3.443 0.294 0.307 0.385 0.681 0.05 270.00   0.6370 231.50 6.47 0 1 0   -2.324 -2.209 -2.146 -2.518   -2.519   -2.345 -2.220 -2.224 -2.544   -2.546 1.1500       5.070 5.070 0.000
VANMET_231 2018-01-20 07:20:00 231 11739.0   -2.355 -2.234 -2.532 -2.222   100.000   -2.533 2.206 2.769 3.327 3.443 0.294 0.307 0.385 0.681 0.01 270.00   0.6810 237.60 8.35 0 1 0   -2.347 -2.222 -2.184 -2.517   -2.519   -2.360 -2.242 -2.295 -2.551   -2.552 0.9080       5.070 5.070 0.000
VANMET_231 2018-01-20 07:15:00 231 11739.0   -2.330 -2.205 -2.515 -2.246   100.000   -2.516 2.208 2.771 3.327 3.443 0.294 0.307 0.385 0.681 0.00 270.00   0.7100 226.50 6.52 0 1 0   -2.314 -2.187 -2.177 -2.501   -2.503   -2.352 -2.232 -2.295 -2.531   -2.532 1.0000       5.076 5.076 0.000
VANMET_231 2018-01-20 07:10:00 231 11739.0   -2.316 -2.191 -2.516 -2.183   100.000   -2.518 2.210 2.772 3.327 3.442 0.294 0.307 0.385 0.681 0.00 270.00   0.5500 226.40 10.80 0 1 0   -2.311 -2.186 -2.142 -2.501   -2.503   -2.319 -2.197 -2.222 -2.531   -2.533 0.8620       5.076 5.075 0.000
VANMET_231 2018-01-20 07:05:00 231 11739.0   -2.323 -2.196 -2.519 -2.200   100.000   -2.521 2.211 2.773 3.328 3.443 0.294 0.307 0.385 0.681 0.00 270.00   0.7150 238.50 12.82 0 1 0   -2.316 -2.184 -2.172 -2.508   -2.509   -2.325 -2.200 -2.234 -2.534   -2.536 1.4770       5.075 5.074 0.000
VANMET_231 2018-01-20 07:00:00 231 11739.0   -2.330 -2.197 -2.528 -2.165   100.000   -2.529 2.213 2.775 3.328 3.442 0.295 0.307 0.385 0.681 0.00 270.00   0.5610 243.70 19.42 0 1 0   -2.316 -2.183 -2.138 -2.514   -2.516   -2.342 -2.211 -2.191 -2.551   -2.552 0.8750       5.071 5.071 0.000
VANMET_231 2018-01-20 06:55:00 231 11739.0   -2.356 -2.227 -2.547 -2.201   100.000   -2.549 2.215 2.776 3.328 3.442 0.295 0.307 0.385 0.681 0.00 270.00   0.7200 238.90 17.48 0 1 0   -2.342 -2.211 -2.141 -2.524   -2.526   -2.365 -2.239 -2.261 -2.561   -2.562 1.1370       5.064 5.063 0.000
VANMET_231 2018-01-20 06:50:00 231 11739.0   -2.346 -2.220 -2.539 -2.233   100.000   -2.541 2.216 2.778 3.328 3.442 0.295 0.307 0.385 0.681 0.00 270.00   0.7880 228.60 9.77 0 1 0   -2.338 -2.214 -2.198 -2.524   -2.526   -2.361 -2.238 -2.281 -2.554   -2.556 1.8490       5.067 5.066 0.000
VANMET_231 2018-01-20 06:45:00 231 11739.0   -2.348 -2.218 -2.548 -2.205   100.000   -2.549 2.218 2.780 3.328 3.442 0.295 0.307 0.385 0.681 0.00 270.00   0.3370 218.60 11.45 0 1 0   -2.343 -2.215 -2.162 -2.534   -2.536   -2.352 -2.221 -2.233 -2.564   -2.566 0.9870       5.064 5.063 0.000
VANMET_231 2018-01-20 06:40:00 231 11739.0   -2.367 -2.236 -2.561 -2.199   100.000   -2.563 2.220 2.781 3.328 3.442 0.295 0.307 0.385 0.681 0.00 268.00   0.1950 230.10 5.33 0 1 0   -2.356 -2.224 -2.156 -2.548   -2.549   -2.382 -2.252 -2.220 -2.581   -2.582 0.8360       5.059 5.058 0.000
VANMET_231 2018-01-20 06:35:00 231 11739.0   -2.388 -2.262 -2.561 -2.253   100.000   -2.563 2.221 2.782 3.328 3.442 0.295 0.307 0.385 0.681 0.00 266.00   0.6300 227.20 5.95 0 1 0   -2.382 -2.255 -2.197 -2.551   -2.553   -2.388 -2.265 -2.277 -2.581   -2.583 1.0390       5.059 5.058 0.000
VANMET_231 2018-01-20 06:30:00 231 11739.0   -2.372 -2.251 -2.550 -2.276   100.000   -2.551 2.223 2.784 3.329 3.441 0.295 0.307 0.385 0.681 0.00 266.00   0.8930 226.20 10.62 0 1 0   -2.362 -2.237 -2.247 -2.535   -2.536   -2.387 -2.265 -2.309 -2.564   -2.566 2.0510       5.063 5.063 0.000
VANMET_231 2018-01-20 06:25:00 231 11739.0   -2.347 -2.220 -2.545 -2.238   100.000   -2.547 2.224 2.786 3.328 3.441 0.295 0.307 0.385 0.681 0.00 266.00   0.8640 233.90 15.79 0 1 0   -2.344 -2.214 -2.196 -2.534   -2.536   -2.358 -2.236 -2.292 -2.558   -2.559 1.5750       5.065 5.064 0.000
VANMET_231 2018-01-20 06:20:00 231 11739.0   -2.356 -2.228 -2.550 -2.205   100.000   -2.552 2.226 2.788 3.329 3.441 0.295 0.307 0.385 0.681 0.00 266.00   0.6210 227.60 12.16 0 1 0   -2.347 -2.215 -2.160 -2.538   -2.539   -2.363 -2.234 -2.239 -2.564   -2.566 1.0320       5.063 5.062 0.000
VANMET_231 2018-01-20 06:15:00 231 11739.0   -2.366 -2.242 -2.555 -2.230   100.000   -2.556 2.228 2.789 3.329 3.441 0.295 0.307 0.385 0.681 0.00 265.50   0.5920 230.80 11.17 0 1 0   -2.363 -2.236 -2.201 -2.541   -2.542   -2.370 -2.246 -2.251 -2.568   -2.569 0.8430       5.061 5.061 0.000
VANMET_231 2018-01-20 06:10:00 231 11739.0   -2.368 -2.245 -2.559 -2.241   100.000   -2.560 2.229 2.791 3.330 3.440 0.295 0.307 0.385 0.681 0.00 265.00   0.3920 229.20 18.27 0 1 0   -2.365 -2.241 -2.214 -2.541   -2.542   -2.370 -2.247 -2.269 -2.571   -2.572 0.9080       5.060 5.059 0.000
VANMET_231 2018-01-20 06:05:00 231 11739.0   -2.366 -2.241 -2.570 -2.231   100.000   -2.571 2.231 2.792 3.330 3.440 0.295 0.307 0.385 0.682 0.00 265.00   0.5790 213.90 25.52 0 1 0   -2.363 -2.238 -2.207 -2.557   -2.559   -2.373 -2.247 -2.247 -2.578   -2.579 1.3980       5.056 5.055 0.000
VANMET_231 2018-01-20 06:00:00 231 11739.0   -2.382 -2.254 -2.582 -2.228   100.000   -2.584 2.232 2.794 3.330 3.440 0.295 0.307 0.385 0.682 0.00 265.00   0.6740 234.10 6.53 0 1 0   -2.373 -2.247 -2.182 -2.571   -2.572   -2.397 -2.268 -2.259 -2.594   -2.596 1.0710       5.051 5.050 0.000
VANMET_231 2018-01-20 05:55:00 231 11739.0   -2.406 -2.277 -2.589 -2.248   100.000   -2.591 2.234 2.795 3.329 3.439 0.295 0.307 0.385 0.682 0.00 265.00   0.4040 224.00 14.67 0 1 0   -2.397 -2.268 -2.206 -2.581   -2.582   -2.414 -2.288 -2.294 -2.608   -2.609 1.0580       5.048 5.048 0.000
VANMET_231 2018-01-20 05:50:00 231 11739.0   -2.404 -2.279 -2.579 -2.297   100.000   -2.581 2.236 2.797 3.330 3.439 0.295 0.307 0.385 0.682 0.00 265.50   0.0000 0.00 0.00 0 1 0   -2.394 -2.272 -2.273 -2.558   -2.559   -2.414 -2.288 -2.324 -2.598   -2.599 0.0000       5.052 5.051 0.000
VANMET_231 2018-01-20 05:45:00 231 11739.0   -2.381 -2.253 -2.564 -2.270   100.000   -2.565 2.238 2.798 3.331 3.440 0.295 0.307 0.385 0.682 0.00 266.00   0.0000 0.00 0.00 0 1 0   -2.368 -2.241 -2.229 -2.548   -2.549   -2.394 -2.269 -2.313 -2.581   -2.583 0.0000       5.058 5.057 0.000
VANMET_231 2018-01-20 05:40:00 231 11739.0   -2.376 -2.251 -2.565 -2.219   100.000   -2.567 2.239 2.800 3.330 3.439 0.295 0.307 0.385 0.682 0.00 266.00   0.0000 0.00 0.00 0 1 0   -2.368 -2.240 -2.174 -2.551   -2.553   -2.389 -2.269 -2.265 -2.588   -2.589 0.0000       5.057 5.057 0.000
VANMET_231 2018-01-20 05:35:00 231 11739.0   -2.374 -2.258 -2.549 -2.287   100.000   -2.551 2.241 2.801 3.331 3.439 0.295 0.307 0.385 0.682 0.00 266.00   0.0000 0.00 0.00 0 1 0   -2.347 -2.230 -2.255 -2.528   -2.529   -2.389 -2.270 -2.332 -2.574   -2.576 0.0000       5.063 5.063 0.000
VANMET_231 2018-01-20 05:30:00 231 11739.0   -2.334 -2.213 -2.538 -2.229   100.000   -2.539 2.243 2.803 3.331 3.438 0.295 0.307 0.385 0.682 0.00 266.00   0.0000 0.00 0.00 0 1 0   -2.326 -2.202 -2.177 -2.524   -2.526   -2.343 -2.225 -2.269 -2.548   -2.549 0.0000       5.068 5.067 0.000
VANMET_231 2018-01-20 05:25:00 231 11739.0   -2.336 -2.212 -2.546 -2.196   100.000   -2.547 2.244 2.804 3.331 3.438 0.295 0.307 0.385 0.682 0.00 266.50   0.0000 0.00 0.00 0 1 0   -2.331 -2.205 -2.153 -2.528   -2.529   -2.344 -2.218 -2.219 -2.561   -2.563 0.0000       5.065 5.064 0.000
VANMET_231 2018-01-20 05:20:00 231 11739.0   -2.351 -2.226 -2.554 -2.204   100.000   -2.555 2.246 2.806 3.331 3.437 0.295 0.307 0.385 0.682 0.00 267.00   0.0000 0.00 0.00 0 1 0   -2.344 -2.218 -2.174 -2.541   -2.543   -2.358 -2.233 -2.242 -2.565   -2.566 0.0000       5.062 5.061 0.000
VANMET_231 2018-01-20 05:15:00 231 11739.0   -2.367 -2.242 -2.560 -2.225   100.000   -2.561 2.248 2.808 3.331 3.437 0.295 0.307 0.386 0.682 0.01 267.50   0.0000 0.00 0.00 0 1 0   -2.358 -2.232 -2.187 -2.541   -2.543   -2.373 -2.247 -2.263 -2.581   -2.583 0.0000       5.059 5.059 0.000
VANMET_231 2018-01-20 05:10:00 231 11739.0   -2.373 -2.243 -2.566 -2.253   100.000   -2.568 2.249 2.810 3.331 3.437 0.295 0.307 0.386 0.682 0.00 268.00   0.0000 0.00 0.00 0 1 0   -2.365 -2.232 -2.222 -2.541   -2.543   -2.378 -2.251 -2.286 -2.578   -2.579 0.0000       5.057 5.056 0.000
VANMET_231 2018-01-20 05:05:00 231 11739.0   -2.373 -2.246 -2.578 -2.216   100.000   -2.580 2.251 2.811 3.331 3.437 0.295 0.307 0.386 0.682 0.01 268.00   0.0000 0.00 0.00 0 1 0   -2.365 -2.233 -2.183 -2.558   -2.559   -2.385 -2.260 -2.240 -2.594   -2.596 0.0000       5.053 5.052 0.000
VANMET_231 2018-01-20 05:00:00 231 11739.0   -2.392 -2.271 -2.584 -2.266   100.000   -2.586 2.253 2.813 3.332 3.437 0.295 0.307 0.386 0.682 0.01 268.00   0.0000 0.00 0.00 0 1 0   -2.386 -2.261 -2.201 -2.568   -2.569   -2.399 -2.279 -2.314 -2.598   -2.599 0.0000       5.050 5.050 0.000
VANMET_231 2018-01-20 04:55:00 231 11739.0   -2.387 -2.261 -2.583 -2.246   100.000   -2.585 2.255 2.814 3.332 3.437 0.295 0.307 0.386 0.682 0.01 268.00   0.0000 0.00 0.00 0 1 0   -2.382 -2.255 -2.191 -2.568   -2.569   -2.398 -2.275 -2.278 -2.598   -2.599 0.0000       5.051 5.050 0.000
VANMET_231 2018-01-20 04:50:00 231 11739.0   -2.402 -2.282 -2.591 -2.274   100.000   -2.592 2.256 2.816 3.332 3.437 0.295 0.307 0.386 0.682 0.01 268.00   0.0000 0.00 0.00 0 1 0   -2.399 -2.276 -2.247 -2.578   -2.579   -2.404 -2.286 -2.313 -2.598   -2.599 0.0000       5.048 5.047 0.000
VANMET_231 2018-01-20 04:45:00 231 11739.0   -2.396 -2.273 -2.583 -2.278   100.000   -2.584 2.258 2.818 3.332 3.437 0.295 0.307 0.386 0.682 0.02 268.00   0.0000 0.00 0.00 0 1 0   -2.394 -2.271 -2.248 -2.568   -2.569   -2.400 -2.279 -2.313 -2.608   -2.609 0.0000       5.051 5.050 0.000
VANMET_231 2018-01-20 04:40:00 231 11739.0   -2.396 -2.271 -2.586 -2.272   100.000   -2.587 2.260 2.819 3.332 3.437 0.295 0.307 0.386 0.682 0.02 267.50   0.5100 239.00 11.44 0 1 0   -2.391 -2.263 -2.232 -2.568   -2.569   -2.399 -2.276 -2.326 -2.598   -2.599 1.5160       5.050 5.049 0.000
VANMET_231 2018-01-20 04:35:00 231 11739.0   -2.398 -2.273 -2.586 -2.248   100.000   -2.587 2.261 2.821 3.333 3.436 0.295 0.308 0.386 0.682 0.03 267.00   0.4370 232.10 6.57 0 1 0   -2.393 -2.266 -2.197 -2.575   -2.576   -2.409 -2.290 -2.278 -2.601   -2.603 0.9410       5.050 5.049 0.000
VANMET_231 2018-01-20 04:30:00 231 11739.0   -2.403 -2.286 -2.579 -2.302   100.000   -2.581 2.263 2.822 3.333 3.436 0.295 0.308 0.386 0.683 0.03 266.00   0.9370 239.30 17.18 0 1 0   -2.390 -2.275 -2.268 -2.555   -2.556   -2.412 -2.292 -2.340 -2.602   -2.603 1.8690       5.052 5.051 0.000
VANMET_231 2018-01-20 04:25:00 231 11739.0   -2.372 -2.254 -2.559 -2.282   100.000   -2.560 2.264 2.824 3.333 3.436 0.295 0.308 0.386 0.683 0.02 264.50   0.8040 228.80 13.43 0 1 0   -2.363 -2.243 -2.208 -2.545   -2.546   -2.389 -2.276 -2.343 -2.575   -2.576 1.2350       5.060 5.059 0.000
VANMET_231 2018-01-20 04:20:00 231 11739.0   -2.358 -2.235 -2.552 -2.249   100.000   -2.554 2.266 2.825 3.333 3.435 0.295 0.308 0.386 0.683 0.03 264.00   0.5680 238.60 24.08 0 1 0   -2.353 -2.225 -2.200 -2.545   -2.546   -2.365 -2.247 -2.293 -2.568   -2.570 1.1500       5.062 5.062 0.000
VANMET_231 2018-01-20 04:15:00 231 11739.0   -2.361 -2.233 -2.563 -2.217   100.000   -2.564 2.268 2.827 3.333 3.435 0.295 0.308 0.386 0.683 0.05 262.50   0.6270 233.10 8.89 0 1 0   -2.351 -2.222 -2.185 -2.541   -2.543   -2.369 -2.241 -2.252 -2.582   -2.583 1.4110       5.058 5.058 0.000
VANMET_231 2018-01-20 04:10:00 231 11739.0   -2.368 -2.243 -2.566 -2.249   100.000   -2.568 2.270 2.828 3.333 3.435 0.295 0.308 0.386 0.683 0.05 260.50   0.6660 223.30 7.12 0 1 0   -2.362 -2.232 -2.186 -2.548   -2.550   -2.371 -2.249 -2.299 -2.585   -2.586 1.1430       5.057 5.056 0.000
VANMET_231 2018-01-20 04:05:00 231 11739.0   -2.377 -2.248 -2.569 -2.212   100.000   -2.571 2.272 2.830 3.334 3.435 0.295 0.308 0.386 0.683 0.04 259.00   0.6070 241.10 15.89 0 1 0   -2.363 -2.230 -2.141 -2.558   -2.560   -2.385 -2.257 -2.259 -2.585   -2.586 1.3460       5.056 5.055 0.000
VANMET_231 2018-01-20 04:00:00 231 11739.0   -2.374 -2.245 -2.573 -2.260   100.000   -2.575 2.273 2.832 3.334 3.435 0.295 0.308 0.386 0.683 0.06 257.00   0.5880 234.70 15.51 0 1 0   -2.367 -2.236 -2.223 -2.562   -2.563   -2.385 -2.257 -2.300 -2.595   -2.597 1.2480       5.054 5.054 0.000
VANMET_231 2018-01-20 03:55:00 231 11739.0   -2.373 -2.243 -2.579 -2.223   100.000   -2.581 2.275 2.833 3.334 3.434 0.296 0.308 0.386 0.683 0.06 255.50   0.8550 241.90 18.81 0 1 0   -2.364 -2.236 -2.198 -2.562   -2.563   -2.384 -2.255 -2.278 -2.595   -2.596 1.5030       5.052 5.051 0.000
VANMET_231 2018-01-20 03:50:00 231 11739.0   -2.407 -2.279 -2.584 -2.247   100.000   -2.586 2.277 2.835 3.334 3.434 0.296 0.308 0.386 0.683 0.06 254.00   0.6170 232.20 11.40 0 1 0   -2.386 -2.257 -2.176 -2.568   -2.570   -2.415 -2.288 -2.308 -2.608   -2.610 1.0980       5.050 5.050 0.000
VANMET_231 2018-01-20 03:45:00 231 11739.0   -2.408 -2.286 -2.574 -2.294   100.000   -2.575 2.278 2.837 3.334 3.434 0.296 0.308 0.386 0.683 0.07 252.00   1.0170 231.00 19.00 0 1 0   -2.394 -2.270 -2.213 -2.555   -2.556   -2.415 -2.293 -2.333 -2.588   -2.590 1.8620       5.054 5.054 0.000
VANMET_231 2018-01-20 03:40:00 231 11739.0   -2.387 -2.266 -2.564 -2.268   100.000   -2.566 2.280 2.838 3.334 3.434 0.296 0.308 0.386 0.683 0.07 250.50   0.8800 211.70 26.05 0 1 0   -2.380 -2.259 -2.225 -2.552   -2.553   -2.394 -2.270 -2.294 -2.575   -2.576 1.7710       5.058 5.057 0.000
VANMET_231 2018-01-20 03:35:00 231 11739.0   -2.381 -2.256 -2.552 -2.246   100.000   -2.553 2.282 2.840 3.334 3.433 0.296 0.308 0.386 0.683 0.07 250.00   0.8470 223.10 28.27 0 1 0   -2.378 -2.252 -2.194 -2.532   -2.533   -2.384 -2.261 -2.276 -2.565   -2.567 1.3590       5.062 5.062 0.000
VANMET_231 2018-01-20 03:30:00 231 11739.0   -2.356 -2.233 -2.529 -2.277   100.000   -2.531 2.284 2.842 3.335 3.433 0.296 0.308 0.386 0.683 0.07 249.00   1.2720 224.50 12.46 0 1 0   -2.338 -2.209 -2.223 -2.515   -2.517   -2.378 -2.257 -2.322 -2.552   -2.553 1.9340       5.071 5.070 0.000
VANMET_231 2018-01-20 03:25:00 231 11739.0   -2.341 -2.212 -2.525 -2.199   100.000   -2.526 2.286 2.843 3.335 3.433 0.296 0.308 0.386 0.683 0.07 248.00   0.7650 225.10 12.62 0 1 0   -2.336 -2.205 -2.163 -2.509   -2.510   -2.353 -2.226 -2.240 -2.539   -2.540 1.2280       5.073 5.072 0.000
VANMET_231 2018-01-20 03:20:00 231 11739.0   -2.356 -2.230 -2.525 -2.234   100.000   -2.526 2.287 2.845 3.335 3.432 0.296 0.308 0.386 0.683 0.07 246.50   0.9980 224.30 16.99 0 1 0   -2.347 -2.220 -2.188 -2.509   -2.510   -2.360 -2.237 -2.279 -2.535   -2.537 2.3780       5.073 5.072 0.000
VANMET_231 2018-01-20 03:15:00 231 11739.0   -2.338 -2.210 -2.518 -2.224   100.000   -2.519 2.289 2.846 3.335 3.432 0.296 0.308 0.386 0.683 0.07 246.50   0.9960 232.30 18.21 0 1 0   -2.332 -2.202 -2.180 -2.502   -2.504   -2.346 -2.217 -2.269 -2.529   -2.530 1.5940       5.075 5.075 0.000
VANMET_231 2018-01-20 03:10:00 231 11739.0   -2.339 -2.217 -2.518 -2.219   100.000   -2.519 2.291 2.848 3.335 3.431 0.296 0.308 0.386 0.683 0.07 246.50   1.3490 234.50 22.90 0 1 0   -2.332 -2.213 -2.192 -2.502   -2.504   -2.347 -2.224 -2.262 -2.532   -2.534 2.4700       5.075 5.075 0.000
VANMET_231 2018-01-20 03:05:00 231 11739.0   -2.316 -2.199 -2.494 -2.235   100.000   -2.495 2.293 2.850 3.335 3.431 0.296 0.308 0.386 0.683 0.07 243.50   1.3400 226.80 20.23 0 1 0   -2.287 -2.159 -2.184 -2.469   -2.471   -2.334 -2.216 -2.270 -2.522   -2.524 2.5280       5.084 5.084 0.000
VANMET_231 2018-01-20 03:00:00 231 11739.0   -2.295 -2.165 -2.477 -2.139   100.000   -2.479 2.294 2.852 3.335 3.431 0.296 0.308 0.386 0.683 0.07 242.00   0.9920 238.50 17.04 0 1 0   -2.284 -2.152 -2.079 -2.466   -2.467   -2.314 -2.187 -2.206 -2.486   -2.487 1.7710       5.091 5.090 0.000
VANMET_231 2018-01-20 02:55:00 231 11739.0   -2.290 -2.167 -2.466 -2.200   100.000   -2.467 2.296 2.853 3.335 3.431 0.296 0.308 0.386 0.683 0.07 241.00   1.1690 240.30 15.04 0 1 0   -2.274 -2.151 -2.157 -2.456   -2.457   -2.311 -2.187 -2.233 -2.479   -2.481 1.9340       5.095 5.094 0.000
VANMET_231 2018-01-20 02:50:00 231 11739.0   -2.280 -2.151 -2.459 -2.130   100.000   -2.460 2.298 2.854 3.335 3.431 0.296 0.308 0.386 0.683 0.07 238.00   1.0030 230.00 18.20 0 1 0   -2.264 -2.134 -2.087 -2.443   -2.444   -2.298 -2.170 -2.205 -2.476   -2.477 1.8490       5.097 5.097 0.000
VANMET_231 2018-01-20 02:45:00 231 11739.0   -2.288 -2.161 -2.439 -2.173   100.000   -2.440 2.299 2.856 3.335 3.430 0.296 0.308 0.386 0.683 0.08 237.00   1.2760 233.40 19.77 0 1 0   -2.270 -2.140 -2.125 -2.416   -2.418   -2.305 -2.175 -2.211 -2.466   -2.467 2.2930       5.105 5.105 0.000
VANMET_231 2018-01-20 02:40:00 231 11739.0   -2.248 -2.122 -2.402 -2.147   100.000   -2.403 2.301 2.858 3.335 3.430 0.296 0.308 0.386 0.683 0.07 236.00   1.2180 225.40 29.76 0 1 0   -2.229 -2.103 -2.123 -2.380   -2.381   -2.269 -2.140 -2.174 -2.429   -2.431 1.9860       5.119 5.119 0.000
VANMET_231 2018-01-20 02:35:00 231 11739.0   -2.222 -2.094 -2.378 -2.116   100.000   -2.379 2.304 2.860 3.336 3.430 0.296 0.308 0.386 0.683 0.07 236.00   0.8850 218.80 26.50 0 1 0   -2.212 -2.085 -2.082 -2.356   -2.358   -2.228 -2.103 -2.139 -2.403   -2.404 1.7900       5.128 5.128 0.000
VANMET_231 2018-01-20 02:30:00 231 11739.0   -2.195 -2.068 -2.345 -2.101   100.000   -2.346 2.305 2.861 3.335 3.430 0.296 0.308 0.386 0.683 0.07 236.00   1.2260 223.80 30.75 0 1 0   -2.163 -2.039 -2.068 -2.320   -2.321   -2.212 -2.087 -2.129 -2.369   -2.371 2.5810       5.141 5.140 0.000
VANMET_231 2018-01-20 02:25:00 231 11739.0   -2.148 -2.029 -2.312 -2.056   100.000   -2.313 2.307 2.863 3.336 3.429 0.296 0.308 0.386 0.683 0.06 232.00   1.1840 220.90 26.61 0 1 0   -2.125 -2.009 -2.033 -2.290   -2.291   -2.160 -2.038 -2.105 -2.326   -2.328 3.2010       5.153 5.153 -0.000
VANMET_231 2018-01-20 02:20:00 231 11739.0   -2.115 -1.989 -2.288 -1.988   100.000   -2.289 2.309 2.865 3.336 3.429 0.296 0.308 0.386 0.683 0.06 227.00   1.3250 232.30 19.90 0 1 0   -2.109 -1.980 -1.949 -2.276   -2.278   -2.120 -2.005 -2.051 -2.303   -2.304 2.3910       5.163 5.162 0.000
VANMET_231 2018-01-20 02:15:00 231 11739.0   -2.108 -1.986 -2.263 -2.011   100.000   -2.264 2.310 2.867 3.336 3.429 0.296 0.308 0.386 0.683 0.04 227.00   1.0870 239.10 22.87 0 1 0   -2.091 -1.964 -1.956 -2.240   -2.241   -2.120 -1.996 -2.041 -2.283   -2.284 2.2930       5.172 5.172 -0.000
VANMET_231 2018-01-20 02:10:00 231 11739.0   -2.082 -1.953 -2.243 -1.950   100.000   -2.245 2.312 2.868 3.336 3.429 0.296 0.308 0.386 0.683 0.03 226.00   1.2130 234.90 27.95 0 1 0   -2.077 -1.946 -1.882 -2.230   -2.231   -2.090 -1.959 -2.019 -2.257   -2.258 2.7510       5.180 5.179 0.000
VANMET_231 2018-01-20 02:05:00 231 11739.0   -2.055 -1.931 -2.223 -1.954   100.000   -2.224 2.314 2.870 3.336 3.429 0.296 0.308 0.386 0.683 0.02 225.00   1.2400 216.50 20.10 0 1 0   -2.038 -1.916 -1.902 -2.210   -2.211   -2.079 -1.954 -1.995 -2.244   -2.245 2.7570       5.188 5.187 0.000
VANMET_231 2018-01-20 02:00:00 231 11739.0   -2.029 -1.911 -2.204 -1.933   100.000   -2.205 2.316 2.872 3.337 3.428 0.296 0.308 0.386 0.683 0.01 225.00   0.9200 225.20 18.89 0 1 0   -2.010 -1.893 -1.892 -2.187   -2.188   -2.041 -1.920 -1.955 -2.214   -2.215 1.4310       5.195 5.194 0.000
VANMET_231 2018-01-20 01:55:00 231 11739.0   -1.995 -1.870 -2.194 -1.873   100.000   -2.195 2.318 2.873 3.337 3.428 0.296 0.308 0.386 0.683 0.00 223.00   1.1830 224.90 13.79 0 1 0   -1.984 -1.860 -1.824 -2.180   -2.182   -2.008 -1.888 -1.946 -2.207   -2.208 2.6460       5.199 5.198 0.000
VANMET_231 2018-01-20 01:50:00 231 11739.0   -2.021 -1.895 -2.193 -1.881   100.000   -2.195 2.320 2.875 3.337 3.428 0.296 0.308 0.386 0.683 0.00 220.00   0.7100 228.10 7.24 0 1 0   -2.009 -1.882 -1.829 -2.177   -2.178   -2.026 -1.900 -1.920 -2.207   -2.208 1.2220       5.199 5.198 -0.000
VANMET_231 2018-01-20 01:45:00 231 11739.0   -2.009 -1.882 -2.186 -1.892   100.000   -2.187 2.321 2.876 3.337 3.428 0.296 0.308 0.386 0.683 0.00 217.00   1.0250 236.20 19.04 0 1 0   -2.005 -1.874 -1.856 -2.174   -2.175   -2.018 -1.895 -1.929 -2.194   -2.195 1.7310       5.202 5.201 -0.000
VANMET_231 2018-01-20 01:40:00 231 11739.0   -2.007 -1.877 -2.180 -1.870   100.000   -2.181 2.323 2.878 3.337 3.428 0.296 0.308 0.386 0.683 0.00 219.00   0.7410 232.40 21.16 0 1 0   -2.002 -1.871 -1.826 -2.163   -2.165   -2.011 -1.883 -1.901 -2.197   -2.198 1.2670       5.204 5.204 0.000
VANMET_231 2018-01-20 01:35:00 231 11739.0   -2.001 -1.874 -2.171 -1.879   100.000   -2.172 2.325 2.880 3.337 3.428 0.296 0.308 0.387 0.683 0.00 219.00   0.8780 229.70 14.12 0 1 0   -1.993 -1.868 -1.823 -2.144   -2.145   -2.008 -1.881 -1.913 -2.187   -2.188 1.5220       5.208 5.207 0.000
VANMET_231 2018-01-20 01:30:00 231 11739.0   -1.974 -1.850 -2.162 -1.860   100.000   -2.163 2.327 2.882 3.337 3.427 0.296 0.308 0.387 0.683 0.00 220.00   1.0750 230.60 18.26 0 1 0   -1.965 -1.839 -1.791 -2.151   -2.152   -1.991 -1.867 -1.911 -2.177   -2.178 1.6990       5.211 5.211 0.000
VANMET_231 2018-01-20 01:25:00 231 11739.0   -1.961 -1.836 -2.165 -1.838   100.000   -2.166 2.329 2.883 3.337 3.427 0.296 0.309 0.387 0.683 0.00 219.00   0.8680 217.50 24.36 0 1 0   -1.954 -1.830 -1.790 -2.150   -2.152   -1.967 -1.844 -1.871 -2.184   -2.185 1.5680       5.210 5.210 0.000
VANMET_231 2018-01-20 01:20:00 231 11739.0   -1.971 -1.842 -2.172 -1.838   100.000   -2.173 2.330 2.885 3.337 3.426 0.296 0.309 0.387 0.683 0.00 220.00   0.7530 240.30 13.44 0 1 0   -1.967 -1.837 -1.814 -2.157   -2.158   -1.974 -1.845 -1.855 -2.184   -2.185 1.2020       5.207 5.207 0.000
VANMET_231 2018-01-20 01:15:00 231 11739.0   -1.979 -1.853 -2.179 -1.820   100.000   -2.180 2.333 2.887 3.337 3.426 0.296 0.309 0.387 0.684 0.00 219.00   0.8880 248.50 22.79 0 1 0   -1.969 -1.841 -1.782 -2.170   -2.172   -1.994 -1.868 -1.850 -2.187   -2.188 1.8360       5.205 5.204 0.000
VANMET_231 2018-01-20 01:10:00 231 11739.0   -1.999 -1.873 -2.183 -1.869   100.000   -2.184 2.334 2.889 3.338 3.426 0.297 0.309 0.387 0.684 0.01 219.00   1.1090 230.20 19.52 0 1 0   -1.995 -1.869 -1.839 -2.164   -2.165   -2.001 -1.876 -1.890 -2.194   -2.195 2.0250       5.203 5.203 0.000
VANMET_231 2018-01-20 01:05:00 231 11739.0   -1.995 -1.867 -2.173 -1.877   100.000   -2.174 2.336 2.890 3.338 3.426 0.297 0.309 0.387 0.684 0.01 219.00   0.8940 222.60 12.81 0 1 0   -1.986 -1.858 -1.854 -2.151   -2.152   -2.001 -1.872 -1.903 -2.194   -2.195 1.4500       5.207 5.206 0.000
VANMET_231 2018-01-20 01:00:00 231 11739.0   -1.983 -1.858 -2.171 -1.850   100.000   -2.172 2.339 2.892 3.338 3.426 0.296 0.309 0.387 0.684 0.00 219.00   1.0910 221.70 21.59 0 1 0   -1.979 -1.855 -1.830 -2.157   -2.159   -1.986 -1.863 -1.887 -2.187   -2.188 2.3260       5.208 5.207 0.000
VANMET_231 2018-01-20 00:55:00 231 11739.0   -1.983 -1.857 -2.170 -1.846   100.000   -2.171 2.340 2.894 3.338 3.426 0.297 0.309 0.387 0.684 0.00 219.00   0.8860 226.10 16.21 0 1 0   -1.979 -1.853 -1.833 -2.154   -2.155   -1.988 -1.860 -1.862 -2.184   -2.185 1.3460       5.208 5.208 0.000
VANMET_231 2018-01-20 00:50:00 231 11739.0   -1.986 -1.862 -2.165 -1.854   100.000   -2.166 2.342 2.896 3.338 3.426 0.297 0.309 0.387 0.684 0.01 219.00   0.9970 238.90 21.43 0 1 0   -1.978 -1.851 -1.812 -2.144   -2.145   -1.991 -1.868 -1.892 -2.181   -2.182 2.3060       5.210 5.210 0.000
VANMET_231 2018-01-20 00:45:00 231 11739.0   -1.982 -1.857 -2.158 -1.854   100.000   -2.159 2.344 2.898 3.339 3.425 0.297 0.309 0.387 0.684 0.00 219.00   0.7090 232.50 13.32 0 1 0   -1.974 -1.853 -1.833 -2.141   -2.142   -1.986 -1.862 -1.892 -2.171   -2.172 1.1370       5.213 5.212 -0.000
VANMET_231 2018-01-20 00:40:00 231 11739.0   -1.953 -1.827 -2.152 -1.836   100.000   -2.153 2.346 2.899 3.338 3.425 0.297 0.309 0.387 0.684 0.00 217.50   1.0060 256.20 39.61 0 1 0   -1.949 -1.821 -1.798 -2.137   -2.139   -1.971 -1.850 -1.905 -2.170   -2.172 1.7970       5.215 5.215 0.000
VANMET_231 2018-01-20 00:35:00 231 11739.0   -1.955 -1.827 -2.158 -1.817   100.000   -2.159 2.348 2.901 3.339 3.425 0.297 0.309 0.387 0.684 0.00 216.00   0.6320 228.00 18.26 0 1 0   -1.951 -1.825 -1.790 -2.144   -2.145   -1.959 -1.831 -1.844 -2.170   -2.172 1.1300       5.213 5.212 -0.000
VANMET_231 2018-01-20 00:30:00 231 11739.0   -1.973 -1.843 -2.166 -1.813   100.000   -2.167 2.350 2.902 3.339 3.425 0.297 0.309 0.387 0.684 0.00 211.00   0.7420 232.60 14.01 0 1 0   -1.958 -1.831 -1.781 -2.137   -2.138   -1.984 -1.850 -1.852 -2.177   -2.178 1.2220       5.210 5.209 0.000
VANMET_231 2018-01-20 00:25:00 231 11739.0   -1.994 -1.862 -2.166 -1.847   100.000   -2.167 2.351 2.904 3.339 3.424 0.297 0.309 0.387 0.684 0.00 207.50   0.7340 237.00 21.37 0 1 0   -1.984 -1.853 -1.812 -2.153   -2.155   -1.998 -1.869 -1.868 -2.180   -2.181 1.0980       5.210 5.209 0.000
VANMET_231 2018-01-20 00:20:00 231 11739.0   -1.994 -1.865 -2.164 -1.862   100.000   -2.166 2.354 2.906 3.339 3.424 0.297 0.309 0.387 0.684 0.00 207.50   0.7340 238.60 18.18 0 1 0   -1.991 -1.862 -1.838 -2.154   -2.155   -1.998 -1.868 -1.880 -2.177   -2.178 1.2740       5.210 5.210 0.000
VANMET_231 2018-01-20 00:15:00 231 11739.0   -1.983 -1.859 -2.157 -1.868   100.000   -2.158 2.356 2.908 3.339 3.423 0.297 0.309 0.387 0.684 0.00 211.00   1.0900 230.20 24.74 0 1 0   -1.970 -1.843 -1.833 -2.144   -2.145   -1.989 -1.868 -1.895 -2.170   -2.172 1.7770       5.213 5.213 0.000
VANMET_231 2018-01-20 00:10:00 231 11739.0   -1.973 -1.845 -2.146 -1.845   100.000   -2.147 2.357 2.909 3.339 3.423 0.297 0.309 0.387 0.684 0.00 214.00   0.8940 234.20 13.07 0 1 0   -1.965 -1.834 -1.793 -2.130   -2.132   -1.979 -1.854 -1.877 -2.164   -2.165 2.0190       5.217 5.217 0.000
VANMET_231 2018-01-20 00:05:00 231 11739.0   -1.966 -1.834 -2.144 -1.817   100.000   -2.145 2.359 2.911 3.339 3.423 0.297 0.309 0.387 0.684 0.00 214.00   0.9570 225.10 22.46 0 1 0   -1.959 -1.827 -1.781 -2.130   -2.132   -1.974 -1.843 -1.859 -2.154   -2.155 1.9600       5.218 5.218 0.000
VANMET_231 2018-01-20 00:00:00 231 11739.0   -1.972 -1.843 -2.144 -1.834   100.000   -2.145 2.361 2.913 3.339 3.423 0.297 0.309 0.387 0.684 0.00 214.00   0.7990 232.30 15.75 0 1 0   -1.969 -1.841 -1.804 -2.134   -2.135   -1.975 -1.846 -1.848 -2.157   -2.158 1.2940       5.218 5.218 0.000
VANMET_231 2018-01-19 23:55:00 231 11739.0   -1.965 -1.841 -2.140 -1.846   100.000   -2.141 2.363 2.915 3.339 3.423 0.297 0.309 0.387 0.684 0.00 209.50   1.1210 226.60 18.63 0 1 0   -1.958 -1.831 -1.810 -2.127   -2.128   -1.973 -1.849 -1.874 -2.154   -2.155 1.8750       5.220 5.219 0.000
VANMET_231 2018-01-19 23:50:00 231 11739.0   -1.961 -1.831 -2.140 -1.839   100.000   -2.141 2.365 2.917 3.339 3.422 0.297 0.309 0.387 0.684 0.00 211.00   0.7780 226.80 9.86 0 1 0   -1.959 -1.826 -1.814 -2.127   -2.128   -1.964 -1.832 -1.858 -2.154   -2.155 1.6460       5.220 5.219 0.000
VANMET_231 2018-01-19 23:45:00 231 11739.0   -1.961 -1.831 -2.141 -1.816   100.000   -2.143 2.367 2.918 3.339 3.422 0.297 0.309 0.387 0.684 0.00 211.00   1.1810 226.00 20.37 0 1 0   -1.957 -1.827 -1.767 -2.127   -2.128   -1.968 -1.841 -1.845 -2.154   -2.155 1.7840       5.219 5.218 0.000
VANMET_231 2018-01-19 23:40:00 231 11739.0   -1.959 -1.832 -2.142 -1.844   100.000   -2.144 2.369 2.920 3.339 3.422 0.297 0.309 0.387 0.684 0.00 211.00   0.9450 222.40 16.90 0 1 0   -1.954 -1.823 -1.818 -2.124   -2.125   -1.967 -1.842 -1.862 -2.160   -2.161 1.7180       5.219 5.218 0.000
VANMET_231 2018-01-19 23:35:00 231 11739.0   -1.955 -1.826 -2.145 -1.807   100.000   -2.146 2.371 2.922 3.339 3.422 0.297 0.309 0.387 0.684 0.00 211.00   0.7650 239.50 45.23 0 1 0   -1.951 -1.822 -1.763 -2.130   -2.131   -1.959 -1.829 -1.832 -2.160   -2.161 1.1040       5.218 5.217 0.000
VANMET_231 2018-01-19 23:30:00 231 11739.0   -1.963 -1.833 -2.151 -1.820   100.000   -2.152 2.373 2.923 3.339 3.422 0.297 0.309 0.387 0.684 0.01 211.00   0.6770 218.70 17.22 0 1 0   -1.957 -1.829 -1.799 -2.140   -2.142   -1.969 -1.838 -1.845 -2.163   -2.165 1.3460       5.215 5.215 0.000
VANMET_231 2018-01-19 23:25:00 231 11739.0   -1.966 -1.837 -2.150 -1.839   100.000   -2.152 2.375 2.925 3.339 3.421 0.297 0.309 0.387 0.684 0.01 211.00   0.7760 217.90 26.87 0 1 0   -1.963 -1.832 -1.817 -2.134   -2.135   -1.969 -1.841 -1.864 -2.160   -2.162 1.2810       5.216 5.215 0.000
VANMET_231 2018-01-19 23:20:00 231 11739.0   -1.974 -1.845 -2.151 -1.833   100.000   -2.152 2.377 2.928 3.339 3.421 0.297 0.309 0.387 0.684 0.02 210.00   0.7540 226.70 24.12 0 1 0   -1.966 -1.835 -1.801 -2.137   -2.138   -1.979 -1.851 -1.865 -2.167   -2.168 1.5220       5.215 5.215 0.000
VANMET_231 2018-01-19 23:15:00 231 11739.0   -1.962 -1.831 -2.144 -1.837   100.000   -2.146 2.379 2.929 3.339 3.421 0.297 0.309 0.387 0.684 0.01 210.00   0.9150 231.80 16.96 0 1 0   -1.957 -1.822 -1.810 -2.127   -2.128   -1.966 -1.840 -1.864 -2.157   -2.158 1.1500       5.218 5.217 0.000
VANMET_231 2018-01-19 23:10:00 231 11739.0   -1.968 -1.834 -2.161 -1.811   100.000   -2.162 2.380 2.931 3.339 3.420 0.297 0.309 0.387 0.684 0.03 210.00   0.8740 226.20 11.75 0 1 0   -1.959 -1.824 -1.794 -2.150   -2.152   -1.979 -1.846 -1.828 -2.177   -2.178 1.3980       5.211 5.211 0.000
VANMET_231 2018-01-19 23:05:00 231 11739.0   -1.993 -1.860 -2.170 -1.832   100.000   -2.172 2.383 2.933 3.340 3.420 0.297 0.309 0.387 0.684 0.05 210.00   0.7150 233.80 15.83 0 1 0   -1.979 -1.847 -1.808 -2.157   -2.158   -2.004 -1.872 -1.859 -2.184   -2.185 1.2870       5.208 5.207 0.000
VANMET_231 2018-01-19 23:00:00 231 11739.0   -2.000 -1.868 -2.167 -1.875   100.000   -2.168 2.385 2.935 3.340 3.420 0.297 0.309 0.387 0.684 0.05 209.50   1.4930 228.90 20.62 0 1 0   -1.992 -1.859 -1.863 -2.150   -2.152   -2.005 -1.873 -1.884 -2.180   -2.182 3.2080       5.209 5.209 -0.000
VANMET_231 2018-01-19 22:55:00 231 11739.0   -1.985 -1.853 -2.158 -1.843   100.000   -2.159 2.387 2.936 3.340 3.420 0.297 0.309 0.387 0.684 0.05 209.50   1.6290 242.60 25.26 0 1 0   -1.980 -1.847 -1.796 -2.147   -2.148   -1.991 -1.860 -1.867 -2.170   -2.171 3.1880       5.213 5.212 -0.000
VANMET_231 2018-01-19 22:50:00 231 11739.0   -1.981 -1.851 -2.153 -1.854   100.000   -2.155 2.389 2.938 3.340 3.420 0.297 0.309 0.387 0.684 0.04 209.50   1.2710 225.90 19.21 0 1 0   -1.973 -1.841 -1.821 -2.143   -2.145   -1.988 -1.861 -1.873 -2.167   -2.168 2.8620       5.215 5.214 0.000
VANMET_231 2018-01-19 22:45:00 231 11739.0   -1.974 -1.845 -2.147 -1.838   100.000   -2.148 2.390 2.939 3.340 3.420 0.297 0.309 0.387 0.684 0.04 210.00   1.3570 238.90 21.08 0 1 0   -1.970 -1.841 -1.826 -2.130   -2.132   -1.977 -1.850 -1.863 -2.163   -2.165 2.7960       5.217 5.216 0.000
VANMET_231 2018-01-19 22:40:00 231 11739.0   -1.961 -1.833 -2.129 -1.834   100.000   -2.130 2.393 2.941 3.340 3.419 0.297 0.309 0.387 0.684 0.03 209.50   1.6840 239.70 18.30 0 1 0   -1.951 -1.823 -1.772 -2.117   -2.118   -1.970 -1.842 -1.860 -2.144   -2.145 3.1360       5.224 5.223 -0.000
VANMET_231 2018-01-19 22:35:00 231 11739.0   -1.943 -1.814 -2.117 -1.817   100.000   -2.119 2.395 2.943 3.340 3.419 0.297 0.310 0.387 0.684 0.01 210.00   1.4450 226.10 19.65 0 1 0   -1.936 -1.803 -1.773 -2.097   -2.098   -1.958 -1.832 -1.862 -2.140   -2.142 2.6590       5.228 5.228 0.000
VANMET_231 2018-01-19 22:30:00 231 11739.0   -1.935 -1.801 -2.113 -1.795   100.000   -2.114 2.396 2.945 3.340 3.418 0.297 0.310 0.387 0.684 0.01 210.50   0.9570 222.30 26.65 0 1 0   -1.931 -1.798 -1.781 -2.097   -2.098   -1.937 -1.805 -1.818 -2.127   -2.128 1.9470       5.230 5.230 0.000
VANMET_231 2018-01-19 22:25:00 231 11739.0   -1.924 -1.790 -2.118 -1.789   100.000   -2.120 2.398 2.948 3.340 3.418 0.297 0.310 0.387 0.685 0.02 212.00   1.1410 225.30 20.10 0 1 0   -1.917 -1.784 -1.758 -2.107   -2.109   -1.933 -1.800 -1.816 -2.134   -2.135 2.7510       5.228 5.227 0.000
VANMET_231 2018-01-19 22:20:00 231 11739.0   -1.947 -1.814 -2.135 -1.773   100.000   -2.137 2.400 2.948 3.340 3.419 0.297 0.310 0.387 0.685 0.02 213.50   0.8610 230.90 17.71 0 1 0   -1.922 -1.789 -1.741 -2.107   -2.109   -1.967 -1.833 -1.822 -2.157   -2.159 1.5880       5.222 5.221 -0.000
VANMET_231 2018-01-19 22:15:00 231 11739.0   -1.969 -1.839 -2.140 -1.831   100.000   -2.141 2.402 2.950 3.340 3.418 0.297 0.310 0.387 0.685 0.04 216.50   0.9840 224.70 15.02 0 1 0   -1.967 -1.833 -1.817 -2.131   -2.132   -1.971 -1.843 -1.859 -2.161   -2.162 1.9930       5.220 5.219 0.000
VANMET_231 2018-01-19 22:10:00 231 11739.0   -1.962 -1.834 -2.128 -1.836   100.000   -2.129 2.405 2.952 3.340 3.418 0.298 0.310 0.388 0.685 0.03 217.00   1.2340 225.10 21.14 0 1 0   -1.959 -1.831 -1.822 -2.098   -2.099   -1.969 -1.840 -1.854 -2.147   -2.149 2.0780       5.224 5.224 0.000
VANMET_231 2018-01-19 22:05:00 231 11739.0   -1.950 -1.824 -2.116 -1.825   100.000   -2.118 2.406 2.954 3.340 3.417 0.298 0.310 0.388 0.685 0.04 220.00   1.1240 217.30 20.62 0 1 0   -1.945 -1.819 -1.803 -2.101   -2.102   -1.956 -1.830 -1.841 -2.131   -2.132 2.5220       5.229 5.228 0.000
VANMET_231 2018-01-19 22:00:00 231 11739.0   -1.926 -1.799 -2.101 -1.810   100.000   -2.102 2.409 2.956 3.340 3.417 0.298 0.310 0.388 0.685 0.03 221.50   1.3410 231.50 29.31 0 1 0   -1.917 -1.789 -1.770 -2.081   -2.082   -1.944 -1.817 -1.846 -2.114   -2.115 2.2670       5.235 5.234 0.000
VANMET_231 2018-01-19 21:55:00 231 11739.0   -1.918 -1.792 -2.088 -1.795   100.000   -2.090 2.410 2.958 3.340 3.417 0.298 0.310 0.388 0.685 0.04 223.00   1.2660 225.90 15.84 0 1 0   -1.908 -1.781 -1.768 -2.081   -2.082   -1.923 -1.797 -1.813 -2.097   -2.099 1.8880       5.240 5.239 0.000
VANMET_231 2018-01-19 21:50:00 231 11739.0   -1.905 -1.774 -2.081 -1.767   100.000   -2.082 2.412 2.959 3.340 3.417 0.298 0.310 0.388 0.685 0.01 223.00   1.1180 229.50 16.59 0 1 0   -1.899 -1.768 -1.721 -2.064   -2.065   -1.916 -1.780 -1.797 -2.094   -2.095 2.2410       5.242 5.242 0.000
VANMET_231 2018-01-19 21:45:00 231 11739.0   -1.908 -1.778 -2.077 -1.782   100.000   -2.079 2.415 2.961 3.341 3.417 0.298 0.310 0.388 0.685 0.00 223.00   1.3200 241.30 21.07 0 1 0   -1.895 -1.766 -1.736 -2.061   -2.062   -1.916 -1.786 -1.814 -2.091   -2.092 2.3260       5.244 5.243 0.000
VANMET_231 2018-01-19 21:40:00 231 11739.0   -1.882 -1.754 -2.073 -1.759   100.000   -2.074 2.416 2.963 3.340 3.417 0.298 0.310 0.388 0.685 0.00 223.00   1.2100 229.20 32.14 0 1 0   -1.876 -1.747 -1.721 -2.064   -2.065   -1.893 -1.766 -1.799 -2.081   -2.082 2.2280       5.246 5.245 0.000
VANMET_231 2018-01-19 21:35:00 231 11739.0   -1.880 -1.754 -2.067 -1.741   100.000   -2.069 2.419 2.965 3.341 3.416 0.298 0.310 0.388 0.685 0.00 223.00   1.2720 239.40 27.66 0 1 0   -1.877 -1.748 -1.689 -2.051   -2.053   -1.886 -1.762 -1.780 -2.078   -2.079 2.1490       5.248 5.247 0.000
VANMET_231 2018-01-19 21:30:00 231 11739.0   -1.882 -1.754 -2.069 -1.741   100.000   -2.070 2.421 2.967 3.341 3.416 0.298 0.310 0.388 0.685 0.00 223.00   1.2180 222.70 33.64 0 1 0   -1.872 -1.745 -1.697 -2.058   -2.059   -1.887 -1.758 -1.764 -2.091   -2.092 1.9860       5.247 5.247 0.000
VANMET_231 2018-01-19 21:25:00 231 11739.0   -1.897 -1.767 -2.072 -1.752   100.000   -2.073 2.423 2.969 3.341 3.416 0.298 0.310 0.388 0.685 0.01 223.00   1.1450 239.60 21.50 0 1 0   -1.887 -1.759 -1.727 -2.058   -2.059   -1.902 -1.772 -1.776 -2.088   -2.089 1.7440       5.246 5.246 0.000
VANMET_231 2018-01-19 21:20:00 231 11739.0   -1.885 -1.760 -2.063 -1.771   100.000   -2.064 2.425 2.970 3.340 3.416 0.298 0.310 0.388 0.685 0.01 222.50   1.2970 232.20 26.59 0 1 0   -1.873 -1.747 -1.738 -2.041   -2.042   -1.894 -1.770 -1.794 -2.078   -2.079 2.2670       5.249 5.249 0.000
VANMET_231 2018-01-19 21:15:00 231 11739.0   -1.873 -1.745 -2.056 -1.724   100.000   -2.057 2.427 2.972 3.341 3.415 0.298 0.310 0.388 0.685 0.01 221.50   1.1880 228.00 29.37 0 1 0   -1.866 -1.740 -1.701 -2.045   -2.046   -1.878 -1.753 -1.749 -2.075   -2.076 2.3190       5.252 5.252 0.000
VANMET_231 2018-01-19 21:10:00 231 11739.0   -1.877 -1.750 -2.057 -1.752   100.000   -2.059 2.429 2.974 3.341 3.415 0.298 0.310 0.388 0.685 0.00 220.00   1.0210 218.90 18.86 0 1 0   -1.870 -1.740 -1.725 -2.045   -2.046   -1.882 -1.756 -1.768 -2.071   -2.072 2.2670       5.252 5.251 0.000
VANMET_231 2018-01-19 21:05:00 231 11739.0   -1.867 -1.735 -2.061 -1.729   100.000   -2.062 2.431 2.976 3.341 3.415 0.298 0.310 0.388 0.685 0.01 218.50   1.0650 222.60 21.66 0 1 0   -1.863 -1.733 -1.706 -2.045   -2.046   -1.870 -1.739 -1.758 -2.078   -2.079 2.0510       5.250 5.250 0.000
VANMET_231 2018-01-19 21:00:00 231 11739.0   -1.878 -1.745 -2.071 -1.724   100.000   -2.072 2.433 2.978 3.340 3.415 0.298 0.310 0.388 0.685 0.01 217.50   0.7770 231.70 19.06 0 1 0   -1.871 -1.735 -1.700 -2.052   -2.053   -1.884 -1.748 -1.752 -2.088   -2.089 1.2020       5.246 5.246 0.000
VANMET_231 2018-01-19 20:55:00 231 11739.0   -1.895 -1.763 -2.079 -1.736   100.000   -2.081 2.435 2.980 3.341 3.414 0.298 0.310 0.388 0.685 0.01 217.00   1.0600 227.10 13.97 0 1 0   -1.884 -1.749 -1.703 -2.061   -2.062   -1.902 -1.772 -1.772 -2.095   -2.096 2.0970       5.243 5.242 0.000
VANMET_231 2018-01-19 20:50:00 231 11739.0   -1.908 -1.777 -2.089 -1.759   100.000   -2.090 2.437 2.981 3.341 3.414 0.298 0.310 0.388 0.685 0.04 217.00   1.0210 231.40 19.16 0 1 0   -1.902 -1.771 -1.736 -2.074   -2.076   -1.915 -1.783 -1.784 -2.104   -2.106 1.9990       5.239 5.239 0.000
VANMET_231 2018-01-19 20:45:00 231 11739.0   -1.914 -1.780 -2.087 -1.770   100.000   -2.088 2.439 2.983 3.341 3.413 0.298 0.310 0.388 0.685 0.04 217.00   0.8970 219.00 24.03 0 1 0   -1.908 -1.776 -1.741 -2.078   -2.079   -1.920 -1.787 -1.793 -2.104   -2.106 1.9080       5.240 5.240 -0.000
VANMET_231 2018-01-19 20:40:00 231 11739.0   -1.911 -1.780 -2.085 -1.776   100.000   -2.087 2.441 2.985 3.341 3.413 0.298 0.310 0.388 0.685 0.05 217.00   1.7230 232.90 20.48 0 1 0   -1.904 -1.774 -1.752 -2.071   -2.072   -1.922 -1.788 -1.808 -2.105   -2.106 4.8350       5.241 5.240 0.000
VANMET_231 2018-01-19 20:35:00 231 11739.0   -1.907 -1.777 -2.091 -1.772   100.000   -2.093 2.444 2.987 3.341 3.413 0.298 0.310 0.388 0.685 0.06 217.00   0.9660 223.30 17.93 0 1 0   -1.904 -1.774 -1.742 -2.071   -2.073   -1.911 -1.780 -1.789 -2.104   -2.106 1.4900       5.239 5.238 0.000
VANMET_231 2018-01-19 20:30:00 231 11739.0   -1.915 -1.788 -2.096 -1.770   100.000   -2.097 2.446 2.989 3.341 3.413 0.298 0.310 0.388 0.685 0.06 217.50   1.3260 226.00 32.98 0 1 0   -1.908 -1.776 -1.711 -2.072   -2.073   -1.920 -1.793 -1.798 -2.112   -2.113 2.5220       5.237 5.236 0.000
VANMET_231 2018-01-19 20:25:00 231 11739.0   -1.911 -1.788 -2.088 -1.786   100.000   -2.090 2.448 2.991 3.341 3.413 0.298 0.310 0.388 0.685 0.07 217.50   1.2760 220.10 22.39 0 1 0   -1.902 -1.780 -1.761 -2.075   -2.076   -1.917 -1.793 -1.811 -2.105   -2.106 2.1430       5.240 5.239 0.000
VANMET_231 2018-01-19 20:20:00 231 11739.0   -1.908 -1.783 -2.082 -1.771   100.000   -2.083 2.450 2.993 3.341 3.413 0.298 0.310 0.388 0.685 0.07 218.00   1.2350 226.70 18.66 0 1 0   -1.900 -1.777 -1.747 -2.069   -2.070   -1.911 -1.787 -1.806 -2.098   -2.100 2.0780       5.242 5.242 0.000
VANMET_231 2018-01-19 20:15:00 231 11739.0   -1.894 -1.776 -2.063 -1.781   100.000   -2.064 2.452 2.995 3.341 3.413 0.298 0.310 0.388 0.685 0.07 218.00   1.2670 223.10 21.19 0 1 0   -1.878 -1.761 -1.753 -2.035   -2.037   -1.904 -1.784 -1.799 -2.082   -2.083 2.5550       5.249 5.249 0.000
VANMET_231 2018-01-19 20:10:00 231 11739.0   -1.854 -1.734 -2.037 -1.745   100.000   -2.038 2.454 2.996 3.341 3.413 0.298 0.310 0.388 0.685 0.06 218.00   1.3960 236.10 20.81 0 1 0   -1.844 -1.723 -1.717 -2.025   -2.027   -1.873 -1.757 -1.787 -2.049   -2.050 3.5870       5.260 5.259 0.000
VANMET_231 2018-01-19 20:05:00 231 11739.0   -1.849 -1.724 -2.024 -1.725   100.000   -2.025 2.456 2.998 3.341 3.412 0.298 0.311 0.388 0.685 0.03 218.00   1.0520 239.30 21.81 0 1 0   -1.843 -1.719 -1.693 -2.009   -2.010   -1.855 -1.727 -1.743 -2.042   -2.043 2.1360       5.265 5.264 0.000
VANMET_231 2018-01-19 20:00:00 231 11739.0   -1.822 -1.693 -2.018 -1.706   100.000   -2.019 2.458 3.000 3.341 3.412 0.298 0.311 0.388 0.686 0.04 218.00   1.2570 228.10 20.58 0 1 0   -1.814 -1.683 -1.664 -2.002   -2.004   -1.839 -1.715 -1.756 -2.036   -2.037 2.6790       5.267 5.267 0.000
VANMET_231 2018-01-19 19:55:00 231 11739.0   -1.832 -1.701 -2.029 -1.677   100.000   -2.030 2.460 3.002 3.341 3.412 0.298 0.311 0.388 0.686 0.07 218.00   0.7920 230.80 14.83 0 1 0   -1.820 -1.690 -1.655 -2.009   -2.010   -1.841 -1.709 -1.713 -2.059   -2.060 1.4570       5.263 5.262 0.000
VANMET_231 2018-01-19 19:50:00 231 11739.0   -1.845 -1.717 -2.034 -1.695   100.000   -2.035 2.462 3.004 3.342 3.411 0.298 0.311 0.388 0.686 0.07 218.00   1.1830 231.50 24.59 0 1 0   -1.836 -1.708 -1.680 -2.022   -2.023   -1.855 -1.728 -1.713 -2.046   -2.047 2.8810       5.261 5.260 0.000
VANMET_231 2018-01-19 19:45:00 231 11739.0   -1.858 -1.734 -2.027 -1.715   100.000   -2.028 2.464 3.006 3.341 3.411 0.298 0.311 0.388 0.686 0.06 217.50   1.4130 235.70 39.83 0 1 0   -1.855 -1.729 -1.683 -1.999   -2.000   -1.860 -1.737 -1.737 -2.042   -2.043 2.4630       5.263 5.263 0.000
VANMET_231 2018-01-19 19:40:00 231 11739.0   -1.836 -1.717 -2.004 -1.734   100.000   -2.005 2.466 3.008 3.341 3.411 0.298 0.311 0.388 0.686 0.06 216.50   1.7370 233.10 17.36 0 1 0   -1.814 -1.694 -1.699 -1.982   -1.984   -1.859 -1.738 -1.772 -2.026   -2.027 3.7310       5.272 5.272 0.000
VANMET_231 2018-01-19 19:35:00 231 11739.0   -1.796 -1.672 -1.977 -1.674   100.000   -1.978 2.468 3.010 3.341 3.411 0.299 0.311 0.388 0.686 0.03 215.50   1.5440 233.40 13.36 0 1 0   -1.792 -1.668 -1.658 -1.963   -1.964   -1.804 -1.686 -1.722 -1.989   -1.990 3.4820       5.283 5.283 0.000
VANMET_231 2018-01-19 19:30:00 231 11739.0   -1.788 -1.664 -1.969 -1.667   100.000   -1.971 2.470 3.011 3.341 3.411 0.299 0.311 0.388 0.686 0.04 215.50   1.0860 234.90 17.26 0 1 0   -1.785 -1.659 -1.646 -1.959   -1.961   -1.791 -1.669 -1.699 -1.983   -1.984 1.7440       5.286 5.285 0.000
VANMET_231 2018-01-19 19:25:00 231 11739.0   -1.784 -1.655 -1.973 -1.631   100.000   -1.974 2.473 3.013 3.341 3.410 0.299 0.311 0.388 0.686 0.03 215.50   1.4880 234.00 19.10 0 1 0   -1.773 -1.643 -1.578 -1.959   -1.961   -1.794 -1.667 -1.681 -1.999   -2.000 2.8160       5.285 5.284 0.000
VANMET_231 2018-01-19 19:20:00 231 11739.0   -1.801 -1.674 -1.982 -1.643   100.000   -1.983 2.475 3.015 3.341 3.410 0.299 0.311 0.388 0.686 0.05 214.50   0.8970 236.30 21.30 0 1 0   -1.790 -1.665 -1.603 -1.966   -1.967   -1.813 -1.687 -1.672 -1.993   -1.994 1.8950       5.281 5.281 0.000
VANMET_231 2018-01-19 19:15:00 231 11739.0   -1.810 -1.685 -1.979 -1.686   100.000   -1.980 2.476 3.017 3.340 3.410 0.299 0.311 0.388 0.686 0.06 214.00   1.4330 228.20 28.22 0 1 0   -1.794 -1.669 -1.656 -1.963   -1.964   -1.817 -1.692 -1.706 -2.003   -2.004 2.5410       5.282 5.282 0.000
VANMET_231 2018-01-19 19:10:00 231 11739.0   -1.788 -1.664 -1.959 -1.655   100.000   -1.960 2.479 3.019 3.341 3.410 0.299 0.311 0.388 0.686 0.03 213.50   1.4710 229.80 20.07 0 1 0   -1.784 -1.658 -1.628 -1.933   -1.934   -1.792 -1.671 -1.683 -1.976   -1.977 3.3450       5.290 5.290 -0.000
VANMET_231 2018-01-19 19:05:00 231 11739.0   -1.750 -1.629 -1.933 -1.651   100.000   -1.934 2.481 3.021 3.340 3.409 0.299 0.311 0.389 0.686 0.05 212.50   1.5250 234.00 27.22 0 1 0   -1.726 -1.596 -1.553 -1.913   -1.914   -1.789 -1.669 -1.721 -1.956   -1.958 3.0510       5.300 5.300 0.000
VANMET_231 2018-01-19 19:00:00 231 11739.0   -1.733 -1.604 -1.924 -1.584   100.000   -1.925 2.483 3.023 3.341 3.409 0.299 0.311 0.389 0.686 0.02 209.50   0.9950 237.40 29.98 0 1 0   -1.727 -1.598 -1.555 -1.914   -1.915   -1.738 -1.611 -1.609 -1.937   -1.938 1.3980       5.304 5.303 0.000
VANMET_231 2018-01-19 18:55:00 231 11739.0   -1.744 -1.617 -1.939 -1.589   100.000   -1.941 2.485 3.025 3.340 3.408 0.299 0.311 0.389 0.686 0.05 207.00   1.0180 222.20 25.13 0 1 0   -1.739 -1.612 -1.537 -1.924   -1.925   -1.757 -1.630 -1.628 -1.957   -1.958 1.9270       5.298 5.297 0.000
VANMET_231 2018-01-19 18:50:00 231 11739.0   -1.766 -1.641 -1.934 -1.632   100.000   -1.935 2.487 3.027 3.341 3.408 0.299 0.311 0.389 0.686 0.06 207.00   1.2030 225.40 20.78 0 1 0   -1.753 -1.623 -1.574 -1.920   -1.921   -1.772 -1.650 -1.704 -1.954   -1.955 2.1170       5.300 5.299 0.000
VANMET_231 2018-01-19 18:45:00 231 11739.0   -1.752 -1.623 -1.931 -1.603   100.000   -1.932 2.490 3.029 3.341 3.408 0.299 0.311 0.389 0.686 0.07 208.00   1.4010 229.90 29.58 0 1 0   -1.740 -1.613 -1.538 -1.910   -1.911   -1.762 -1.635 -1.667 -1.944   -1.945 3.0900       5.301 5.301 0.000
VANMET_231 2018-01-19 18:40:00 231 11739.0   -1.744 -1.620 -1.920 -1.606   100.000   -1.921 2.492 3.031 3.341 3.408 0.299 0.311 0.389 0.686 0.07 209.50   1.5040 234.00 21.49 0 1 0   -1.735 -1.610 -1.550 -1.907   -1.908   -1.751 -1.628 -1.658 -1.934   -1.935 3.3580       5.305 5.305 0.000
VANMET_231 2018-01-19 18:35:00 231 11739.0   -1.737 -1.612 -1.903 -1.619   100.000   -1.904 2.494 3.032 3.340 3.407 0.299 0.311 0.389 0.686 0.04 208.50   1.3620 211.60 23.39 0 1 0   -1.718 -1.597 -1.594 -1.881   -1.882   -1.748 -1.623 -1.642 -1.927   -1.928 2.4890       5.312 5.312 0.000
VANMET_231 2018-01-19 18:30:00 231 11739.0   -1.703 -1.577 -1.885 -1.568   100.000   -1.886 2.496 3.035 3.340 3.407 0.299 0.311 0.389 0.686 0.04 208.00   1.5380 224.90 19.02 0 1 0   -1.692 -1.564 -1.486 -1.867   -1.869   -1.719 -1.596 -1.627 -1.904   -1.905 2.3060       5.319 5.319 0.000
VANMET_231 2018-01-19 18:25:00 231 11739.0   -1.712 -1.585 -1.889 -1.582   100.000   -1.890 2.498 3.037 3.341 3.407 0.299 0.311 0.389 0.686 0.03 208.00   0.9240 237.00 14.85 0 1 0   -1.700 -1.565 -1.527 -1.874   -1.875   -1.717 -1.592 -1.628 -1.900   -1.902 2.2150       5.317 5.317 0.000
VANMET_231 2018-01-19 18:20:00 231 11739.0   -1.702 -1.568 -1.891 -1.525   100.000   -1.892 2.501 3.038 3.340 3.407 0.299 0.311 0.389 0.686 0.04 207.50   0.8200 226.20 18.66 0 1 0   -1.691 -1.559 -1.485 -1.878   -1.879   -1.723 -1.590 -1.563 -1.904   -1.905 3.3710       5.317 5.316 0.000
VANMET_231 2018-01-19 18:15:00 231 11739.0   -1.728 -1.599 -1.889 -1.593   100.000   -1.890 2.502 3.040 3.340 3.407 0.299 0.311 0.389 0.686 0.05 207.50   0.8890 231.40 16.64 0 1 0   -1.714 -1.580 -1.502 -1.874   -1.875   -1.738 -1.608 -1.637 -1.914   -1.915 1.8420       5.317 5.317 0.000
VANMET_231 2018-01-19 18:10:00 231 11739.0   -1.699 -1.562 -1.887 -1.559   100.000   -1.888 2.505 3.042 3.340 3.406 0.299 0.311 0.389 0.686 0.05 207.50   1.2240 226.60 23.70 0 1 0   -1.694 -1.557 -1.527 -1.861   -1.862   -1.713 -1.577 -1.614 -1.908   -1.909 2.2150       5.318 5.318 0.000
VANMET_231 2018-01-19 18:05:00 231 11739.0   -1.720 -1.587 -1.907 -1.540   100.000   -1.908 2.507 3.045 3.340 3.406 0.299 0.311 0.389 0.686 0.07 207.50   0.9170 240.10 10.99 0 1 0   -1.703 -1.566 -1.474 -1.891   -1.892   -1.733 -1.605 -1.580 -1.921   -1.922 1.3850       5.310 5.310 0.000
VANMET_231 2018-01-19 18:00:00 231 11739.0   -1.738 -1.612 -1.916 -1.594   100.000   -1.917 2.509 3.046 3.341 3.406 0.299 0.311 0.389 0.686 0.09 206.00   0.9870 222.10 11.95 0 1 0   -1.736 -1.605 -1.567 -1.895   -1.896   -1.739 -1.616 -1.614 -1.931   -1.932 1.9470       5.307 5.306 0.000
VANMET_231 2018-01-19 17:55:00 231 11739.0   -1.729 -1.604 -1.909 -1.606   100.000   -1.911 2.511 3.048 3.340 3.405 0.299 0.312 0.389 0.686 0.12 206.50   1.1640 235.90 17.19 0 1 0   -1.726 -1.599 -1.580 -1.881   -1.882   -1.736 -1.613 -1.632 -1.925   -1.926 2.3260       5.310 5.309 -0.000
VANMET_231 2018-01-19 17:50:00 231 11739.0   -1.738 -1.612 -1.908 -1.578   100.000   -1.909 2.514 3.050 3.341 3.405 0.299 0.312 0.389 0.687 0.12 205.00   0.9990 227.10 17.89 0 1 0   -1.726 -1.599 -1.538 -1.891   -1.892   -1.749 -1.626 -1.622 -1.925   -1.926 2.0120       5.310 5.310 0.000
VANMET_231 2018-01-19 17:45:00 231 11739.0   -1.736 -1.615 -1.888 -1.624   100.000   -1.889 2.516 3.052 3.341 3.405 0.299 0.312 0.389 0.686 0.13 204.50   1.6180 217.90 30.51 0 1 0   -1.710 -1.590 -1.604 -1.865   -1.866   -1.750 -1.626 -1.649 -1.918   -1.919 2.8750       5.318 5.317 0.000
VANMET_231 2018-01-19 17:40:00 231 11739.0   -1.683 -1.563 -1.844 -1.588   100.000   -1.845 2.518 3.054 3.340 3.405 0.299 0.312 0.389 0.687 0.13 204.00   1.7180 215.30 22.32 0 1 0   -1.648 -1.530 -1.545 -1.822   -1.823   -1.708 -1.588 -1.612 -1.868   -1.869 3.0180       5.335 5.335 0.000
VANMET_231 2018-01-19 17:35:00 231 11739.0   -1.638 -1.517 -1.824 -1.507   100.000   -1.825 2.520 3.056 3.340 3.405 0.299 0.312 0.389 0.687 0.10 204.00   1.2430 226.30 19.62 0 1 0   -1.634 -1.514 -1.479 -1.808   -1.810   -1.646 -1.526 -1.551 -1.842   -1.843 2.6850       5.343 5.343 0.000
VANMET_231 2018-01-19 17:30:00 231 11739.0   -1.649 -1.524 -1.835 -1.516   100.000   -1.836 2.522 3.058 3.340 3.404 0.299 0.312 0.389 0.687 0.13 204.00   1.1880 231.80 17.48 0 1 0   -1.642 -1.516 -1.489 -1.822   -1.823   -1.653 -1.528 -1.548 -1.849   -1.850 2.3320       5.339 5.338 0.000
VANMET_231 2018-01-19 17:25:00 231 11739.0   -1.636 -1.515 -1.828 -1.515   100.000   -1.829 2.524 3.060 3.340 3.404 0.299 0.312 0.389 0.687 0.14 204.00   0.9330 221.30 25.84 0 1 0   -1.622 -1.505 -1.497 -1.809   -1.810   -1.644 -1.523 -1.538 -1.839   -1.840 1.8880       5.341 5.341 0.000
VANMET_231 2018-01-19 17:20:00 231 11739.0   -1.631 -1.509 -1.828 -1.480   100.000   -1.829 2.527 3.063 3.340 3.404 0.299 0.312 0.389 0.687 0.17 204.00   1.0900 219.90 17.26 0 1 0   -1.624 -1.505 -1.437 -1.815   -1.817   -1.642 -1.523 -1.500 -1.849   -1.850 2.2740       5.341 5.341 0.000
VANMET_231 2018-01-19 17:15:00 231 11739.0   -1.656 -1.539 -1.834 -1.506   100.000   -1.835 2.529 3.064 3.340 3.404 0.299 0.312 0.389 0.687 0.23 204.00   1.0420 242.20 25.49 0 1 0   -1.644 -1.525 -1.463 -1.826   -1.827   -1.667 -1.549 -1.554 -1.842   -1.843 1.7640       5.339 5.339 0.000
VANMET_231 2018-01-19 17:10:00 231 11739.0   -1.668 -1.548 -1.822 -1.549   100.000   -1.823 2.531 3.066 3.339 3.404 0.299 0.312 0.389 0.687 0.37 203.50   1.3090 242.20 16.02 0 1 0   -1.662 -1.541 -1.524 -1.796   -1.797   -1.673 -1.551 -1.575 -1.842   -1.843 2.5150       5.344 5.343 0.000
VANMET_231 2018-01-19 17:05:00 231 11739.0   -1.634 -1.515 -1.783 -1.543   100.000   -1.784 2.533 3.068 3.340 3.403 0.299 0.312 0.389 0.687 0.46 203.00   1.7350 223.10 20.17 0 1 0   -1.601 -1.485 -1.516 -1.753   -1.754   -1.659 -1.540 -1.573 -1.819   -1.820 2.9790       5.359 5.359 -0.000
VANMET_231 2018-01-19 17:00:00 231 11739.0   -1.571 -1.458 -1.741 -1.492   100.000   -1.742 2.535 3.070 3.339 3.403 0.300 0.312 0.389 0.687 0.52 203.00   1.3590 231.90 23.74 0 1 0   -1.548 -1.439 -1.467 -1.716   -1.717   -1.600 -1.484 -1.549 -1.776   -1.777 1.8230       5.376 5.376 0.000
VANMET_231 2018-01-19 16:55:00 231 11739.0   -1.529 -1.415 -1.723 -1.438   100.000   -1.725 2.538 3.072 3.339 3.403 0.300 0.312 0.389 0.687 0.70 202.50   1.2170 235.20 22.82 0 1 0   -1.520 -1.406 -1.373 -1.707   -1.708   -1.543 -1.437 -1.481 -1.740   -1.741 2.3650       5.383 5.382 0.000
VANMET_231 2018-01-19 16:50:00 231 11739.0   -1.540 -1.428 -1.738 -1.413   100.000   -1.740 2.540 3.074 3.339 3.403 0.300 0.312 0.389 0.687 1.13 201.50   0.8900 239.90 27.81 0 1 0   -1.526 -1.411 -1.378 -1.720   -1.721   -1.558 -1.451 -1.441 -1.753   -1.754 1.6990       5.377 5.376 0.000
VANMET_231 2018-01-19 16:45:00 231 11739.0   -1.564 -1.457 -1.744 -1.472   100.000   -1.745 2.542 3.076 3.339 3.402 0.300 0.312 0.389 0.687 1.08 201.00   1.1680 238.20 30.98 0 1 0   -1.559 -1.452 -1.429 -1.723   -1.724   -1.567 -1.463 -1.506 -1.760   -1.761 2.0190       5.375 5.374 0.000
VANMET_231 2018-01-19 16:40:00 231 11739.0   -1.556 -1.445 -1.735 -1.463   100.000   -1.736 2.544 3.078 3.339 3.402 0.300 0.312 0.389 0.687 1.05 201.00   0.9970 231.60 24.34 0 1 0   -1.547 -1.436 -1.391 -1.723   -1.724   -1.562 -1.452 -1.498 -1.756   -1.757 2.3980       5.378 5.378 0.000
VANMET_231 2018-01-19 16:35:00 231 11739.0   -1.559 -1.450 -1.723 -1.481   100.000   -1.724 2.546 3.080 3.339 3.401 0.300 0.312 0.389 0.687 1.54 201.00   1.1340 233.50 21.68 0 1 0   -1.539 -1.434 -1.436 -1.697   -1.698   -1.576 -1.460 -1.533 -1.743   -1.744 2.2870       5.383 5.383 0.000
VANMET_231 2018-01-19 16:30:00 231 11739.0   -1.532 -1.432 -1.674 -1.489   100.000   -1.675 2.549 3.082 3.338 3.401 0.300 0.312 0.389 0.687 2.03 201.50   1.3110 229.40 23.77 0 1 0   -1.511 -1.406 -1.459 -1.634   -1.635   -1.542 -1.441 -1.543 -1.703   -1.704 2.3390       5.403 5.402 0.000
VANMET_231 2018-01-19 16:25:00 231 11739.0   -1.469 -1.362 -1.610 -1.453   100.000   -1.611 2.551 3.084 3.339 3.401 0.300 0.312 0.389 0.687 2.86 201.00   1.2340 248.30 32.56 0 1 0   -1.435 -1.330 -1.348 -1.587   -1.588   -1.514 -1.409 -1.548 -1.650   -1.651 2.2800       5.428 5.428 0.000
VANMET_231 2018-01-19 16:20:00 231 11739.0   -1.416 -1.321 -1.574 -1.405   100.000   -1.575 2.553 3.085 3.338 3.400 0.300 0.312 0.389 0.687 2.46 200.00   1.0870 227.10 19.39 0 1 0   -1.371 -1.286 -1.322 -1.537   -1.538   -1.442 -1.342 -1.472 -1.604   -1.605 2.7440       5.443 5.442 0.000
VANMET_231 2018-01-19 16:15:00 231 11739.0   -1.341 -1.274 -1.496 -1.394   100.000   -1.497 2.555 3.088 3.339 3.400 0.300 0.312 0.389 0.687 3.32 200.00   1.3560 242.00 23.11 0 1 0   -1.265 -1.207 -1.323 -1.411   -1.412   -1.372 -1.297 -1.443 -1.547   -1.548 2.8620       5.474 5.474 0.000
VANMET_231 2018-01-19 16:10:00 231 11739.0   -1.206 -1.140 -1.379 -1.351   100.000   -1.380 2.557 3.090 3.338 3.400 0.300 0.312 0.389 0.687 7.05 200.00   1.6300 231.90 23.62 0 1 0   -1.159 -1.095 -1.262 -1.348   -1.349   -1.258 -1.197 -1.433 -1.418   -1.419 2.8220       5.521 5.521 0.000
VANMET_231 2018-01-19 16:05:00 231 11739.0   -1.186 -1.128 -1.364 -1.305   100.000   -1.365 2.560 3.092 3.338 3.400 0.300 0.313 0.390 0.687 8.93 200.00   0.9340 241.30 18.49 0 1 0   -1.151 -1.097 -1.240 -1.345   -1.345   -1.246 -1.182 -1.357 -1.395   -1.395 1.5160       5.527 5.527 0.000
VANMET_231 2018-01-19 16:00:00 231 11739.0   -1.205 -1.137 -1.346 -1.317   100.000   -1.347 2.562 3.094 3.338 3.399 0.300 0.313 0.390 0.687 4.80 193.50   1.3470 231.30 23.55 0 1 0   -1.132 -1.058 -1.241 -1.291   -1.292   -1.247 -1.184 -1.358 -1.401   -1.402 2.6720       5.535 5.534 0.000
VANMET_231 2018-01-19 15:55:00 231 11739.0   -1.097 -1.024 -1.270 -1.191   100.000   -1.271 2.564 3.096 3.338 3.399 0.300 0.313 0.390 0.687 3.75 181.50   0.9670 250.20 26.72 0 1 0   -1.075 -0.996 -1.134 -1.248   -1.249   -1.122 -1.048 -1.241 -1.288   -1.289 1.8100       5.566 5.565 0.000
VANMET_231 2018-01-19 15:50:00 231 11739.0   -1.023 -0.957 -1.208 -1.201   100.000   -1.209 2.566 3.098 3.338 3.399 0.300 0.313 0.390 0.687 5.55 176.50   0.9850 230.20 24.38 0 1 0   -0.965 -0.922 -1.171 -1.159   -1.159   -1.073 -0.994 -1.255 -1.245   -1.246 2.0910       5.591 5.591 0.000
VANMET_231 2018-01-19 15:45:00 231 11739.0   -0.923 -0.866 -1.140 -1.187   100.000   -1.141 2.569 3.100 3.338 3.399 0.300 0.313 0.390 0.687 9.22 174.50   1.2210 236.10 32.23 0 1 0   -0.873 -0.831 -1.137 -1.122   -1.123   -0.958 -0.917 -1.250 -1.169   -1.169 2.2540       5.619 5.619 0.000
VANMET_231 2018-01-19 15:40:00 231 11739.0   -0.910 -0.848 -1.165 -1.137   100.000   -1.166 2.571 3.103 3.338 3.399 0.300 0.313 0.390 0.687 13.91 174.50   1.1850 232.30 24.85 0 1 0   -0.857 -0.799 -1.080 -1.115   -1.116   -1.005 -0.937 -1.209 -1.232   -1.233 2.5680       5.609 5.609 0.000
VANMET_231 2018-01-19 15:35:00 231 11739.0   -1.114 -1.045 -1.304 -1.249   100.000   -1.305 2.573 3.104 3.337 3.399 0.300 0.313 0.390 0.687 16.52 174.50   1.2090 226.10 33.22 0 1 0   -1.019 -0.950 -1.200 -1.239   -1.240   -1.181 -1.121 -1.330 -1.345   -1.346 2.1890       5.552 5.552 0.000
VANMET_231 2018-01-19 15:30:00 231 11739.0   -1.114 -1.055 -1.258 -1.266   100.000   -1.259 2.575 3.106 3.337 3.398 0.300 0.313 0.390 0.687 7.14 174.50   1.5680 232.00 31.92 0 1 0   -1.037 -0.991 -1.215 -1.192   -1.193   -1.176 -1.106 -1.337 -1.332   -1.333 4.4820       5.571 5.570 0.000
VANMET_231 2018-01-19 15:25:00 231 11739.0   -0.928 -0.908 -1.102 -1.219   100.000   -1.103 2.578 3.108 3.337 3.398 0.300 0.313 0.390 0.687 7.38 174.50   1.3540 241.20 32.21 0 1 0   -0.865 -0.827 -1.148 -1.039   -1.040   -1.012 -0.986 -1.321 -1.182   -1.183 2.3190       5.635 5.635 0.000
VANMET_231 2018-01-19 15:20:00 231 11739.0   -0.839 -0.791 -1.025 -1.152   100.000   -1.025 2.580 3.110 3.337 3.397 0.300 0.313 0.390 0.688 13.09 176.50   1.3060 242.50 14.69 0 1 0   -0.826 -0.762 -1.071 -1.009   -1.010   -0.858 -0.823 -1.243 -1.042   -1.043 1.9400       5.667 5.667 0.000
VANMET_231 2018-01-19 15:15:00 231 11739.0   -0.872 -0.786 -1.066 -1.140   100.000   -1.066 2.582 3.112 3.337 3.398 0.300 0.313 0.390 0.688 12.45 178.50   1.0680 223.10 26.73 0 1 0   -0.847 -0.768 -1.062 -1.016   -1.016   -0.899 -0.800 -1.202 -1.099   -1.100 2.2800       5.650 5.650 0.000
VANMET_231 2018-01-19 15:10:00 231 11739.0   -0.842 -0.794 -1.087 -1.109   100.000   -1.088 2.584 3.114 3.337 3.397 0.300 0.313 0.390 0.688 12.48 181.00   1.1930 229.20 20.47 0 1 0   -0.833 -0.774 -1.046 -1.069   -1.070   -0.857 -0.811 -1.159 -1.112   -1.113 2.7960       5.641 5.641 0.000
VANMET_231 2018-01-19 15:05:00 231 11739.0   -0.914 -0.846 -1.164 -1.164   100.000   -1.164 2.586 3.116 3.337 3.397 0.301 0.313 0.390 0.688 14.37 187.00   0.9130 234.50 14.61 0 1 0   -0.847 -0.783 -1.054 -1.109   -1.110   -0.968 -0.881 -1.279 -1.219   -1.220 1.6010       5.609 5.609 0.000
VANMET_231 2018-01-19 15:00:00 231 11739.0   -1.023 -0.935 -1.260 -1.214   100.000   -1.261 2.589 3.118 3.337 3.397 0.301 0.313 0.390 0.688 17.49 191.50   1.1990 224.10 29.21 0 1 0   -0.971 -0.876 -1.088 -1.216   -1.216   -1.104 -1.038 -1.296 -1.328   -1.329 2.8750       5.570 5.570 -0.000
VANMET_231 2018-01-19 14:55:00 231 11739.0   -1.157 -1.091 -1.349 -1.248   100.000   -1.350 2.592 3.121 3.337 3.397 0.301 0.313 0.390 0.688 12.77 192.00   1.3340 237.90 22.71 0 1 0   -1.113 -1.047 -1.208 -1.312   -1.313   -1.218 -1.152 -1.302 -1.378   -1.379 2.6260       5.534 5.533 0.000
VANMET_231 2018-01-19 14:50:00 231 11739.0   -1.162 -1.097 -1.326 -1.240   100.000   -1.327 2.594 3.123 3.337 3.396 0.301 0.313 0.390 0.688 4.94 192.50   1.4540 240.10 31.83 0 1 0   -1.083 -1.010 -1.107 -1.278   -1.279   -1.220 -1.155 -1.303 -1.372   -1.373 3.1950       5.543 5.543 0.000
VANMET_231 2018-01-19 14:45:00 231 11739.0   -1.071 -0.995 -1.250 -1.163   100.000   -1.251 2.596 3.125 3.337 3.396 0.301 0.313 0.390 0.688 5.15 192.50   0.9790 241.20 23.35 0 1 0   -1.052 -0.970 -1.093 -1.225   -1.226   -1.083 -1.011 -1.216 -1.275   -1.276 1.3980       5.574 5.574 0.000
VANMET_231 2018-01-19 14:40:00 231 11739.0   -1.071 -1.021 -1.189 -1.264   100.000   -1.190 2.599 3.127 3.336 3.396 0.301 0.313 0.390 0.688 11.82 192.50   1.3830 222.20 21.80 0 1 0   -1.034 -0.995 -1.154 -1.132   -1.133   -1.083 -1.037 -1.345 -1.228   -1.229 2.1820       5.599 5.599 0.000
VANMET_231 2018-01-19 14:35:00 231 11739.0   -0.911 -0.859 -1.051 -1.140   100.000   -1.052 2.601 3.129 3.336 3.396 0.301 0.313 0.390 0.688 10.96 192.00   1.5330 226.50 27.32 0 1 0   -0.876 -0.843 -1.075 -1.009   -1.009   -1.007 -0.963 -1.325 -1.129   -1.129 3.4370       5.656 5.656 0.000
VANMET_231 2018-01-19 14:30:00 231 11739.0   -0.785 -0.705 -0.927 -1.143   100.000   -0.927 2.603 3.131 3.336 3.396 0.301 0.313 0.390 0.688 9.07 192.50   1.4950 219.30 21.58 0 1 0   -0.668 -0.597 -0.987 -0.876   -0.877   -0.871 -0.847 -1.219 -0.996   -0.996 2.4700       5.708 5.708 0.000
VANMET_231 2018-01-19 14:25:00 231 11739.0   -0.619 -0.585 -0.827 -1.023   100.000   -0.827 2.605 3.133 3.336 3.395 0.301 0.313 0.390 0.688 14.39 192.50   1.1470 227.50 20.06 0 1 0   -0.604 -0.565 -0.949 -0.806   -0.807   -0.642 -0.602 -1.093 -0.856   -0.856 1.8550       5.750 5.750 0.000
VANMET_231 2018-01-19 14:20:00 231 11739.0   -0.594 -0.573 -0.787 -1.102   100.000   -0.787 2.608 3.135 3.336 3.395 0.301 0.314 0.390 0.688 21.17 191.50   1.4200 240.90 25.79 0 1 0   -0.554 -0.545 -1.043 -0.759   -0.760   -0.622 -0.603 -1.182 -0.820   -0.820 3.3450       5.767 5.767 0.000
VANMET_231 2018-01-19 14:15:00 231 11739.0   -0.623 -0.564 -0.809 -1.100   100.000   -0.809 2.610 3.137 3.336 3.395 0.301 0.314 0.390 0.688 31.90 191.00   1.9890 228.50 32.19 0 1 0   -0.592 -0.530 -1.036 -0.776   -0.777   -0.659 -0.591 -1.152 -0.833   -0.833 3.6060       5.757 5.757 0.000
VANMET_231 2018-01-19 14:10:00 231 11739.0   -0.620 -0.575 -0.866 -1.028   100.000   -0.866 2.613 3.139 3.336 3.394 0.301 0.314 0.390 0.688 26.57 191.50   1.4780 228.00 27.60 0 1 0   -0.578 -0.535 -0.950 -0.829   -0.830   -0.715 -0.677 -1.129 -0.942   -0.943 3.2270       5.733 5.733 0.000
VANMET_231 2018-01-19 14:05:00 231 11739.0   -0.780 -0.745 -0.996 -1.072   100.000   -0.997 2.615 3.142 3.336 3.395 0.301 0.314 0.390 0.688 20.57 191.50   1.3800 225.60 29.94 0 1 0   -0.727 -0.685 -1.008 -0.942   -0.943   -0.812 -0.781 -1.133 -1.019   -1.019 2.4960       5.679 5.679 0.000
VANMET_231 2018-01-19 14:00:00 231 11739.0   -0.788 -0.737 -1.011 -1.084   100.000   -1.011 2.617 3.144 3.336 3.394 0.301 0.314 0.390 0.688 15.82 188.50   1.1530 236.00 21.67 0 1 0   -0.756 -0.711 -0.980 -0.989   -0.989   -0.832 -0.762 -1.199 -1.038   -1.039 1.8230       5.673 5.673 0.000
VANMET_231 2018-01-19 13:55:00 231 11739.0   -0.837 -0.793 -1.028 -1.170   100.000   -1.029 2.620 3.146 3.335 3.394 0.301 0.314 0.390 0.688 21.42 184.00   1.4690 231.00 30.97 0 1 0   -0.808 -0.766 -1.094 -1.012   -1.012   -0.865 -0.812 -1.233 -1.042   -1.042 2.8090       5.666 5.665 0.000
VANMET_231 2018-01-19 13:50:00 231 11739.0   -0.795 -0.761 -0.990 -1.128   100.000   -0.991 2.622 3.148 3.335 3.393 0.301 0.314 0.390 0.688 18.53 184.00   1.6350 240.20 21.68 0 1 0   -0.761 -0.718 -1.072 -0.952   -0.952   -0.831 -0.802 -1.198 -1.022   -1.022 3.0250       5.682 5.681 0.000
VANMET_231 2018-01-19 13:45:00 231 11739.0   -0.798 -0.768 -0.956 -1.204   100.000   -0.956 2.624 3.150 3.335 3.393 0.301 0.314 0.390 0.688 20.51 185.50   1.1890 227.50 20.34 0 1 0   -0.751 -0.730 -1.117 -0.889   -0.889   -0.841 -0.801 -1.301 -0.988   -0.989 3.0640       5.696 5.696 0.000
VANMET_231 2018-01-19 13:40:00 231 11739.0   -0.651 -0.614 -0.893 -1.087   100.000   -0.894 2.627 3.152 3.335 3.393 0.301 0.314 0.390 0.688 22.95 190.50   1.4920 235.60 22.33 0 1 0   -0.574 -0.526 -0.915 -0.872   -0.872   -0.738 -0.705 -1.240 -0.955   -0.956 3.1230       5.722 5.722 0.000
VANMET_231 2018-01-19 13:35:00 231 11739.0   -0.851 -0.790 -1.049 -1.119   100.000   -1.050 2.629 3.155 3.335 3.393 0.301 0.314 0.390 0.688 21.97 190.50   0.9470 234.60 17.32 0 1 0   -0.738 -0.664 -1.030 -0.955   -0.956   -0.928 -0.864 -1.286 -1.091   -1.092 1.6730       5.657 5.657 0.000
VANMET_231 2018-01-19 13:30:00 231 11739.0   -0.829 -0.794 -1.023 -1.200   100.000   -1.024 2.631 3.157 3.335 3.393 0.301 0.314 0.390 0.688 20.25 186.00   1.6270 234.60 25.33 0 1 0   -0.726 -0.703 -1.028 -0.968   -0.969   -0.940 -0.861 -1.339 -1.105   -1.105 3.5610       5.668 5.667 0.000
VANMET_231 2018-01-19 13:25:00 231 11739.0   -0.810 -0.773 -1.039 -1.192   100.000   -1.040 2.634 3.159 3.334 3.393 0.301 0.314 0.390 0.688 23.82 186.00   1.3530 235.50 15.44 0 1 0   -0.768 -0.749 -1.115 -1.005   -1.005   -0.871 -0.805 -1.278 -1.081   -1.082 2.0970       5.661 5.661 0.000
VANMET_231 2018-01-19 13:20:00 231 11739.0   -0.915 -0.858 -1.128 -1.177   100.000   -1.128 2.637 3.161 3.334 3.393 0.302 0.314 0.390 0.688 22.53 186.00   1.1610 245.60 19.32 0 1 0   -0.853 -0.783 -1.107 -1.078   -1.079   -1.001 -0.954 -1.269 -1.188   -1.188 1.8100       5.624 5.624 0.000
VANMET_231 2018-01-19 13:15:00 231 11739.0   -1.003 -0.944 -1.185 -1.342   100.000   -1.186 2.639 3.164 3.334 3.392 0.302 0.314 0.390 0.688 19.84 181.50   1.5090 231.90 14.95 0 1 0   -0.980 -0.919 -1.256 -1.164   -1.165   -1.023 -0.967 -1.424 -1.208   -1.208 2.6920       5.601 5.600 0.000
VANMET_231 2018-01-19 13:10:00 231 11739.0   -1.006 -0.966 -1.151 -1.357   100.000   -1.152 2.641 3.166 3.334 3.392 0.302 0.314 0.391 0.688 23.34 181.50   1.5600 228.30 26.93 0 1 0   -0.971 -0.929 -1.247 -1.101   -1.102   -1.031 -1.001 -1.430 -1.178   -1.178 2.9330       5.615 5.614 0.000
VANMET_231 2018-01-19 13:05:00 231 11739.0   -0.951 -0.862 -1.115 -1.252   100.000   -1.115 2.644 3.168 3.333 3.392 0.302 0.314 0.391 0.688 21.29 180.50   1.4660 241.90 24.27 0 1 0   -0.921 -0.823 -1.101 -1.081   -1.082   -0.974 -0.907 -1.370 -1.141   -1.142 2.8810       5.630 5.630 0.000
VANMET_231 2018-01-19 13:00:00 231 11739.0   -1.053 -0.945 -1.209 -1.271   100.000   -1.210 2.647 3.170 3.333 3.391 0.302 0.314 0.391 0.688 20.14 180.00   1.0320 243.10 16.14 0 1 0   -0.942 -0.844 -1.115 -1.141   -1.142   -1.131 -1.035 -1.402 -1.261   -1.261 2.2740       5.591 5.590 0.000
VANMET_231 2018-01-19 12:55:00 231 11739.0   -1.149 -1.058 -1.265 -1.454   100.000   -1.266 2.649 3.172 3.333 3.391 0.302 0.314 0.391 0.688 20.26 178.00   1.2430 224.00 29.75 0 1 0   -1.128 -1.035 -1.377 -1.257   -1.258   -1.176 -1.092 -1.536 -1.277   -1.278 2.3650       5.568 5.567 0.000
VANMET_231 2018-01-19 12:50:00 231 11739.0   -1.092 -0.995 -1.224 -1.473   100.000   -1.225 2.651 3.174 3.333 3.391 0.302 0.314 0.391 0.688 22.39 175.50   1.7030 227.60 18.69 0 1 0   -1.026 -0.932 -1.343 -1.210   -1.211   -1.186 -1.094 -1.549 -1.257   -1.258 2.9010       5.585 5.584 0.000
VANMET_231 2018-01-19 12:45:00 231 11739.0   -0.997 -0.889 -1.219 -1.361   100.000   -1.220 2.654 3.176 3.333 3.391 0.302 0.314 0.391 0.688 19.62 173.00   1.3790 224.50 21.74 0 1 0   -0.937 -0.832 -1.223 -1.194   -1.195   -1.048 -0.946 -1.470 -1.260   -1.261 3.1620       5.587 5.586 0.000
VANMET_231 2018-01-19 12:40:00 231 11739.0   -1.084 -0.970 -1.291 -1.447   100.000   -1.292 2.656 3.179 3.333 3.391 0.302 0.314 0.391 0.688 25.09 172.00   1.0560 218.20 23.57 0 1 0   -0.974 -0.867 -1.242 -1.250   -1.251   -1.168 -1.031 -1.560 -1.330   -1.331 3.6190       5.557 5.557 0.000
VANMET_231 2018-01-19 12:35:00 231 11739.0   -1.029 -0.931 -1.296 -1.356   100.000   -1.297 2.659 3.181 3.333 3.391 0.302 0.314 0.391 0.688 24.28 170.50   1.3730 231.90 32.48 0 1 0   -0.983 -0.904 -1.323 -1.257   -1.257   -1.101 -0.988 -1.456 -1.363   -1.364 2.6590       5.555 5.555 -0.000
VANMET_231 2018-01-19 12:30:00 231 11739.0   -1.182 -1.071 -1.437 -1.454   100.000   -1.438 2.661 3.183 3.333 3.390 0.302 0.314 0.391 0.689 21.46 170.00   1.0070 238.20 26.45 0 1 0   -1.107 -0.993 -1.326 -1.363   -1.364   -1.258 -1.147 -1.572 -1.525   -1.526 1.7510       5.498 5.497 0.000
VANMET_231 2018-01-19 12:25:00 231 11739.0   -1.363 -1.247 -1.576 -1.605   100.000   -1.577 2.664 3.186 3.333 3.390 0.302 0.315 0.391 0.689 22.46 166.50   1.2540 227.70 36.71 0 1 0   -1.273 -1.158 -1.540 -1.512   -1.513   -1.420 -1.318 -1.687 -1.628   -1.629 2.1300       5.442 5.441 0.000
VANMET_231 2018-01-19 12:20:00 231 11739.0   -1.437 -1.333 -1.675 -1.577   100.000   -1.676 2.667 3.188 3.332 3.390 0.302 0.315 0.391 0.689 16.19 166.50   1.2170 231.50 19.83 0 1 0   -1.393 -1.290 -1.534 -1.622   -1.623   -1.498 -1.390 -1.623 -1.731   -1.732 1.7380       5.402 5.402 0.000
VANMET_231 2018-01-19 12:15:00 231 11739.0   -1.558 -1.457 -1.764 -1.673   100.000   -1.765 2.669 3.190 3.332 3.390 0.302 0.315 0.391 0.689 14.65 164.50   1.1220 232.20 21.60 0 1 0   -1.496 -1.398 -1.586 -1.728   -1.729   -1.624 -1.514 -1.747 -1.798   -1.799 2.1040       5.367 5.366 -0.000
VANMET_231 2018-01-19 12:10:00 231 11739.0   -1.589 -1.501 -1.769 -1.735   100.000   -1.770 2.672 3.192 3.332 3.390 0.302 0.315 0.391 0.689 14.03 163.50   2.0780 222.60 21.36 0 1 0   -1.555 -1.472 -1.701 -1.724   -1.725   -1.620 -1.524 -1.785 -1.811   -1.812 3.7440       5.365 5.364 0.000
VANMET_231 2018-01-19 12:05:00 231 11739.0   -1.485 -1.390 -1.658 -1.723   100.000   -1.659 2.674 3.195 3.332 3.390 0.302 0.315 0.391 0.689 16.03 162.50   1.8520 237.50 23.33 0 1 0   -1.390 -1.305 -1.678 -1.595   -1.596   -1.543 -1.455 -1.775 -1.714   -1.715 3.7370       5.409 5.409 0.000
VANMET_231 2018-01-19 12:00:00 231 11739.0   -1.349 -1.260 -1.599 -1.567   100.000   -1.600 2.676 3.197 3.332 3.390 0.302 0.315 0.391 0.689 17.45 161.50   1.4080 228.30 23.60 0 1 0   -1.308 -1.223 -1.456 -1.571   -1.572   -1.411 -1.322 -1.697 -1.625   -1.626 3.9980       5.433 5.432 0.000
VANMET_231 2018-01-19 11:55:00 231 11739.0   -1.459 -1.342 -1.656 -1.708   100.000   -1.657 2.679 3.199 3.331 3.389 0.303 0.315 0.391 0.689 19.53 162.00   1.4360 230.50 21.60 0 1 0   -1.409 -1.310 -1.628 -1.631   -1.632   -1.495 -1.380 -1.790 -1.678   -1.679 2.3980       5.410 5.409 0.000
VANMET_231 2018-01-19 11:50:00 231 11739.0   -1.451 -1.354 -1.653 -1.663   100.000   -1.654 2.682 3.201 3.331 3.389 0.303 0.315 0.391 0.689 21.27 161.50   1.6090 223.10 37.61 0 1 0   -1.410 -1.307 -1.578 -1.628   -1.629   -1.495 -1.408 -1.794 -1.680   -1.681 3.3120       5.411 5.411 0.000
VANMET_231 2018-01-19 11:45:00 231 11739.0   -1.503 -1.382 -1.657 -1.727   100.000   -1.658 2.684 3.203 3.331 3.389 0.303 0.315 0.391 0.689 20.86 162.00   1.3870 224.70 25.25 0 1 0   -1.449 -1.337 -1.582 -1.634   -1.635   -1.535 -1.415 -1.777 -1.671   -1.672 2.4240       5.409 5.409 0.000
VANMET_231 2018-01-19 11:40:00 231 11739.0   -1.473 -1.352 -1.636 -1.725   100.000   -1.637 2.687 3.206 3.331 3.388 0.303 0.315 0.391 0.689 18.98 162.00   1.5140 227.60 28.86 0 1 0   -1.404 -1.312 -1.675 -1.594   -1.595   -1.523 -1.382 -1.787 -1.654   -1.655 3.1620       5.418 5.417 0.000
VANMET_231 2018-01-19 11:35:00 231 11739.0   -1.432 -1.323 -1.640 -1.680   100.000   -1.641 2.689 3.208 3.330 3.388 0.303 0.315 0.391 0.689 18.63 162.50   1.1240 228.90 20.40 0 1 0   -1.397 -1.299 -1.579 -1.607   -1.608   -1.471 -1.340 -1.812 -1.674   -1.675 2.0190       5.416 5.416 0.000
VANMET_231 2018-01-19 11:30:00 231 11739.0   -1.430 -1.347 -1.668 -1.598   100.000   -1.669 2.692 3.210 3.330 3.388 0.303 0.315 0.391 0.689 18.51 162.00   1.4420 237.30 21.39 0 1 0   -1.374 -1.289 -1.442 -1.637   -1.638   -1.479 -1.391 -1.763 -1.697   -1.698 3.9850       5.405 5.405 0.000
VANMET_231 2018-01-19 11:25:00 231 11739.0   -1.510 -1.408 -1.695 -1.701   100.000   -1.696 2.694 3.213 3.330 3.388 0.303 0.315 0.391 0.689 18.66 161.50   1.5740 232.70 21.83 0 1 0   -1.466 -1.377 -1.616 -1.660   -1.661   -1.584 -1.441 -1.828 -1.713   -1.714 2.8350       5.394 5.394 0.000
VANMET_231 2018-01-19 11:20:00 231 11739.0   -1.500 -1.383 -1.647 -1.737   100.000   -1.648 2.697 3.215 3.330 3.387 0.303 0.315 0.391 0.689 20.67 160.00   1.6920 219.30 28.27 0 1 0   -1.460 -1.335 -1.649 -1.607   -1.608   -1.599 -1.443 -1.863 -1.703   -1.704 3.1880       5.413 5.413 0.000
VANMET_231 2018-01-19 11:15:00 231 11739.0   -1.426 -1.306 -1.640 -1.631   100.000   -1.641 2.699 3.217 3.330 3.387 0.303 0.315 0.391 0.689 17.72 159.00   1.2300 221.50 14.19 0 1 0   -1.391 -1.265 -1.489 -1.617   -1.618   -1.485 -1.334 -1.759 -1.670   -1.671 2.4760       5.416 5.416 0.000
VANMET_231 2018-01-19 11:10:00 231 11739.0   -1.490 -1.378 -1.722 -1.708   100.000   -1.723 2.702 3.219 3.329 3.387 0.303 0.315 0.391 0.689 18.50 156.50   0.9700 214.60 31.49 0 1 0   -1.436 -1.333 -1.652 -1.666   -1.667   -1.549 -1.425 -1.763 -1.773   -1.774 1.6400       5.383 5.383 0.000
VANMET_231 2018-01-19 11:05:00 231 11739.0   -1.616 -1.500 -1.803 -1.738   100.000   -1.804 2.705 3.222 3.330 3.387 0.303 0.315 0.391 0.689 16.74 156.50   1.0650 225.70 34.80 0 1 0   -1.553 -1.429 -1.663 -1.763   -1.764   -1.659 -1.541 -1.849 -1.833   -1.834 2.0710       5.351 5.351 0.000
VANMET_231 2018-01-19 11:00:00 231 11739.0   -1.680 -1.575 -1.816 -1.802   100.000   -1.817 2.707 3.224 3.329 3.387 0.303 0.315 0.391 0.689 15.65 157.00   1.1300 247.80 25.43 0 1 0   -1.647 -1.545 -1.758 -1.799   -1.800   -1.721 -1.613 -1.885 -1.832   -1.833 2.1890       5.346 5.346 -0.000
VANMET_231 2018-01-19 10:55:00 231 11739.0   -1.696 -1.576 -1.783 -1.858   100.000   -1.784 2.710 3.226 3.329 3.386 0.303 0.315 0.391 0.689 12.51 156.50   1.0510 253.70 28.54 0 1 0   -1.669 -1.551 -1.775 -1.766   -1.767   -1.720 -1.610 -1.948 -1.806   -1.807 1.8420       5.359 5.359 -0.000
VANMET_231 2018-01-19 10:50:00 231 11739.0   -1.542 -1.449 -1.721 -1.753   100.000   -1.722 2.712 3.229 3.328 3.386 0.303 0.315 0.391 0.689 11.84 156.00   1.2170 240.80 19.78 0 1 0   -1.478 -1.374 -1.587 -1.689   -1.690   -1.642 -1.542 -1.862 -1.772   -1.773 1.9140       5.384 5.383 0.000
VANMET_231 2018-01-19 10:45:00 231 11739.0   -1.532 -1.430 -1.713 -1.694   100.000   -1.714 2.715 3.231 3.328 3.386 0.303 0.316 0.391 0.689 14.08 148.50   1.0350 241.90 32.76 0 1 0   -1.508 -1.393 -1.630 -1.692   -1.693   -1.561 -1.473 -1.752 -1.742   -1.743 2.0250       5.387 5.387 0.000
VANMET_231 2018-01-19 10:40:00 231 11739.0   -1.544 -1.442 -1.746 -1.734   100.000   -1.747 2.718 3.234 3.328 3.386 0.303 0.316 0.391 0.689 13.88 143.00   1.0070 244.80 35.36 0 1 0   -1.532 -1.405 -1.667 -1.722   -1.723   -1.562 -1.476 -1.812 -1.765   -1.766 1.5550       5.374 5.374 0.000
VANMET_231 2018-01-19 10:35:00 231 11739.0   -1.583 -1.477 -1.788 -1.721   100.000   -1.789 2.720 3.236 3.327 3.386 0.303 0.316 0.391 0.689 14.84 141.50   0.9550 220.20 19.54 0 1 0   -1.538 -1.424 -1.596 -1.755   -1.756   -1.624 -1.501 -1.835 -1.828   -1.829 1.4370       5.357 5.357 0.000
VANMET_231 2018-01-19 10:30:00 231 11739.0   -1.611 -1.509 -1.825 -1.747   100.000   -1.826 2.723 3.238 3.327 3.385 0.304 0.316 0.391 0.689 14.73 143.00   0.8930 230.00 19.44 0 1 0   -1.555 -1.468 -1.711 -1.788   -1.789   -1.700 -1.575 -1.831 -1.871   -1.873 1.7250       5.343 5.342 0.000
VANMET_231 2018-01-19 10:25:00 231 11739.0   -1.689 -1.596 -1.826 -1.875   100.000   -1.827 2.726 3.240 3.327 3.385 0.304 0.316 0.392 0.689 14.83 143.00   1.0980 237.20 24.35 0 1 0   -1.658 -1.574 -1.803 -1.805   -1.806   -1.704 -1.613 -1.964 -1.845   -1.846 2.5870       5.342 5.342 0.000
VANMET_231 2018-01-19 10:20:00 231 11739.0   -1.616 -1.536 -1.806 -1.869   100.000   -1.807 2.729 3.242 3.327 3.385 0.304 0.316 0.392 0.689 16.68 142.50   1.0880 247.50 16.91 0 1 0   -1.593 -1.516 -1.780 -1.781   -1.783   -1.675 -1.584 -1.978 -1.845   -1.846 2.5020       5.350 5.350 0.000
VANMET_231 2018-01-19 10:15:00 231 11739.0   -1.703 -1.603 -1.876 -1.829   100.000   -1.877 2.731 3.245 3.326 3.384 0.304 0.316 0.392 0.689 14.16 141.50   0.8560 240.80 19.13 0 1 0   -1.646 -1.553 -1.776 -1.835   -1.836   -1.747 -1.635 -1.885 -1.908   -1.909 1.3650       5.323 5.322 0.000
VANMET_231 2018-01-19 10:10:00 231 11739.0   -1.775 -1.659 -1.911 -1.881   100.000   -1.912 2.734 3.247 3.326 3.384 0.304 0.316 0.392 0.690 11.11 138.50   0.8380 231.60 23.89 0 1 0   -1.755 -1.640 -1.808 -1.891   -1.892   -1.801 -1.670 -1.956 -1.924   -1.925 1.3790       5.309 5.308 -0.000
VANMET_231 2018-01-19 10:05:00 231 11739.0   -1.761 -1.652 -1.861 -1.896   100.000   -1.862 2.737 3.250 3.326 3.384 0.304 0.316 0.392 0.690 10.77 133.00   1.0740 245.70 23.23 0 1 0   -1.727 -1.617 -1.839 -1.834   -1.835   -1.783 -1.678 -1.998 -1.908   -1.909 2.0450       5.328 5.328 0.000
VANMET_231 2018-01-19 10:00:00 231 11739.0   -1.693 -1.593 -1.824 -1.823   100.000   -1.825 2.739 3.252 3.326 3.384 0.304 0.316 0.392 0.690 11.38 133.00   0.8160 249.70 26.34 0 1 0   -1.646 -1.553 -1.769 -1.787   -1.788   -1.738 -1.624 -1.878 -1.841   -1.842 1.3460       5.343 5.343 0.000
VANMET_231 2018-01-19 09:55:00 231 11739.0   -1.597 -1.508 -1.799 -1.811   100.000   -1.800 2.742 3.254 3.326 3.384 0.304 0.316 0.392 0.690 12.17 134.00   1.0570 231.50 18.76 0 1 0   -1.555 -1.468 -1.696 -1.788   -1.789   -1.645 -1.550 -1.910 -1.811   -1.812 2.0970       5.353 5.353 0.000
VANMET_231 2018-01-19 09:50:00 231 11739.0   -1.629 -1.553 -1.868 -1.830   100.000   -1.869 2.744 3.256 3.325 3.384 0.304 0.316 0.392 0.690 18.60 132.50   0.7560 248.90 15.55 0 1 0   -1.578 -1.500 -1.774 -1.817   -1.818   -1.696 -1.626 -1.911 -1.911   -1.912 1.4500       5.326 5.325 0.000
VANMET_231 2018-01-19 09:45:00 231 11739.0   -1.757 -1.662 -1.966 -1.893   100.000   -1.967 2.747 3.259 3.325 3.383 0.304 0.316 0.392 0.690 16.70 132.50   0.9430 241.10 20.32 0 1 0   -1.698 -1.605 -1.828 -1.921   -1.922   -1.796 -1.701 -1.944 -2.010   -2.011 1.8750       5.287 5.287 0.000
VANMET_231 2018-01-19 09:40:00 231 11739.0   -1.871 -1.777 -2.054 -1.922   100.000   -2.056 2.750 3.262 3.325 3.383 0.304 0.316 0.392 0.690 11.27 131.50   0.7470 241.70 13.23 0 1 0   -1.803 -1.710 -1.806 -2.013   -2.015   -1.921 -1.824 -2.026 -2.077   -2.078 1.0450       5.253 5.252 0.000
VANMET_231 2018-01-19 09:35:00 231 11739.0   -1.915 -1.809 -2.074 -2.029   100.000   -2.076 2.753 3.264 3.325 3.383 0.304 0.316 0.392 0.690 10.62 132.00   1.1830 232.20 30.11 0 1 0   -1.886 -1.777 -1.970 -2.060   -2.061   -1.929 -1.829 -2.078 -2.090   -2.091 2.3910       5.245 5.244 0.000
VANMET_231 2018-01-19 09:30:00 231 11739.0   -1.904 -1.795 -2.065 -2.013   100.000   -2.066 2.755 3.266 3.324 3.383 0.304 0.316 0.392 0.690 9.49 131.50   0.8620 217.00 32.54 0 1 0   -1.856 -1.757 -1.944 -2.030   -2.031   -1.919 -1.807 -2.097 -2.083   -2.084 1.5030       5.249 5.248 0.000
VANMET_231 2018-01-19 09:25:00 231 11739.0   -1.857 -1.738 -2.045 -1.970   100.000   -2.046 2.758 3.268 3.324 3.382 0.304 0.316 0.392 0.690 9.89 131.50   0.9350 232.00 24.98 0 1 0   -1.836 -1.722 -1.877 -2.016   -2.017   -1.882 -1.762 -2.095 -2.086   -2.087 1.4370       5.256 5.256 0.000
VANMET_231 2018-01-19 09:20:00 231 11739.0   -1.907 -1.781 -2.103 -1.953   100.000   -2.104 2.761 3.271 3.324 3.382 0.305 0.317 0.392 0.690 9.60 131.50   0.8290 222.30 25.25 0 1 0   -1.881 -1.761 -1.896 -2.076   -2.077   -1.926 -1.795 -2.021 -2.129   -2.130 1.4180       5.234 5.234 0.000
VANMET_231 2018-01-19 09:15:00 231 11739.0   -1.939 -1.824 -2.156 -2.016   100.000   -2.158 2.764 3.273 3.324 3.382 0.305 0.317 0.392 0.690 10.40 131.50   0.7310 211.30 23.51 0 1 0   -1.908 -1.793 -1.946 -2.116   -2.117   -1.963 -1.850 -2.073 -2.193   -2.194 1.7250       5.213 5.213 0.000
VANMET_231 2018-01-19 09:10:00 231 11739.0   -2.010 -1.896 -2.231 -2.010   100.000   -2.232 2.766 3.276 3.324 3.382 0.305 0.317 0.392 0.690 9.05 131.50   0.6090 218.40 23.15 0 1 0   -1.973 -1.857 -1.958 -2.186   -2.187   -2.056 -1.945 -2.056 -2.276   -2.277 1.6070       5.184 5.184 0.000
VANMET_231 2018-01-19 09:05:00 231 11739.0   -2.089 -1.983 -2.299 -2.079   100.000   -2.300 2.770 3.278 3.323 3.382 0.305 0.317 0.392 0.690 7.57 132.00   0.9810 228.60 15.13 0 1 0   -2.064 -1.954 -2.032 -2.259   -2.260   -2.118 -2.013 -2.132 -2.322   -2.323 1.8690       5.158 5.158 0.000
VANMET_231 2018-01-19 09:00:00 231 11739.0   -2.136 -2.032 -2.327 -2.138   100.000   -2.329 2.772 3.280 3.323 3.382 0.305 0.317 0.392 0.690 6.76 132.00   1.2670 226.60 15.25 0 1 0   -2.115 -2.018 -2.108 -2.315   -2.317   -2.159 -2.053 -2.168 -2.339   -2.340 2.1760       5.148 5.147 -0.000
VANMET_231 2018-01-19 08:55:00 231 11739.0   -2.143 -2.037 -2.318 -2.162   100.000   -2.319 2.775 3.283 3.322 3.381 0.305 0.317 0.392 0.690 6.43 130.50   1.4330 235.60 26.84 0 1 0   -2.105 -2.000 -2.113 -2.278   -2.280   -2.176 -2.071 -2.219 -2.349   -2.350 3.2600       5.151 5.151 0.000
VANMET_231 2018-01-19 08:50:00 231 11739.0   -2.110 -2.008 -2.309 -2.124   100.000   -2.311 2.778 3.286 3.322 3.381 0.305 0.317 0.392 0.690 7.11 129.00   1.3250 228.60 22.20 0 1 0   -2.099 -1.997 -2.086 -2.292   -2.293   -2.123 -2.020 -2.176 -2.332   -2.333 1.8690       5.155 5.154 0.000
VANMET_231 2018-01-19 08:45:00 231 11739.0   -2.132 -2.021 -2.336 -2.146   100.000   -2.337 2.781 3.288 3.322 3.381 0.305 0.317 0.392 0.690 7.88 129.00   1.2600 229.40 16.47 0 1 0   -2.114 -2.005 -2.113 -2.309   -2.310   -2.146 -2.036 -2.199 -2.365   -2.367 2.5940       5.144 5.144 0.000
VANMET_231 2018-01-19 08:40:00 231 11739.0   -2.184 -2.068 -2.395 -2.126   100.000   -2.396 2.784 3.291 3.322 3.381 0.305 0.317 0.392 0.690 5.73 128.50   1.1210 216.60 29.24 0 1 0   -2.148 -2.037 -2.075 -2.362   -2.363   -2.220 -2.100 -2.201 -2.425   -2.426 2.5870       5.122 5.121 0.000
VANMET_231 2018-01-19 08:35:00 231 11739.0   -2.235 -2.114 -2.432 -2.172   100.000   -2.434 2.786 3.293 3.321 3.380 0.305 0.317 0.392 0.690 5.39 128.00   1.0450 219.90 39.60 0 1 0   -2.219 -2.095 -2.127 -2.412   -2.413   -2.259 -2.146 -2.236 -2.452   -2.453 3.0180       5.108 5.107 0.000
VANMET_231 2018-01-19 08:30:00 231 11739.0   -2.252 -2.129 -2.455 -2.177   100.000   -2.456 2.789 3.295 3.321 3.380 0.305 0.317 0.392 0.690 3.38 127.50   1.2130 209.50 29.89 0 1 0   -2.236 -2.113 -2.101 -2.438   -2.440   -2.262 -2.140 -2.237 -2.468   -2.470 1.8550       5.099 5.099 0.000
VANMET_231 2018-01-19 08:25:00 231 11739.0   -2.269 -2.157 -2.469 -2.183   100.000   -2.470 2.792 3.298 3.320 3.380 0.305 0.317 0.392 0.690 2.71 127.00   1.1440 228.00 21.07 0 1 0   -2.261 -2.141 -2.132 -2.455   -2.456   -2.275 -2.164 -2.224 -2.485   -2.486 2.3450       5.094 5.093 0.000
VANMET_231 2018-01-19 08:20:00 231 11739.0   -2.278 -2.164 -2.481 -2.201   100.000   -2.482 2.795 3.300 3.320 3.380 0.305 0.317 0.392 0.690 1.96 122.50   1.3070 228.00 31.42 0 1 0   -2.275 -2.156 -2.181 -2.468   -2.470   -2.282 -2.169 -2.227 -2.491   -2.493 2.7310       5.089 5.089 0.000
VANMET_231 2018-01-19 08:15:00 231 11739.0   -2.291 -2.174 -2.506 -2.178   100.000   -2.508 2.798 3.303 3.320 3.380 0.306 0.317 0.392 0.690 2.13 117.50   1.2050 237.60 15.13 0 1 0   -2.274 -2.156 -2.142 -2.485   -2.486   -2.310 -2.195 -2.240 -2.531   -2.533 2.0120       5.080 5.079 0.000
VANMET_231 2018-01-19 08:10:00 231 11739.0   -2.316 -2.202 -2.526 -2.222   100.000   -2.528 2.801 3.305 3.320 3.380 0.306 0.317 0.392 0.690 1.90 114.00   1.1070 220.30 19.01 0 1 0   -2.309 -2.192 -2.174 -2.508   -2.510   -2.326 -2.219 -2.256 -2.542   -2.543 2.2540       5.072 5.071 0.000
VANMET_231 2018-01-19 08:05:00 231 11739.0   -2.347 -2.231 -2.534 -2.236   100.000   -2.535 2.803 3.307 3.319 3.379 0.306 0.317 0.392 0.690 1.49 113.50   1.3840 226.50 13.41 0 1 0   -2.327 -2.217 -2.174 -2.512   -2.513   -2.364 -2.246 -2.295 -2.558   -2.560 2.4430       5.069 5.069 0.000
VANMET_231 2018-01-19 08:00:00 231 11739.0   -2.335 -2.220 -2.524 -2.236   100.000   -2.525 2.806 3.310 3.319 3.379 0.306 0.317 0.392 0.690 1.02 113.50   1.4390 226.20 16.04 0 1 0   -2.321 -2.209 -2.180 -2.511   -2.513   -2.355 -2.237 -2.300 -2.538   -2.540 3.2540       5.073 5.073 0.000
VANMET_231 2018-01-19 07:55:00 231 11739.0   -2.316 -2.202 -2.516 -2.230   100.000   -2.517 2.809 3.312 3.319 3.379 0.306 0.318 0.393 0.690 0.58 113.50   1.3320 221.70 21.55 0 1 0   -2.303 -2.183 -2.154 -2.508   -2.510   -2.331 -2.222 -2.277 -2.531   -2.533 2.7180       5.076 5.076 0.000
VANMET_231 2018-01-19 07:50:00 231 11739.0   -2.313 -2.194 -2.511 -2.193   100.000   -2.512 2.812 3.315 3.319 3.379 0.306 0.318 0.393 0.691 0.38 113.50   0.8340 217.90 25.49 0 1 0   -2.305 -2.186 -2.118 -2.495   -2.497   -2.318 -2.200 -2.233 -2.528   -2.530 1.4240       5.078 5.077 0.000
VANMET_231 2018-01-19 07:45:00 231 11739.0   -2.310 -2.186 -2.515 -2.167   100.000   -2.516 2.815 3.317 3.318 3.379 0.306 0.318 0.393 0.691 0.29 116.50   1.0680 221.90 34.15 0 1 0   -2.291 -2.167 -2.134 -2.498   -2.500   -2.340 -2.219 -2.245 -2.535   -2.536 2.2210       5.076 5.076 0.000
VANMET_231 2018-01-19 07:40:00 231 11739.0   -2.346 -2.221 -2.525 -2.228   100.000   -2.526 2.818 3.320 3.318 3.378 0.306 0.318 0.393 0.691 0.21 117.50   1.1260 237.20 14.38 0 1 0   -2.341 -2.212 -2.187 -2.512   -2.513   -2.351 -2.224 -2.250 -2.542   -2.543 1.9670       5.073 5.072 0.000
VANMET_231 2018-01-19 07:35:00 231 11739.0   -2.338 -2.209 -2.531 -2.214   100.000   -2.532 2.821 3.322 3.317 3.378 0.306 0.318 0.393 0.691 0.10 118.00   0.6920 247.20 8.07 0 1 0   -2.334 -2.205 -2.182 -2.512   -2.513   -2.346 -2.217 -2.246 -2.545   -2.546 0.9730       5.070 5.070 0.000
VANMET_231 2018-01-19 07:30:00 231 11739.0   -2.352 -2.221 -2.553 -2.180   100.000   -2.554 2.824 3.325 3.317 3.378 0.306 0.318 0.393 0.691 0.08 121.00   1.0390 244.50 20.34 0 1 0   -2.332 -2.199 -2.098 -2.522   -2.523   -2.377 -2.246 -2.231 -2.578   -2.579 1.6400       5.062 5.062 0.000
VANMET_231 2018-01-19 07:25:00 231 11739.0   -2.379 -2.256 -2.570 -2.246   100.000   -2.571 2.827 3.327 3.316 3.378 0.306 0.318 0.393 0.691 0.07 126.00   1.0210 238.50 20.88 0 1 0   -2.372 -2.249 -2.212 -2.548   -2.550   -2.384 -2.260 -2.304 -2.585   -2.586 2.4110       5.056 5.055 0.000
VANMET_231 2018-01-19 07:20:00 231 11739.0   -2.375 -2.258 -2.579 -2.260   100.000   -2.580 2.830 3.330 3.316 3.377 0.306 0.318 0.393 0.691 0.04 128.00   0.8910 225.20 14.00 0 1 0   -2.367 -2.254 -2.219 -2.562   -2.563   -2.387 -2.262 -2.292 -2.595   -2.596 1.4240       5.052 5.052 0.000
VANMET_231 2018-01-19 07:15:00 231 11739.0   -2.387 -2.275 -2.586 -2.249   100.000   -2.587 2.832 3.333 3.316 3.377 0.307 0.318 0.393 0.691 0.06 128.50   1.1630 221.90 17.74 0 1 0   -2.372 -2.263 -2.189 -2.575   -2.576   -2.400 -2.292 -2.308 -2.595   -2.596 2.6130       5.050 5.049 0.000
VANMET_231 2018-01-19 07:10:00 231 11739.0   -2.375 -2.266 -2.561 -2.279   100.000   -2.562 2.836 3.335 3.316 3.377 0.307 0.318 0.393 0.691 0.03 129.00   1.7160 215.80 28.45 0 1 0   -2.363 -2.245 -2.218 -2.535   -2.536   -2.398 -2.290 -2.318 -2.585   -2.586 2.9330       5.059 5.059 0.000
VANMET_231 2018-01-19 07:05:00 231 11739.0   -2.352 -2.239 -2.540 -2.249   100.000   -2.542 2.839 3.337 3.315 3.377 0.307 0.318 0.393 0.691 0.02 129.00   1.3480 224.70 26.51 0 1 0   -2.336 -2.228 -2.204 -2.528   -2.530   -2.368 -2.251 -2.282 -2.555   -2.557 2.3320       5.067 5.066 0.000
VANMET_231 2018-01-19 07:00:00 231 11739.0   -2.332 -2.229 -2.519 -2.246   100.000   -2.520 2.841 3.340 3.315 3.377 0.307 0.318 0.393 0.691 0.01 129.00   1.3710 230.00 18.35 0 1 0   -2.294 -2.200 -2.173 -2.485   -2.486   -2.348 -2.243 -2.293 -2.545   -2.547 2.1170       5.075 5.074 0.000
VANMET_231 2018-01-19 06:55:00 231 11739.0   -2.253 -2.150 -2.468 -2.174   100.000   -2.470 2.845 3.342 3.314 3.377 0.307 0.318 0.393 0.691 0.00 129.50   1.5410 211.80 23.18 0 1 0   -2.239 -2.133 -2.104 -2.452   -2.453   -2.286 -2.189 -2.266 -2.492   -2.493 2.8810       5.094 5.093 0.000
VANMET_231 2018-01-19 06:50:00 231 11739.0   -2.230 -2.127 -2.466 -2.128   100.000   -2.467 2.847 3.345 3.314 3.376 0.307 0.318 0.393 0.691 0.00 129.50   1.2200 227.90 12.73 0 1 0   -2.220 -2.114 -2.067 -2.452   -2.453   -2.241 -2.139 -2.158 -2.482   -2.483 1.7640       5.095 5.094 0.000
VANMET_231 2018-01-19 06:45:00 231 11739.0   -2.247 -2.134 -2.487 -2.095   100.000   -2.488 2.851 3.347 3.313 3.376 0.307 0.318 0.393 0.691 0.01 129.00   0.7920 229.50 11.12 0 1 0   -2.228 -2.121 -2.041 -2.468   -2.470   -2.267 -2.154 -2.125 -2.508   -2.510 1.4110       5.087 5.086 0.000
VANMET_231 2018-01-19 06:40:00 231 11739.0   -2.289 -2.180 -2.508 -2.152   100.000   -2.509 2.854 3.350 3.313 3.376 0.307 0.318 0.393 0.691 0.00 128.50   0.9870 224.50 17.12 0 1 0   -2.271 -2.157 -2.092 -2.482   -2.483   -2.301 -2.193 -2.218 -2.521   -2.523 1.9860       5.079 5.079 0.000
VANMET_231 2018-01-19 06:35:00 231 11739.0   -2.271 -2.167 -2.509 -2.136   100.000   -2.510 2.856 3.353 3.312 3.375 0.307 0.319 0.393 0.691 0.01 128.00   1.0830 229.70 28.73 0 1 0   -2.249 -2.149 -2.038 -2.488   -2.490   -2.298 -2.188 -2.235 -2.525   -2.527 2.8880       5.079 5.078 0.000
VANMET_231 2018-01-19 06:30:00 231 11739.0   -2.314 -2.201 -2.525 -2.193   100.000   -2.526 2.860 3.355 3.312 3.375 0.307 0.319 0.393 0.691 0.03 128.00   0.9960 235.00 16.56 0 1 0   -2.300 -2.190 -2.144 -2.502   -2.503   -2.321 -2.208 -2.236 -2.545   -2.547 1.9080       5.073 5.072 0.000
VANMET_231 2018-01-19 06:25:00 231 11739.0   -2.325 -2.211 -2.523 -2.201   100.000   -2.524 2.863 3.358 3.312 3.375 0.307 0.319 0.393 0.691 0.05 128.00   1.0310 232.40 24.09 0 1 0   -2.308 -2.200 -2.160 -2.502   -2.504   -2.338 -2.221 -2.252 -2.539   -2.540 1.5610       5.073 5.073 0.000
VANMET_231 2018-01-19 06:20:00 231 11739.0   -2.322 -2.204 -2.512 -2.210   100.000   -2.514 2.865 3.360 3.311 3.374 0.307 0.319 0.393 0.691 0.05 128.00   1.1610 241.20 29.39 0 1 0   -2.310 -2.193 -2.163 -2.499   -2.500   -2.337 -2.219 -2.252 -2.522   -2.524 2.1360       5.077 5.077 0.000
VANMET_231 2018-01-19 06:15:00 231 11739.0   -2.305 -2.185 -2.511 -2.181   100.000   -2.513 2.869 3.363 3.311 3.375 0.307 0.319 0.393 0.691 0.06 127.50   1.1720 231.90 17.85 0 1 0   -2.299 -2.180 -2.145 -2.489   -2.490   -2.309 -2.190 -2.211 -2.526   -2.527 2.9920       5.078 5.077 0.000
VANMET_231 2018-01-19 06:10:00 231 11739.0   -2.309 -2.199 -2.521 -2.181   100.000   -2.523 2.872 3.365 3.311 3.374 0.308 0.319 0.393 0.691 0.07 126.50   1.1010 214.80 24.58 0 1 0   -2.304 -2.191 -2.143 -2.506   -2.507   -2.316 -2.203 -2.225 -2.542   -2.544 2.0060       5.074 5.073 0.000
VANMET_231 2018-01-19 06:05:00 231 11739.0   -2.308 -2.197 -2.526 -2.186   100.000   -2.527 2.875 3.368 3.310 3.374 0.307 0.319 0.393 0.691 0.07 126.50   1.4390 222.70 19.04 0 1 0   -2.299 -2.189 -2.135 -2.502   -2.504   -2.321 -2.207 -2.229 -2.546   -2.547 2.7770       5.072 5.072 0.000
VANMET_231 2018-01-19 06:00:00 231 11739.0   -2.334 -2.224 -2.525 -2.212   100.000   -2.527 2.878 3.370 3.310 3.374 0.308 0.319 0.393 0.691 0.07 126.50   1.1690 227.30 22.20 0 1 0   -2.316 -2.203 -2.131 -2.506   -2.507   -2.344 -2.231 -2.262 -2.549   -2.550 2.0910       5.073 5.072 0.000
VANMET_231 2018-01-19 05:55:00 231 11739.0   -2.300 -2.188 -2.486 -2.211   100.000   -2.487 2.881 3.373 3.310 3.374 0.308 0.319 0.393 0.692 0.07 126.50   1.5170 230.40 17.48 0 1 0   -2.279 -2.166 -2.162 -2.469   -2.470   -2.321 -2.213 -2.265 -2.519   -2.520 2.6530       5.087 5.087 0.000
VANMET_231 2018-01-19 05:50:00 231 11739.0   -2.274 -2.162 -2.454 -2.165   100.000   -2.455 2.884 3.375 3.309 3.374 0.308 0.319 0.393 0.692 0.07 127.00   1.8540 230.70 12.55 0 1 0   -2.236 -2.128 -2.085 -2.423   -2.424   -2.290 -2.179 -2.236 -2.476   -2.477 3.5480       5.099 5.099 0.000
VANMET_231 2018-01-19 05:45:00 231 11739.0   -2.209 -2.098 -2.395 -2.118   100.000   -2.397 2.887 3.378 3.309 3.373 0.308 0.319 0.393 0.692 0.06 128.00   1.7030 235.60 17.84 0 1 0   -2.200 -2.088 -2.021 -2.376   -2.377   -2.223 -2.116 -2.171 -2.409   -2.411 3.0050       5.122 5.121 0.000
VANMET_231 2018-01-19 05:40:00 231 11739.0   -2.152 -2.039 -2.354 -2.048   100.000   -2.356 2.890 3.380 3.308 3.373 0.308 0.319 0.393 0.692 0.02 128.00   1.5750 225.90 25.83 0 1 0   -2.130 -2.016 -1.965 -2.339   -2.341   -2.195 -2.088 -2.182 -2.393   -2.394 2.4890       5.137 5.137 0.000
VANMET_231 2018-01-19 05:35:00 231 11739.0   -2.147 -2.033 -2.345 -2.056   100.000   -2.346 2.893 3.383 3.308 3.373 0.308 0.319 0.394 0.692 0.01 128.00   1.3620 224.20 20.73 0 1 0   -2.119 -2.007 -2.019 -2.319   -2.321   -2.167 -2.048 -2.098 -2.363   -2.364 2.5740       5.141 5.140 0.000
VANMET_231 2018-01-19 05:30:00 231 11739.0   -2.114 -2.008 -2.343 -1.990   100.000   -2.344 2.897 3.386 3.307 3.373 0.308 0.319 0.394 0.692 0.01 127.00   1.1320 219.10 21.92 0 1 0   -2.102 -1.998 -1.940 -2.319   -2.321   -2.125 -2.017 -2.044 -2.363   -2.364 1.8690       5.142 5.141 0.000
VANMET_231 2018-01-19 05:25:00 231 11739.0   -2.146 -2.039 -2.373 -1.994   100.000   -2.375 2.900 3.388 3.307 3.373 0.308 0.320 0.394 0.692 0.01 125.50   0.8930 248.30 20.64 0 1 0   -2.115 -2.010 -1.965 -2.350   -2.351   -2.181 -2.074 -2.034 -2.396   -2.398 1.2020       5.130 5.129 0.000
VANMET_231 2018-01-19 05:20:00 231 11739.0   -2.181 -2.074 -2.385 -2.067   100.000   -2.387 2.903 3.391 3.306 3.372 0.308 0.320 0.394 0.692 0.03 122.00   1.2180 240.40 16.86 0 1 0   -2.162 -2.058 -2.014 -2.369   -2.371   -2.195 -2.088 -2.127 -2.396   -2.397 2.0380       5.126 5.125 0.000
VANMET_231 2018-01-19 05:15:00 231 11739.0   -2.179 -2.069 -2.383 -2.082   100.000   -2.385 2.906 3.394 3.306 3.373 0.308 0.320 0.394 0.692 0.03 121.50   0.8220 251.80 25.95 0 1 0   -2.165 -2.059 -2.034 -2.373   -2.374   -2.189 -2.077 -2.148 -2.406   -2.408 1.7380       5.126 5.126 0.000
VANMET_231 2018-01-19 05:10:00 231 11739.0   -2.172 -2.053 -2.370 -2.039   100.000   -2.372 2.910 3.396 3.306 3.372 0.309 0.320 0.394 0.692 0.05 119.00   0.9390 242.20 24.94 0 1 0   -2.149 -2.033 -1.971 -2.346   -2.348   -2.186 -2.068 -2.125 -2.383   -2.384 2.3850       5.131 5.131 0.000
VANMET_231 2018-01-19 05:05:00 231 11739.0   -2.140 -2.031 -2.373 -2.027   100.000   -2.375 2.913 3.399 3.305 3.372 0.309 0.320 0.394 0.692 0.06 117.00   1.3510 240.90 26.60 0 1 0   -2.127 -2.020 -1.910 -2.346   -2.348   -2.162 -2.049 -2.115 -2.390   -2.391 2.1690       5.130 5.129 0.000
VANMET_231 2018-01-19 05:00:00 231 11739.0   -2.202 -2.090 -2.406 -2.034   100.000   -2.408 2.915 3.402 3.305 3.371 0.309 0.320 0.394 0.692 0.07 115.50   0.8050 244.10 23.96 0 1 0   -2.160 -2.049 -1.925 -2.390   -2.391   -2.227 -2.115 -2.090 -2.420   -2.421 1.1760       5.118 5.117 0.000
VANMET_231 2018-01-19 04:55:00 231 11739.0   -2.228 -2.110 -2.407 -2.122   100.000   -2.408 2.919 3.404 3.304 3.371 0.309 0.320 0.394 0.692 0.07 115.00   1.2280 219.10 18.54 0 1 0   -2.219 -2.099 -2.089 -2.390   -2.391   -2.234 -2.120 -2.162 -2.423   -2.424 2.6000       5.117 5.117 0.000
VANMET_231 2018-01-19 04:50:00 231 11739.0   -2.225 -2.107 -2.384 -2.125   100.000   -2.385 2.922 3.407 3.304 3.371 0.309 0.320 0.394 0.692 0.07 114.00   1.1830 214.60 29.21 0 1 0   -2.208 -2.093 -2.047 -2.356   -2.358   -2.232 -2.115 -2.244 -2.403   -2.404 2.1300       5.126 5.126 -0.000
VANMET_231 2018-01-19 04:45:00 231 11739.0   -2.159 -2.047 -2.334 -2.089   100.000   -2.335 2.925 3.409 3.303 3.371 0.309 0.320 0.394 0.692 0.03 112.50   1.2920 226.90 21.03 0 1 0   -2.142 -2.031 -1.998 -2.320   -2.321   -2.197 -2.081 -2.196 -2.349   -2.351 3.3320       5.145 5.145 0.000
VANMET_231 2018-01-19 04:40:00 231 11739.0   -2.105 -1.987 -2.278 -2.078   100.000   -2.280 2.929 3.412 3.303 3.371 0.309 0.320 0.394 0.692 0.02 112.50   1.2930 213.20 30.42 0 1 0   -2.036 -1.925 -1.945 -2.233   -2.235   -2.167 -2.051 -2.153 -2.326   -2.328 3.3390       5.166 5.166 0.000
VANMET_231 2018-01-19 04:35:00 231 11739.0   -2.044 -1.935 -2.238 -1.936   100.000   -2.239 2.932 3.415 3.302 3.370 0.309 0.320 0.394 0.692 0.02 112.50   0.9130 231.60 27.83 0 1 0   -2.033 -1.921 -1.844 -2.227   -2.228   -2.060 -1.952 -1.994 -2.257   -2.258 2.2670       5.182 5.181 0.000
VANMET_231 2018-01-19 04:30:00 231 11739.0   -2.025 -1.911 -2.211 -1.959   100.000   -2.213 2.935 3.417 3.302 3.370 0.309 0.320 0.394 0.692 0.00 113.00   0.9610 210.00 25.25 0 1 0   -1.990 -1.879 -1.888 -2.187   -2.188   -2.054 -1.944 -2.003 -2.230   -2.231 2.3260       5.192 5.191 0.000
VANMET_231 2018-01-19 04:25:00 231 11739.0   -1.980 -1.873 -2.196 -1.876   100.000   -2.198 2.939 3.420 3.301 3.370 0.309 0.320 0.394 0.692 0.00 113.00   0.9120 222.70 18.38 0 1 0   -1.967 -1.862 -1.820 -2.177   -2.178   -1.990 -1.880 -1.911 -2.223   -2.225 2.4240       5.198 5.197 0.000
VANMET_231 2018-01-19 04:20:00 231 11739.0   -1.965 -1.862 -2.189 -1.846   100.000   -2.190 2.942 3.423 3.301 3.369 0.309 0.320 0.394 0.692 0.00 113.00   0.9180 232.50 19.04 0 1 0   -1.949 -1.848 -1.770 -2.173   -2.175   -1.980 -1.885 -1.922 -2.203   -2.205 1.2480       5.201 5.200 0.000
VANMET_231 2018-01-19 04:15:00 231 11739.0   -1.973 -1.877 -2.181 -1.885   100.000   -2.183 2.946 3.425 3.301 3.370 0.309 0.321 0.394 0.692 0.00 113.00   1.1610 237.60 22.88 0 1 0   -1.938 -1.839 -1.816 -2.160   -2.161   -1.993 -1.901 -1.963 -2.203   -2.205 2.8090       5.204 5.203 0.000
VANMET_231 2018-01-19 04:10:00 231 11739.0   -1.921 -1.831 -2.174 -1.827   100.000   -2.175 2.949 3.428 3.300 3.369 0.310 0.321 0.394 0.692 0.00 113.00   1.1030 240.00 18.00 0 1 0   -1.906 -1.820 -1.754 -2.153   -2.155   -1.939 -1.844 -1.912 -2.200   -2.201 1.5810       5.206 5.206 -0.000
VANMET_231 2018-01-19 04:05:00 231 11739.0   -1.972 -1.869 -2.197 -1.810   100.000   -2.198 2.952 3.431 3.300 3.369 0.310 0.321 0.394 0.692 0.00 113.00   0.8330 236.90 11.24 0 1 0   -1.928 -1.831 -1.748 -2.170   -2.171   -2.001 -1.896 -1.869 -2.220   -2.221 1.2220       5.198 5.197 0.000
VANMET_231 2018-01-19 04:00:00 231 11739.0   -1.992 -1.886 -2.189 -1.912   100.000   -2.190 2.956 3.434 3.299 3.369 0.310 0.321 0.394 0.692 0.00 112.50   0.9970 230.50 9.97 0 1 0   -1.957 -1.854 -1.844 -2.170   -2.171   -2.007 -1.902 -1.956 -2.210   -2.211 1.6990       5.201 5.200 0.000
VANMET_231 2018-01-19 03:55:00 231 11739.0   -1.952 -1.852 -2.182 -1.825   100.000   -2.183 2.959 3.436 3.298 3.369 0.310 0.321 0.394 0.692 0.00 112.50   1.0160 225.10 14.87 0 1 0   -1.927 -1.829 -1.729 -2.167   -2.168   -1.970 -1.866 -1.903 -2.200   -2.202 2.4960       5.203 5.203 -0.000
VANMET_231 2018-01-19 03:50:00 231 11739.0   -1.974 -1.865 -2.170 -1.848   100.000   -2.171 2.962 3.438 3.298 3.368 0.310 0.321 0.394 0.692 0.00 111.50   1.2040 226.40 12.06 0 1 0   -1.965 -1.856 -1.765 -2.157   -2.158   -1.979 -1.872 -1.893 -2.183   -2.185 1.7970       5.208 5.208 0.000
VANMET_231 2018-01-19 03:45:00 231 11739.0   -1.939 -1.840 -2.140 -1.870   100.000   -2.142 2.965 3.441 3.297 3.368 0.310 0.321 0.394 0.692 0.00 110.50   1.2550 238.80 10.53 0 1 0   -1.895 -1.793 -1.741 -2.114   -2.115   -1.975 -1.869 -1.919 -2.164   -2.165 2.4500       5.220 5.219 0.000
VANMET_231 2018-01-19 03:40:00 231 11739.0   -1.905 -1.800 -2.140 -1.787   100.000   -2.142 2.969 3.444 3.297 3.368 0.310 0.321 0.394 0.692 0.00 106.50   1.1900 233.30 10.37 0 1 0   -1.896 -1.792 -1.734 -2.120   -2.122   -1.916 -1.810 -1.833 -2.157   -2.158 2.3720       5.220 5.219 0.000
VANMET_231 2018-01-19 03:35:00 231 11739.0   -1.932 -1.820 -2.163 -1.793   100.000   -2.164 2.972 3.447 3.296 3.368 0.310 0.321 0.395 0.692 0.00 98.00   0.8870 230.40 20.97 0 1 0   -1.911 -1.798 -1.751 -2.133   -2.135   -1.949 -1.837 -1.860 -2.177   -2.178 1.5420       5.211 5.210 0.000
VANMET_231 2018-01-19 03:30:00 231 11739.0   -1.945 -1.832 -2.173 -1.823   100.000   -2.174 2.976 3.450 3.296 3.368 0.310 0.321 0.395 0.692 0.00 86.50   1.1230 224.60 16.61 0 1 0   -1.939 -1.828 -1.775 -2.160   -2.161   -1.957 -1.843 -1.842 -2.194   -2.195 1.9270       5.207 5.206 0.000
VANMET_231 2018-01-19 03:25:00 231 11739.0   -1.967 -1.855 -2.200 -1.823   100.000   -2.201 2.979 3.453 3.296 3.367 0.310 0.321 0.395 0.692 0.00 80.50   1.1220 221.10 28.25 0 1 0   -1.958 -1.844 -1.785 -2.187   -2.188   -1.991 -1.879 -1.852 -2.223   -2.225 1.9270       5.196 5.196 0.000
VANMET_231 2018-01-19 03:20:00 231 11739.0   -2.005 -1.893 -2.211 -1.885   100.000   -2.212 2.983 3.456 3.295 3.367 0.310 0.321 0.395 0.692 0.00 80.50   1.2580 244.10 22.45 0 1 0   -1.995 -1.880 -1.838 -2.200   -2.201   -2.009 -1.899 -1.927 -2.227   -2.228 2.0250       5.192 5.192 0.000
VANMET_231 2018-01-19 03:15:00 231 11739.0   -1.994 -1.884 -2.192 -1.886   100.000   -2.194 2.986 3.458 3.294 3.367 0.310 0.321 0.395 0.693 0.00 80.50   1.6730 222.80 24.20 0 1 0   -1.982 -1.872 -1.823 -2.176   -2.178   -2.003 -1.894 -1.935 -2.213   -2.214 2.8680       5.199 5.199 -0.000
VANMET_231 2018-01-19 03:10:00 231 11739.0   -1.979 -1.864 -2.176 -1.869   100.000   -2.177 2.990 3.461 3.294 3.367 0.311 0.322 0.395 0.693 0.00 80.50   1.3550 211.10 33.21 0 1 0   -1.966 -1.852 -1.822 -2.163   -2.164   -1.998 -1.885 -1.928 -2.203   -2.204 2.9010       5.206 5.205 0.000
VANMET_231 2018-01-19 03:05:00 231 11739.0   -1.962 -1.854 -2.174 -1.864   100.000   -2.175 2.993 3.464 3.293 3.367 0.311 0.322 0.395 0.693 0.00 77.00   1.2350 233.30 29.93 0 1 0   -1.944 -1.840 -1.829 -2.153   -2.155   -1.985 -1.870 -1.902 -2.187   -2.188 2.3130       5.206 5.206 -0.000
VANMET_231 2018-01-19 03:00:00 231 11739.0   -1.945 -1.840 -2.164 -1.836   100.000   -2.166 2.997 3.466 3.293 3.367 0.311 0.322 0.395 0.693 0.00 79.50   1.1760 247.50 27.55 0 1 0   -1.939 -1.831 -1.802 -2.140   -2.141   -1.955 -1.848 -1.872 -2.180   -2.181 2.5870       5.210 5.210 0.000
VANMET_231 2018-01-19 02:55:00 231 11739.0   -1.949 -1.839 -2.173 -1.827   100.000   -2.174 3.000 3.469 3.293 3.366 0.311 0.322 0.395 0.693 0.00 80.00   1.1680 252.30 24.83 0 1 0   -1.944 -1.831 -1.793 -2.160   -2.161   -1.957 -1.847 -1.861 -2.193   -2.195 2.8620       5.207 5.206 0.000
VANMET_231 2018-01-19 02:50:00 231 11739.0   -1.966 -1.856 -2.183 -1.839   100.000   -2.185 3.004 3.472 3.292 3.366 0.311 0.322 0.395 0.693 0.00 80.00   1.2190 234.50 33.25 0 1 0   -1.952 -1.841 -1.789 -2.170   -2.171   -1.974 -1.865 -1.894 -2.193   -2.195 3.1690       5.203 5.202 0.000
VANMET_231 2018-01-19 02:45:00 231 11739.0   -1.957 -1.854 -2.189 -1.837   100.000   -2.190 3.007 3.474 3.291 3.366 0.311 0.322 0.395 0.693 0.00 80.00   0.9410 232.20 30.35 0 1 0   -1.951 -1.849 -1.784 -2.177   -2.178   -1.963 -1.861 -1.875 -2.207   -2.208 2.5020       5.201 5.200 0.000
VANMET_231 2018-01-19 02:40:00 231 11739.0   -1.966 -1.860 -2.194 -1.856   100.000   -2.195 3.011 3.477 3.291 3.366 0.311 0.322 0.395 0.693 0.00 87.50   0.8390 218.50 17.15 0 1 0   -1.963 -1.855 -1.825 -2.177   -2.178   -1.967 -1.865 -1.884 -2.210   -2.211 1.6990       5.199 5.198 0.000
VANMET_231 2018-01-19 02:35:00 231 11739.0   -1.972 -1.873 -2.202 -1.850   100.000   -2.203 3.015 3.480 3.291 3.366 0.311 0.322 0.395 0.693 0.00 93.50   0.8420 231.90 18.01 0 1 0   -1.963 -1.865 -1.820 -2.190   -2.191   -1.989 -1.885 -1.885 -2.226   -2.228 1.0980       5.196 5.195 0.000
VANMET_231 2018-01-19 02:30:00 231 11739.0   -1.985 -1.882 -2.218 -1.874   100.000   -2.219 3.018 3.483 3.290 3.365 0.311 0.322 0.395 0.693 0.00 95.50   1.0800 233.80 18.61 0 1 0   -1.977 -1.876 -1.838 -2.196   -2.198   -1.990 -1.887 -1.902 -2.246   -2.248 1.8290       5.189 5.189 0.000
VANMET_231 2018-01-19 02:25:00 231 11739.0   -2.000 -1.895 -2.229 -1.862   100.000   -2.230 3.022 3.486 3.289 3.365 0.311 0.322 0.395 0.693 0.00 96.50   0.9380 238.80 19.82 0 1 0   -1.988 -1.881 -1.825 -2.213   -2.214   -2.011 -1.906 -1.892 -2.247   -2.248 1.6590       5.185 5.185 0.000
VANMET_231 2018-01-19 02:20:00 231 11739.0   -2.023 -1.911 -2.238 -1.896   100.000   -2.239 3.025 3.488 3.288 3.365 0.311 0.322 0.395 0.693 0.00 96.00   1.1110 233.10 15.01 0 1 0   -2.011 -1.906 -1.852 -2.220   -2.221   -2.029 -1.916 -1.947 -2.250   -2.251 1.8160       5.182 5.181 0.000
VANMET_231 2018-01-19 02:15:00 231 11739.0   -2.023 -1.904 -2.250 -1.877   100.000   -2.251 3.029 3.491 3.288 3.364 0.312 0.322 0.395 0.693 0.00 96.00   1.0860 234.30 15.58 0 1 0   -2.009 -1.890 -1.806 -2.233   -2.235   -2.042 -1.919 -1.951 -2.266   -2.268 2.6530       5.177 5.177 0.000
VANMET_231 2018-01-19 02:10:00 231 11739.0   -2.049 -1.931 -2.274 -1.908   100.000   -2.276 3.033 3.494 3.287 3.364 0.312 0.323 0.395 0.693 0.00 95.50   0.9480 229.20 18.01 0 1 0   -2.042 -1.921 -1.864 -2.260   -2.261   -2.057 -1.947 -1.949 -2.296   -2.298 1.8880       5.168 5.167 0.000
VANMET_231 2018-01-19 02:05:00 231 11739.0   -2.052 -1.944 -2.304 -1.927   100.000   -2.305 3.036 3.496 3.287 3.364 0.312 0.323 0.395 0.693 0.00 95.50   1.3680 231.90 26.40 0 1 0   -2.042 -1.937 -1.889 -2.283   -2.285   -2.069 -1.956 -1.953 -2.336   -2.338 2.9200       5.156 5.156 0.000
VANMET_231 2018-01-19 02:00:00 231 11739.0   -2.103 -1.988 -2.349 -1.944   100.000   -2.351 3.040 3.499 3.286 3.364 0.312 0.323 0.395 0.693 0.00 95.50   0.9250 245.90 20.82 0 1 0   -2.076 -1.962 -1.865 -2.320   -2.321   -2.121 -2.006 -2.000 -2.373   -2.375 1.9530       5.139 5.139 0.000
VANMET_231 2018-01-19 01:55:00 231 11739.0   -2.135 -2.026 -2.382 -2.017   100.000   -2.383 3.044 3.502 3.285 3.364 0.312 0.323 0.395 0.693 0.00 95.50   0.9310 231.90 18.27 0 1 0   -2.126 -2.010 -1.959 -2.370   -2.371   -2.139 -2.032 -2.051 -2.393   -2.394 1.3390       5.127 5.126 -0.000
VANMET_231 2018-01-19 01:50:00 231 11739.0   -2.155 -2.040 -2.399 -2.023   100.000   -2.401 3.047 3.505 3.285 3.364 0.312 0.323 0.395 0.693 0.00 95.00   0.8810 233.50 20.30 0 1 0   -2.134 -2.030 -1.960 -2.380   -2.381   -2.164 -2.044 -2.064 -2.423   -2.424 1.8880       5.120 5.119 0.000
VANMET_231 2018-01-19 01:45:00 231 11739.0   -2.177 -2.058 -2.448 -2.004   100.000   -2.449 3.051 3.508 3.285 3.364 0.312 0.323 0.395 0.693 0.00 94.50   1.1410 228.80 19.87 0 1 0   -2.155 -2.037 -1.956 -2.410   -2.411   -2.202 -2.085 -2.046 -2.503   -2.504 2.1630       5.102 5.101 0.000
VANMET_231 2018-01-19 01:40:00 231 11739.0   -2.247 -2.142 -2.509 -2.048   100.000   -2.511 3.055 3.511 3.284 3.364 0.312 0.323 0.396 0.693 0.00 94.50   0.7930 242.10 16.63 0 1 0   -2.203 -2.090 -1.987 -2.470   -2.471   -2.292 -2.189 -2.115 -2.536   -2.537 1.2020       5.079 5.078 0.000
VANMET_231 2018-01-19 01:35:00 231 11739.0   -2.301 -2.197 -2.542 -2.181   100.000   -2.544 3.059 3.514 3.284 3.363 0.312 0.323 0.396 0.693 0.00 95.50   0.9840 232.00 11.86 0 1 0   -2.296 -2.192 -2.133 -2.523   -2.524   -2.311 -2.207 -2.227 -2.566   -2.567 1.6140       5.066 5.065 0.000
VANMET_231 2018-01-19 01:30:00 231 11739.0   -2.341 -2.225 -2.570 -2.186   100.000   -2.571 3.062 3.517 3.283 3.363 0.312 0.323 0.396 0.693 0.00 95.50   0.9460 234.30 21.08 0 1 0   -2.311 -2.207 -2.137 -2.556   -2.557   -2.356 -2.238 -2.233 -2.586   -2.587 1.5090       5.056 5.055 0.000
VANMET_231 2018-01-19 01:25:00 231 11739.0   -2.386 -2.267 -2.586 -2.230   100.000   -2.588 3.066 3.519 3.282 3.363 0.312 0.323 0.396 0.693 0.00 95.50   0.7630 239.00 19.52 0 1 0   -2.361 -2.242 -2.139 -2.569   -2.571   -2.396 -2.277 -2.296 -2.602   -2.604 1.0850       5.050 5.049 0.000
VANMET_231 2018-01-19 01:20:00 231 11739.0   -2.393 -2.275 -2.589 -2.288   100.000   -2.590 3.070 3.522 3.282 3.363 0.313 0.323 0.396 0.693 0.00 95.50   0.9150 227.50 11.24 0 1 0   -2.389 -2.265 -2.259 -2.566   -2.568   -2.396 -2.279 -2.328 -2.609   -2.611 1.7380       5.048 5.048 0.000
VANMET_231 2018-01-19 01:15:00 231 11739.0   -2.400 -2.272 -2.589 -2.256   100.000   -2.591 3.074 3.525 3.281 3.362 0.313 0.324 0.396 0.693 0.00 95.50   0.6230 229.60 13.87 0 1 0   -2.389 -2.264 -2.177 -2.576   -2.578   -2.409 -2.280 -2.308 -2.606   -2.608 1.0000       5.048 5.048 0.000
VANMET_231 2018-01-19 01:10:00 231 11739.0   -2.413 -2.280 -2.595 -2.255   100.000   -2.596 3.078 3.528 3.281 3.362 0.313 0.324 0.396 0.693 0.00 98.00   0.6500 233.90 10.28 0 1 0   -2.404 -2.272 -2.218 -2.569   -2.571   -2.419 -2.287 -2.297 -2.613   -2.614 1.0910       5.046 5.046 0.000
VANMET_231 2018-01-19 01:05:00 231 11739.0   -2.416 -2.282 -2.592 -2.270   100.000   -2.593 3.082 3.531 3.280 3.362 0.313 0.324 0.396 0.693 0.00 98.00   0.4340 229.90 4.40 0 1 0   -2.408 -2.274 -2.219 -2.580   -2.581   -2.426 -2.295 -2.317 -2.603   -2.604 0.7320       5.047 5.047 0.000
VANMET_231 2018-01-19 01:00:00 231 11739.0   -2.416 -2.282 -2.577 -2.290   100.000   -2.578 3.086 3.534 3.280 3.362 0.313 0.324 0.396 0.693 0.00 98.00   0.7460 233.30 7.25 0 1 0   -2.405 -2.272 -2.231 -2.553   -2.555   -2.426 -2.295 -2.325 -2.586   -2.588 1.0580       5.053 5.053 0.000
VANMET_231 2018-01-19 00:55:00 231 11739.0   -2.390 -2.257 -2.545 -2.259   100.000   -2.546 3.090 3.537 3.279 3.361 0.313 0.324 0.396 0.693 0.00 98.00   0.5710 237.90 5.58 0 1 0   -2.365 -2.234 -2.217 -2.513   -2.515   -2.403 -2.269 -2.285 -2.570   -2.571 0.8300       5.065 5.065 0.000
VANMET_231 2018-01-19 00:50:00 231 11739.0   -2.346 -2.210 -2.524 -2.201   100.000   -2.526 3.093 3.540 3.278 3.362 0.313 0.324 0.396 0.693 0.00 98.00   0.4720 218.10 9.21 0 1 0   -2.336 -2.199 -2.089 -2.510   -2.512   -2.362 -2.231 -2.259 -2.543   -2.545 0.7250       5.073 5.072 0.000
VANMET_231 2018-01-19 00:45:00 231 11739.0   -2.355 -2.223 -2.512 -2.206   100.000   -2.513 3.097 3.542 3.278 3.361 0.313 0.324 0.396 0.693 0.00 100.50   0.7120 215.90 11.27 0 1 0   -2.346 -2.209 -2.098 -2.487   -2.488   -2.358 -2.227 -2.264 -2.530   -2.532 1.0060       5.077 5.077 0.000
VANMET_231 2018-01-19 00:40:00 231 11739.0   -2.337 -2.206 -2.489 -2.221   100.000   -2.491 3.101 3.546 3.277 3.361 0.313 0.324 0.396 0.693 0.00 101.00   0.6120 239.00 7.20 0 1 0   -2.315 -2.183 -2.200 -2.463   -2.465   -2.350 -2.217 -2.277 -2.510   -2.512 1.3070       5.086 5.085 0.000
VANMET_231 2018-01-19 00:35:00 231 11739.0   -2.296 -2.159 -2.461 -2.191   100.000   -2.463 3.105 3.549 3.277 3.361 0.313 0.324 0.396 0.693 0.00 101.50   0.6380 227.50 18.17 0 1 0   -2.273 -2.141 -2.104 -2.450   -2.451   -2.315 -2.182 -2.249 -2.473   -2.475 1.3330       5.097 5.096 0.000
VANMET_231 2018-01-19 00:30:00 231 11739.0   -2.268 -2.147 -2.462 -2.135   100.000   -2.463 3.109 3.551 3.276 3.361 0.314 0.324 0.396 0.693 0.00 100.50   0.6140 233.20 12.86 0 1 0   -2.255 -2.137 -2.034 -2.450   -2.451   -2.278 -2.160 -2.229 -2.476   -2.478 1.1110       5.096 5.096 0.000
VANMET_231 2018-01-19 00:25:00 231 11739.0   -2.242 -2.123 -2.434 -2.095   100.000   -2.436 3.114 3.554 3.275 3.361 0.314 0.324 0.396 0.694 0.00 100.00   0.7140 233.00 17.90 0 1 0   -2.226 -2.104 -1.976 -2.413   -2.415   -2.262 -2.144 -2.203 -2.456   -2.458 1.8490       5.107 5.106 0.000
VANMET_231 2018-01-19 00:20:00 231 11739.0   -2.258 -2.129 -2.410 -2.098   100.000   -2.412 3.117 3.557 3.275 3.360 0.314 0.325 0.396 0.694 0.00 97.00   0.5970 227.20 7.69 0 1 0   -2.239 -2.116 -1.981 -2.373   -2.374   -2.266 -2.139 -2.144 -2.433   -2.435 1.0260       5.116 5.115 0.000
VANMET_231 2018-01-19 00:15:00 231 11739.0   -2.218 -2.090 -2.376 -2.083   100.000   -2.378 3.121 3.560 3.274 3.360 0.314 0.325 0.396 0.694 0.00 94.00   0.4310 225.50 10.45 0 1 0   -2.206 -2.080 -2.019 -2.360   -2.361   -2.242 -2.110 -2.151 -2.396   -2.398 1.0850       5.129 5.128 0.000
VANMET_231 2018-01-19 00:10:00 231 11739.0   -2.187 -2.063 -2.356 -2.095   100.000   -2.358 3.125 3.563 3.274 3.360 0.314 0.325 0.396 0.694 0.00 93.50   0.6930 224.80 13.28 0 1 0   -2.175 -2.047 -2.038 -2.340   -2.341   -2.206 -2.083 -2.148 -2.370   -2.371 1.2610       5.137 5.136 0.000
VANMET_231 2018-01-19 00:05:00 231 11739.0   -2.159 -2.033 -2.326 -2.065   100.000   -2.327 3.129 3.566 3.273 3.360 0.314 0.325 0.396 0.694 0.00 91.00   0.9950 219.20 19.06 0 1 0   -2.134 -2.012 -2.010 -2.297   -2.298   -2.175 -2.048 -2.113 -2.346   -2.348 1.4630       5.148 5.148 0.000
VANMET_231 2018-01-19 00:00:00 231 11739.0   -2.103 -1.984 -2.296 -2.024   100.000   -2.297 3.134 3.569 3.273 3.359 0.314 0.325 0.397 0.694 0.00 91.00   0.7570 237.70 18.44 0 1 0   -2.084 -1.965 -1.946 -2.277   -2.278   -2.129 -2.006 -2.071 -2.313   -2.315 1.4110       5.160 5.159 0.000
VANMET_231 2018-01-18 23:55:00 231 11739.0   -2.094 -1.975 -2.296 -1.953   100.000   -2.297 3.137 3.571 3.272 3.359 0.314 0.325 0.397 0.694 0.00 91.00   0.8020 242.60 14.23 0 1 0   -2.085 -1.967 -1.916 -2.283   -2.285   -2.102 -1.978 -2.004 -2.307   -2.308 1.5880       5.160 5.159 0.000
VANMET_231 2018-01-18 23:50:00 231 11739.0   -2.043 -1.930 -2.283 -1.935   100.000   -2.284 3.141 3.574 3.271 3.359 0.315 0.325 0.397 0.694 0.00 91.00   1.0860 234.00 23.66 0 1 0   -2.010 -1.902 -1.811 -2.267   -2.268   -2.088 -1.970 -2.042 -2.293   -2.295 2.6590       5.165 5.164 0.000
VANMET_231 2018-01-18 23:45:00 231 11739.0   -2.041 -1.920 -2.298 -1.859   100.000   -2.299 3.145 3.577 3.271 3.359 0.315 0.325 0.397 0.694 0.00 88.50   0.7090 225.80 12.78 0 1 0   -2.016 -1.899 -1.794 -2.276   -2.278   -2.065 -1.943 -1.919 -2.313   -2.314 2.1760       5.159 5.158 0.000
VANMET_231 2018-01-18 23:40:00 231 11739.0   -2.085 -1.960 -2.308 -1.912   100.000   -2.309 3.149 3.580 3.270 3.359 0.315 0.325 0.397 0.694 0.00 88.50   0.4060 257.30 27.96 0 1 0   -2.071 -1.947 -1.863 -2.296   -2.298   -2.095 -1.967 -1.951 -2.326   -2.328 0.7380       5.155 5.155 0.000
VANMET_231 2018-01-18 23:35:00 231 11739.0   -2.111 -1.973 -2.315 -1.912   100.000   -2.316 3.154 3.583 3.269 3.359 0.315 0.325 0.397 0.694 0.00 86.50   0.5080 244.50 10.82 0 1 0   -2.098 -1.967 -1.866 -2.300   -2.301   -2.121 -1.980 -1.944 -2.330   -2.331 1.0000       5.152 5.152 0.000
VANMET_231 2018-01-18 23:30:00 231 11739.0   -2.148 -1.994 -2.335 -1.923   100.000   -2.336 3.158 3.586 3.268 3.359 0.315 0.326 0.397 0.694 0.00 83.50   0.6080 249.20 16.19 0 1 0   -2.124 -1.983 -1.883 -2.306   -2.308   -2.167 -2.008 -1.983 -2.356   -2.358 1.3130       5.145 5.144 0.000
VANMET_231 2018-01-18 23:25:00 231 11739.0   -2.210 -2.050 -2.380 -1.967   100.000   -2.382 3.162 3.589 3.268 3.358 0.315 0.326 0.397 0.694 0.00 81.50   0.5410 242.40 55.02 0 1 0   -2.170 -2.008 -1.865 -2.353   -2.354   -2.232 -2.070 -2.062 -2.400   -2.401 1.0710       5.127 5.127 0.000
VANMET_231 2018-01-18 23:20:00 231 11739.0   -2.243 -2.070 -2.395 -2.022   100.000   -2.397 3.166 3.592 3.267 3.358 0.315 0.326 0.397 0.694 0.00 81.00   0.2080 248.60 13.37 0 1 0   -2.234 -2.066 -1.984 -2.383   -2.384   -2.248 -2.075 -2.060 -2.426   -2.427 0.6270       5.122 5.121 0.000
VANMET_231 2018-01-18 23:15:00 231 11739.0   -2.255 -2.077 -2.417 -1.995   100.000   -2.419 3.170 3.595 3.266 3.358 0.315 0.326 0.397 0.694 0.00 80.50   0.2500 242.20 15.40 0 1 0   -2.248 -2.066 -1.941 -2.393   -2.394   -2.265 -2.089 -2.035 -2.439   -2.440 0.6790       5.113 5.113 0.000
VANMET_231 2018-01-18 23:10:00 231 11739.0   -2.280 -2.109 -2.435 -2.013   100.000   -2.436 3.175 3.598 3.266 3.358 0.315 0.326 0.397 0.694 0.00 80.50   0.2800 254.10 17.88 0 1 0   -2.269 -2.093 -1.966 -2.419   -2.421   -2.290 -2.118 -2.061 -2.449   -2.451 0.9210       5.107 5.106 0.000
VANMET_231 2018-01-18 23:05:00 231 11739.0   -2.308 -2.128 -2.447 -2.059   100.000   -2.449 3.179 3.601 3.265 3.358 0.315 0.326 0.397 0.694 0.00 80.50   0.6700 251.40 17.35 0 1 0   -2.292 -2.118 -1.984 -2.436   -2.437   -2.324 -2.136 -2.086 -2.459   -2.460 1.3330       5.102 5.101 0.000
VANMET_231 2018-01-18 23:00:00 231 11739.0   -2.361 -2.159 -2.480 -2.029   100.000   -2.481 3.183 3.604 3.265 3.357 0.315 0.326 0.397 0.694 0.00 80.50   0.3230 253.40 20.89 0 1 0   -2.326 -2.134 -1.953 -2.449   -2.451   -2.390 -2.194 -2.090 -2.519   -2.521 0.8490       5.090 5.089 0.000
VANMET_231 2018-01-18 22:55:00 231 11739.0   -2.421 -2.221 -2.545 -2.120   100.000   -2.546 3.187 3.607 3.264 3.357 0.316 0.326 0.397 0.694 0.00 80.50   0.4720 254.60 22.04 0 1 0   -2.392 -2.195 -2.057 -2.516   -2.518   -2.472 -2.244 -2.190 -2.563   -2.564 0.9280       5.065 5.065 0.000
VANMET_231 2018-01-18 22:50:00 231 11739.0   -2.503 -2.288 -2.600 -2.132   100.000   -2.601 3.192 3.610 3.263 3.357 0.316 0.326 0.397 0.694 0.00 80.50   0.4550 249.80 15.62 0 1 0   -2.475 -2.248 -2.053 -2.556   -2.557   -2.532 -2.339 -2.213 -2.642   -2.644 1.0850       5.044 5.044 0.000
VANMET_231 2018-01-18 22:45:00 231 11739.0   -2.541 -2.345 -2.625 -2.217   100.000   -2.627 3.196 3.613 3.262 3.356 0.316 0.326 0.397 0.694 0.00 79.00   0.0410 253.70 5.59 0 1 0   -2.536 -2.339 -2.161 -2.606   -2.607   -2.545 -2.352 -2.261 -2.639   -2.641 0.4700       5.035 5.034 0.000
VANMET_231 2018-01-18 22:40:00 231 11739.0   -2.528 -2.313 -2.617 -2.233   100.000   -2.619 3.200 3.616 3.262 3.357 0.316 0.327 0.397 0.694 0.00 79.00   0.2220 261.30 3.70 0 1 0   -2.521 -2.296 -2.138 -2.599   -2.601   -2.539 -2.338 -2.273 -2.636   -2.637 0.8360       5.038 5.037 0.000
VANMET_231 2018-01-18 22:35:00 231 11739.0   -2.595 -2.333 -2.644 -2.165   100.000   -2.646 3.205 3.619 3.261 3.356 0.316 0.327 0.397 0.694 0.00 79.00   0.1420 254.50 4.44 0 1 0   -2.540 -2.302 -2.077 -2.613   -2.614   -2.640 -2.377 -2.234 -2.666   -2.667 0.3720       5.028 5.027 0.000
VANMET_231 2018-01-18 22:30:00 231 11739.0   -2.683 -2.394 -2.672 -2.271   100.000   -2.674 3.209 3.622 3.261 3.356 0.316 0.327 0.397 0.694 0.00 77.00   0.0750 244.60 0.00 0 1 0   -2.647 -2.379 -2.194 -2.656   -2.658   -2.721 -2.405 -2.318 -2.686   -2.688 0.6210       5.017 5.017 0.000
VANMET_231 2018-01-18 22:25:00 231 11739.0   -2.761 -2.424 -2.692 -2.266   100.000   -2.693 3.214 3.625 3.260 3.356 0.316 0.327 0.398 0.694 0.00 75.50   0.0000 0.00 0.00 0 1 0   -2.732 -2.410 -2.230 -2.673   -2.674   -2.776 -2.431 -2.318 -2.706   -2.707 0.0000       5.010 5.010 0.000
VANMET_231 2018-01-18 22:20:00 231 11739.0   -2.792 -2.462 -2.728 -2.272   100.000   -2.730 3.218 3.628 3.259 3.356 0.316 0.327 0.398 0.694 0.00 76.50   0.0000 0.00 0.00 0 1 0   -2.777 -2.432 -2.243 -2.696   -2.697   -2.818 -2.495 -2.297 -2.766   -2.767 0.0000       4.996 4.996 0.000
VANMET_231 2018-01-18 22:15:00 231 11739.0   -2.874 -2.569 -2.818 -2.312   100.000   -2.820 3.222 3.631 3.258 3.356 0.316 0.327 0.398 0.694 0.00 76.00   0.2420 258.10 16.46 0 1 0   -2.820 -2.500 -2.254 -2.766   -2.767   -2.940 -2.643 -2.378 -2.865   -2.867 0.6530       4.963 4.962 0.000
VANMET_231 2018-01-18 22:10:00 231 11739.0   -2.952 -2.669 -2.866 -2.437   100.000   -2.868 3.227 3.634 3.257 3.356 0.317 0.327 0.398 0.694 0.00 76.00   0.2090 252.80 20.71 0 1 0   -2.911 -2.645 -2.318 -2.846   -2.847   -2.973 -2.690 -2.498 -2.885   -2.887 0.6930       4.945 4.945 0.000
VANMET_231 2018-01-18 22:05:00 231 11739.0   -2.868 -2.608 -2.829 -2.436   100.000   -2.831 3.231 3.637 3.257 3.355 0.317 0.327 0.398 0.694 0.00 76.00   0.1890 257.30 0.41 0 1 0   -2.837 -2.591 -2.398 -2.816   -2.817   -2.906 -2.640 -2.467 -2.849   -2.851 0.6470       4.959 4.958 0.000
VANMET_231 2018-01-18 22:00:00 231 11739.0   -2.813 -2.592 -2.839 -2.407   100.000   -2.840 3.236 3.640 3.256 3.355 0.317 0.327 0.398 0.694 0.00 78.00   0.4500 275.40 22.87 0 1 0   -2.792 -2.584 -2.366 -2.819   -2.821   -2.833 -2.601 -2.444 -2.853   -2.854 1.0320       4.955 4.955 0.000
VANMET_231 2018-01-18 21:55:00 231 11739.0   -2.751 -2.558 -2.832 -2.429   100.000   -2.833 3.240 3.643 3.255 3.355 0.317 0.328 0.398 0.694 0.00 78.00   0.6420 252.50 11.92 0 1 0   -2.721 -2.524 -2.367 -2.816   -2.818   -2.785 -2.601 -2.463 -2.846   -2.848 1.2810       4.958 4.958 0.000
VANMET_231 2018-01-18 21:50:00 231 11739.0   -2.718 -2.523 -2.819 -2.327   100.000   -2.820 3.245 3.646 3.255 3.355 0.317 0.328 0.398 0.694 0.00 79.50   0.4700 261.80 35.19 0 1 0   -2.707 -2.513 -2.270 -2.800   -2.801   -2.728 -2.536 -2.394 -2.850   -2.851 1.3720       4.963 4.962 0.000
VANMET_231 2018-01-18 21:45:00 231 11739.0   -2.764 -2.560 -2.850 -2.392   100.000   -2.852 3.249 3.649 3.255 3.355 0.317 0.328 0.398 0.694 0.00 81.00   0.3040 315.00 24.66 0 1 0   -2.730 -2.537 -2.286 -2.830   -2.831   -2.836 -2.604 -2.487 -2.873   -2.875 0.7710       4.951 4.951 0.000
VANMET_231 2018-01-18 21:40:00 231 11739.0   -2.876 -2.622 -2.857 -2.443   100.000   -2.859 3.253 3.652 3.253 3.355 0.317 0.328 0.398 0.694 0.00 81.00   0.5890 249.50 31.79 0 1 0   -2.841 -2.604 -2.347 -2.836   -2.838   -2.947 -2.630 -2.531 -2.876   -2.878 1.2410       4.949 4.948 0.000
VANMET_231 2018-01-18 21:35:00 231 11739.0   -2.973 -2.632 -2.831 -2.422   100.000   -2.833 3.258 3.655 3.253 3.355 0.317 0.328 0.398 0.694 0.00 81.00   0.3730 259.10 29.31 0 1 0   -2.958 -2.616 -2.337 -2.807   -2.809   -2.985 -2.658 -2.549 -2.857   -2.858 1.1110       4.958 4.958 0.000
VANMET_231 2018-01-18 21:30:00 231 11739.0   -2.940 -2.665 -2.853 -2.399   100.000   -2.855 3.263 3.658 3.252 3.354 0.318 0.328 0.398 0.694 0.00 81.00   0.3670 260.80 20.36 0 1 0   -2.911 -2.625 -2.325 -2.820   -2.822   -2.957 -2.692 -2.467 -2.877   -2.878 0.5810       4.950 4.949 0.000
VANMET_231 2018-01-18 21:25:00 231 11739.0   -2.903 -2.615 -2.805 -2.425   100.000   -2.807 3.267 3.661 3.252 3.354 0.318 0.328 0.398 0.694 0.00 83.50   0.2410 243.80 14.48 0 1